GFSWCAN_925_thetae_000.txt.gz
Theta_e
305 308 311 313 313 312 312 313 313 313 313 314 314 314 314 314 315 320 318 317 314 304 308 313 311 311 309 307 307 308 308 304 306 309 305 306 297 304 307 307 305 306 303 301 305 309 309 305 309 312 310 309 308 308
308 308 310 312 313 313 312 312 313 313 314 313 314 314 315 315 314 316 318 317 315 310 309 316 317 315 313 311 307 303 309 307 304 305 304 301 302 302 305 313 306 309 308 310 311 308 305 306 310 307 307 308 306 307
308 308 310 311 313 313 313 312 312 313 314 314 313 313 314 315 314 314 316 316 314 299 307 311 312 314 316 317 315 309 299 306 305 303 301 302 304 302 313 311 306 310 310 310 311 310 311 311 309 308 306 307 302 301
304 307 309 310 313 314 314 314 313 313 313 314 314 314 314 315 315 314 314 314 313 303 303 306 311 312 314 315 317 315 312 309 305 300 301 302 309 309 309 312 312 311 311 312 311 312 310 309 306 306 304 303 302 301
303 304 306 309 310 313 314 314 314 314 314 314 314 314 314 315 315 314 314 313 313 312 305 304 309 311 312 312 314 315 313 308 304 305 304 308 303 306 303 305 309 309 311 310 313 311 312 311 307 306 304 302 301 300
302 302 304 306 308 311 313 312 314 314 314 314 314 314 313 314 314 314 308 314 313 313 304 307 306 307 309 310 311 310 310 307 306 308 304 306 308 308 308 312 309 309 309 310 312 310 310 306 303 301 300 298 298 298
300 301 302 303 305 307 311 314 313 314 313 313 313 312 313 314 314 313 309 310 312 312 300 306 304 298 304 304 303 304 306 305 306 308 306 306 306 310 305 313 310 309 309 308 306 307 305 301 301 299 298 298 296 296
300 301 300 301 303 304 306 308 312 313 313 312 311 312 313 312 312 311 311 309 312 311 303 306 306 301 303 300 302 299 299 302 306 308 303 304 304 303 310 309 307 307 306 304 302 301 300 300 299 298 295 294 293 292
301 302 302 302 302 303 303 305 307 308 310 310 310 311 307 308 307 307 309 310 311 308 306 301 308 310 302 301 298 296 298 304 301 302 303 304 305 310 309 303 301 301 303 302 299 298 298 294 294 294 293 292 292 291
301 301 301 300 301 302 303 303 304 306 306 306 307 305 299 302 304 306 306 302 301 298 299 303 301 306 306 299 301 302 298 303 307 303 300 303 306 304 299 299 299 298 298 297 297 296 295 295 293 293 293 291 291 291
301 301 300 300 301 302 303 303 304 306 305 304 299 298 301 302 302 299 301 303 301 303 299 299 300 304 300 304 304 299 302 301 299 296 303 302 300 299 296 295 294 294 295 295 295 295 294 294 293 293 292 292 292 292
300 300 299 300 302 301 303 303 304 303 302 303 302 302 302 301 299 306 303 299 302 303 298 300 300 301 298 300 301 299 301 299 301 294 299 296 296 296 296 296 295 294 294 293 293 293 293 293 294 293 292 292 292 292
299 300 299 300 301 301 301 303 302 302 303 302 301 298 301 298 304 305 302 303 302 299 298 298 300 298 297 297 298 298 297 296 290 295 295 294 295 293 292 293 294 294 293 292 291 292 292 292 292 292 290 291 290 289
298 300 299 300 301 300 301 301 301 301 300 296 297 303 300 300 301 300 299 293 292 297 298 298 297 297 293 296 294 293 291 290 298 294 292 290 293 292 291 291 292 292 291 289 290 291 291 290 290 291 290 290 289 288
298 299 299 299 300 300 301 301 299 298 297 295 292 297 298 293 294 297 296 297 295 295 296 297 295 293 293 291 292 289 294 295 294 291 286 288 292 292 292 292 291 288 288 288 291 290 290 290 289 289 290 290 289 289
298 300 299 299 299 299 300 301 300 297 292 291 290 289 292 296 296 296 297 298 295 294 292 291 288 290 290 287 288 292 291 290 288 282 285 287 292 292 291 290 290 291 290 290 290 290 290 290 289 289 289 289 290 289
299 299 299 298 298 298 298 298 298 290 288 287 287 291 286 286 289 290 295 295 295 295 294 289 288 289 285 284 287 288 286 285 283 284 285 288 291 291 291 290 290 290 290 290 290 291 290 290 289 288 285 288 289 289
297 298 298 297 298 297 296 294 289 288 290 286 288 286 291 286 287 291 289 287 294 293 291 292 287 284 282 285 285 284 283 282 283 283 286 288 290 290 290 289 290 290 290 290 290 290 289 289 288 287 288 288 288 288
297 298 297 296 296 294 292 292 290 288 286 283 283 284 283 284 287 285 285 289 293 292 290 286 282 284 286 283 282 277 275 279 285 287 286 289 290 289 289 290 290 290 290 290 289 289 289 289 288 289 289 288 288 289
296 296 296 295 294 292 288 286 289 288 288 287 282 285 283 284 285 286 289 286 286 293 294 291 288 285 284 284 284 283 284 284 284 286 289 286 289 289 290 290 290 290 290 289 289 287 286 286 288 289 289 289 289 290
295 294 294 293 293 291 287 284 285 284 286 286 283 283 282 286 288 288 289 290 291 290 288 287 283 285 288 288 289 290 288 287 287 285 286 288 289 290 290 290 290 289 287 287 286 287 287 288 288 289 289 288 288 288
293 294 293 292 289 287 285 286 285 283 283 282 281 281 278 278 285 288 288 290 290 286 288 287 289 287 288 287 289 289 289 289 288 288 288 287 286 286 286 288 288 287 288 287 288 287 288 288 287 288 289 288 287 288
294 292 290 289 285 281 285 286 282 283 283 281 279 282 278 276 278 285 288 290 286 287 289 288 290 290 289 290 290 290 290 288 288 288 287 287 288 288 288 288 287 286 285 287 288 288 287 287 287 289 289 287 287 288
292 289 286 285 282 284 285 286 283 281 278 279 279 282 280 277 278 285 285 279 285 285 285 289 289 286 288 287 285 288 289 289 289 288 289 287 285 288 290 290 290 289 288 288 287 287 287 287 289 288 288 288 287 287
289 289 283 287 286 284 286 278 279 288 288 278 280 279 278 275 280 278 280 281 277 277 281 284 284 285 284 281 284 288 290 289 288 284 290 290 290 288 288 290 289 288 287 287 287 287 287 287 287 286 287 287 287 286
284 287 287 284 286 281 279 281 285 284 273 276 281 275 269 273 279 283 282 280 275 276 275 277 277 278 281 285 284 287 290 291 289 286 289 290 289 287 286 281 282 286 287 287 286 286 286 286 285 285 285 286 287 287
284 288 289 283 283 280 276 272 274 274 274 279 275 274 275 281 279 282 281 281 282 289 290 291 291 287 287 290 290 290 290 289 289 289 288 289 289 289 289 287 286 286 286 285 285 285 285 285 285 285 285 285 286 286
280 280 286 284 285 279 276 273 275 279 278 279 276 280 282 282 283 282 283 290 290 289 289 289 291 291 290 290 289 289 290 290 290 289 288 288 289 288 287 286 285 285 285 284 284 283 284 284 284 284 284 284 285 285
288 282 281 283 277 275 279 281 280 280 282 282 282 279 280 281 282 283 286 286 286 286 286 286 287 288 288 288 289 287 287 287 287 286 285 285 280 285 284 284 284 284 283 283 283 283 283 284 284 284 284 283 283 283
286 281 280 278 282 284 284 284 280 276 277 281 280 281 281 282 280 279 280 280 279 279 281 282 282 282 283 284 285 286 283 284 284 284 284 280 281 281 281 281 282 282 282 282 282 282 283 283 283 283 283 283 283 282
276 279 283 281 280 278 279 274 276 275 270 274 273 281 286 277 275 274 274 274 275 276 275 274 276 277 277 277 277 279 281 279 279 279 279 279 279 279 279 279 279 280 280 281 280 280 281 281 281 281 280 280 279 278
281 279 279 278 278 274 268 275 270 272 272 272 283 269 271 272 269 272 272 272 272 272 272 272 272 273 275 276 277 277 276 276 276 276 276 276 276 276 276 276 277 277 278 278 279 279 279 278 278 276 275 273 272 272
271 269 272 270 274 275 270 273 271 273 268 268 269 268 267 271 273 272 272 271 271 270 270 271 273 274 275 275 275 275 275 274 275 275 275 274 274 274 274 274 275 275 276 276 276 276 276 275 273 272 271 270 269 269

GFSWCAN_925_thetae_003.txt.gz
Theta_e
305 306 309 312 313 312 311 311 311 312 312 312 313 314 314 313 315 319 316 315 312 305 308 311 309 309 308 308 312 309 311 307 308 310 311 311 310 310 310 309 308 310 311 309 307 311 313 305 308 314 313 308 309 308
308 307 308 310 312 312 312 311 312 312 312 312 313 313 314 314 313 317 317 315 313 310 310 315 315 311 311 309 308 304 310 308 309 308 306 305 309 302 308 316 306 313 311 313 312 313 308 306 310 309 307 308 306 305
305 307 308 310 311 312 311 311 311 312 313 313 313 313 314 314 313 314 316 315 313 302 307 311 312 314 316 314 312 312 303 307 306 304 305 305 311 306 311 310 310 309 308 312 311 313 310 310 309 308 306 306 303 303
303 304 308 309 310 312 312 312 311 312 312 313 313 313 313 314 314 313 315 313 313 302 304 308 310 311 314 315 316 314 310 307 303 303 302 304 308 309 310 313 313 313 311 312 311 313 311 309 309 310 305 304 302 301
302 303 304 307 309 311 312 313 313 312 312 313 313 313 313 314 315 314 313 313 312 312 307 305 309 310 311 312 315 314 311 307 306 306 305 309 306 308 305 305 309 311 313 314 314 311 312 311 308 306 304 302 301 299
301 302 302 304 307 309 312 313 313 313 312 313 313 314 313 314 315 315 309 314 313 313 304 309 305 305 307 310 311 310 310 307 308 309 305 308 308 310 308 310 310 310 310 311 312 308 306 304 302 301 300 298 297 297
300 300 300 300 305 306 308 312 313 314 313 313 313 313 313 313 313 313 309 310 313 313 302 306 305 299 303 304 302 303 305 306 309 309 306 307 308 310 305 312 310 309 309 307 306 305 302 301 300 298 298 296 295 295
300 301 301 301 303 304 305 308 312 313 314 314 313 312 313 313 313 312 312 311 312 310 303 305 305 302 302 302 303 299 302 304 307 309 303 306 305 305 310 310 305 303 304 303 301 301 301 298 296 296 296 295 295 294
300 301 302 302 301 303 304 305 308 311 313 313 312 311 309 310 308 309 312 311 311 307 307 302 308 311 301 301 299 299 300 306 302 303 303 305 306 310 307 302 302 301 302 300 298 296 296 297 297 297 296 295 294 294
300 301 301 300 302 302 302 304 305 307 311 311 308 306 300 303 306 307 308 304 301 299 300 303 301 307 306 301 302 303 299 304 308 304 300 303 306 302 299 300 300 298 298 298 298 297 297 296 296 295 295 294 293 292
300 301 300 300 301 302 302 302 304 305 305 305 299 298 301 303 303 300 301 303 302 303 300 300 300 305 300 305 304 299 302 302 304 301 304 304 304 300 297 296 295 295 295 295 296 295 294 293 294 293 293 293 292 291
299 301 300 300 301 303 303 303 304 305 304 304 303 302 302 302 300 303 303 300 303 305 299 301 300 301 298 300 301 298 301 299 300 296 302 303 299 297 297 296 295 294 293 293 292 292 291 291 291 291 291 290 290 290
299 300 300 301 302 302 303 304 304 304 303 302 301 298 302 299 305 306 306 304 304 300 298 299 301 298 297 298 298 298 299 299 293 298 299 298 296 293 293 294 294 294 292 292 292 292 292 291 292 290 289 290 290 288
299 300 299 301 301 301 303 302 302 301 300 296 300 303 301 302 301 297 296 296 295 298 298 298 297 298 294 297 295 297 293 293 298 297 297 294 294 292 292 292 292 292 290 288 290 291 291 290 289 290 290 289 288 287
299 299 299 300 301 301 300 299 299 299 297 294 295 300 299 293 296 297 296 297 295 296 297 297 295 296 293 294 292 292 296 296 295 296 293 292 293 292 292 291 291 289 288 288 291 290 290 290 288 288 290 289 288 287
298 299 299 301 301 301 301 300 300 296 292 292 290 293 293 294 296 297 298 298 295 294 292 293 292 296 294 292 293 292 293 294 294 290 289 290 292 292 292 291 291 291 290 289 289 290 289 289 288 288 289 289 289 288
298 299 299 300 300 299 300 299 298 291 290 289 288 288 288 289 294 295 296 297 295 296 294 291 294 295 288 290 292 290 291 291 288 288 287 289 292 292 291 290 290 289 289 289 290 290 289 290 289 288 287 289 289 288
297 299 299 299 298 298 297 294 290 290 290 288 290 291 290 289 288 288 292 292 295 293 292 293 289 288 289 291 291 289 288 287 285 287 289 289 290 291 291 290 289 289 289 289 290 289 289 288 287 288 287 288 287 288
297 298 298 298 298 295 292 291 290 289 285 284 285 287 288 289 287 286 287 290 292 290 289 288 287 290 290 288 288 285 283 284 289 289 289 290 290 290 289 288 288 289 289 289 289 288 288 287 285 285 286 287 287 288
297 297 296 295 296 293 289 287 289 288 288 287 285 288 285 287 287 288 290 291 293 295 295 294 291 290 288 287 286 287 287 285 286 288 290 288 289 289 288 289 289 289 289 289 288 288 288 287 287 287 287 287 288 288
292 293 294 295 292 291 287 286 286 286 286 287 284 284 284 287 289 289 290 291 292 293 292 290 288 288 288 288 289 289 288 287 288 288 289 289 289 288 288 288 288 288 287 286 285 286 286 286 287 287 287 287 288 287
293 294 294 292 288 287 285 285 285 283 284 283 282 282 279 281 287 288 288 291 291 289 289 288 289 289 288 288 289 289 289 289 288 288 288 287 287 287 286 287 287 287 287 286 286 286 286 287 287 286 286 287 288 287
294 293 290 288 285 282 286 285 283 283 283 282 280 282 279 277 280 285 288 289 288 287 288 288 289 290 289 289 289 289 289 288 287 287 287 286 287 287 286 287 287 285 285 287 289 287 287 287 286 287 287 288 287 288
293 289 284 282 279 284 286 282 284 285 280 281 280 284 281 280 282 285 287 283 285 284 286 288 288 287 287 287 286 288 289 289 289 288 289 287 286 287 288 289 289 288 289 289 287 287 286 286 287 286 286 285 285 287
288 288 283 285 282 284 281 286 286 288 288 286 284 282 278 277 280 283 285 283 280 280 281 282 282 285 286 284 284 288 290 289 288 286 289 289 287 286 286 288 287 287 288 287 287 286 286 286 286 286 285 285 285 286
285 287 281 278 279 281 278 285 286 286 280 281 283 275 271 275 280 284 283 282 279 280 279 280 282 282 283 284 286 286 290 290 288 285 288 288 288 286 286 285 285 287 287 287 286 285 285 285 285 285 285 285 285 285
286 288 287 282 282 279 275 274 276 275 281 282 277 275 275 282 280 283 282 281 283 287 289 289 289 287 287 289 289 289 289 288 287 287 288 288 287 288 287 286 286 286 286 285 285 284 284 284 284 285 284 284 284 284
280 279 283 285 283 277 276 272 275 279 279 279 277 281 282 282 284 283 282 283 284 286 287 286 286 286 286 287 287 288 288 288 288 288 288 288 287 285 285 284 284 284 284 284 283 283 283 283 283 283 283 283 282 283
286 279 280 286 283 282 278 283 283 281 282 280 281 278 281 281 278 276 278 278 280 281 280 280 281 282 284 283 284 284 285 284 285 286 288 287 284 282 281 282 282 282 282 282 282 282 282 282 282 283 283 282 282 281
285 278 278 278 280 283 283 282 280 276 277 280 279 280 280 275 273 273 274 274 273 273 274 275 275 276 276 276 277 279 278 278 278 278 281 281 277 277 278 279 279 279 280 280 280 280 281 280 281 281 281 280 278 277
275 281 281 279 279 278 276 270 273 272 268 273 270 279 282 274 273 272 272 272 272 272 272 271 272 273 273 274 274 276 277 275 275 275 275 275 275 275 276 276 276 276 277 278 278 278 278 278 277 277 275 274 273 272
283 283 281 281 279 271 268 274 268 270 268 270 274 266 269 272 269 271 270 270 270 270 269 270 270 271 273 274 274 273 273 273 273 273 273 273 273 273 274 274 274 275 276 276 276 276 276 275 274 272 271 270 269 269
279 279 279 277 278 276 269 270 271 274 269 267 267 266 266 268 268 269 269 269 268 268 268 269 271 272 272 272 271 271 271 271 271 272 272 272 272 272 272 272 273 273 274 274 274 273 273 272 270 269 268 267 267 266

GFSWCAN_925_thetae_006.txt.gz
Theta_e
306 308 312 312 312 312 311 311 311 311 311 312 313 313 313 313 316 318 315 314 316 318 315 314 314 316 316 319 324 318 320 318 318 320 316 320 318 319 316 315 316 317 319 318 315 315 318 311 312 316 316 312 310 310
307 306 308 311 312 312 312 311 311 311 312 312 313 313 314 314 314 317 318 313 312 318 318 315 315 313 315 316 318 317 319 319 321 320 313 312 313 309 320 320 313 316 316 316 315 318 314 313 312 312 310 310 311 309
305 307 308 310 310 312 312 311 311 312 312 312 312 313 314 314 313 314 316 314 313 317 317 319 319 315 314 313 314 321 316 316 316 314 317 313 315 316 315 317 319 315 313 315 315 315 314 314 313 312 310 308 306 305
303 304 307 308 309 310 311 311 311 311 312 313 313 313 313 314 313 314 314 313 312 310 311 318 310 313 314 315 316 316 314 311 311 314 307 310 317 315 315 319 317 316 314 314 315 315 314 313 312 310 308 305 304 303
301 302 303 306 309 310 311 312 311 311 311 312 313 313 313 314 314 313 313 312 312 319 319 318 311 309 310 314 316 315 315 316 315 312 307 314 315 315 312 312 316 315 315 316 316 314 314 312 308 308 307 305 302 300
300 300 301 300 305 308 310 311 312 312 311 312 313 313 313 314 315 315 319 314 313 313 317 321 311 310 309 312 315 315 316 316 317 314 313 314 315 317 312 313 313 313 313 313 314 309 309 307 305 305 303 301 299 298
300 300 300 301 304 306 308 310 311 312 313 312 312 313 313 313 314 316 317 312 313 314 313 318 315 307 305 309 308 312 311 315 314 315 314 316 317 314 310 313 313 312 310 309 308 306 306 305 305 301 299 298 298 298
300 301 302 301 302 303 305 308 311 312 313 313 313 312 313 313 312 313 312 312 312 311 309 311 310 311 305 309 308 303 307 310 313 314 308 314 312 313 313 313 309 306 305 305 305 306 305 302 300 299 299 298 298 297
300 300 301 301 301 302 303 305 307 311 313 313 313 313 311 311 310 311 312 312 311 311 313 309 311 313 306 305 304 304 306 311 306 308 308 310 309 312 312 309 305 304 305 304 302 302 301 300 299 298 297 296 295 296
300 300 301 300 301 301 302 303 305 307 310 312 311 309 301 305 309 310 309 309 305 303 304 309 310 314 310 304 305 308 305 308 311 306 302 304 307 304 302 303 302 303 303 302 301 300 299 297 295 295 295 294 294 294
300 300 300 300 300 302 302 303 304 304 304 307 300 299 301 304 305 302 303 306 303 304 302 301 302 306 302 310 308 302 304 304 311 307 308 309 309 306 302 303 302 301 300 299 298 296 294 294 295 295 295 294 293 293
299 300 300 300 301 302 302 301 303 304 303 303 302 302 302 302 300 305 305 300 303 307 300 303 302 302 299 302 304 300 306 303 309 302 304 307 306 302 301 300 300 298 297 295 294 294 294 294 294 294 293 293 292 291
299 299 300 300 301 302 302 301 301 301 302 303 300 297 300 299 306 308 309 307 306 303 301 301 302 301 299 300 300 304 306 306 299 302 305 305 302 301 301 300 299 297 295 293 293 293 294 294 293 292 291 291 290 290
297 299 300 300 301 301 303 303 303 302 301 299 300 304 304 305 306 305 306 306 301 302 301 300 299 302 297 299 300 305 298 299 303 303 305 302 300 298 297 297 296 295 292 292 293 293 293 292 291 291 290 290 289 289
296 298 300 299 300 302 301 299 298 298 297 298 302 304 303 298 299 299 299 300 298 299 300 300 298 301 299 299 298 298 299 302 302 303 301 300 296 296 296 294 294 294 293 292 293 293 292 291 290 290 290 290 290 289
296 298 299 299 300 300 300 298 299 297 293 296 296 298 297 300 299 299 299 299 297 296 296 299 300 302 300 300 299 301 301 301 301 300 299 296 296 295 295 295 293 292 292 292 292 292 291 291 290 291 290 289 289 289
296 298 299 300 300 301 300 298 297 293 294 297 296 294 296 299 302 300 300 298 295 298 301 299 301 301 295 299 299 297 298 299 298 297 295 294 295 295 294 294 292 291 291 291 292 292 291 291 289 289 290 291 290 289
296 297 299 299 299 299 296 294 294 295 295 293 297 295 294 294 296 297 297 296 297 297 296 299 294 296 298 299 299 297 296 295 294 294 294 294 293 294 294 293 292 292 291 291 291 291 290 289 290 292 291 289 288 289
296 297 299 298 298 296 295 293 292 295 293 292 291 292 292 293 290 290 292 293 294 294 294 296 297 297 296 294 297 297 296 295 295 295 294 292 292 292 291 291 290 290 291 291 292 292 292 291 291 290 290 289 288 288
296 296 297 297 296 295 294 293 290 294 295 293 291 293 292 292 290 291 294 295 296 298 299 298 298 297 297 295 294 295 294 293 293 293 293 293 291 291 291 291 292 292 292 291 292 291 290 291 292 291 290 289 288 288
294 293 295 296 292 291 292 292 293 293 292 294 290 293 291 291 291 292 293 293 296 297 297 297 297 297 293 292 291 292 292 292 293 293 293 293 292 292 291 291 291 291 291 292 292 292 290 291 291 290 288 288 287 287
292 292 292 292 290 289 290 288 292 290 293 292 293 292 293 293 291 291 291 293 294 295 295 296 295 295 294 293 292 291 291 291 291 291 290 290 292 292 292 292 291 292 292 292 292 292 291 291 289 288 287 287 287 287
292 292 290 289 291 291 290 288 292 290 293 292 291 293 293 292 289 287 291 291 292 292 292 293 292 292 292 292 291 290 290 290 291 292 292 291 291 291 291 291 291 290 291 292 291 290 290 289 288 288 287 287 287 286
292 289 290 290 290 290 290 290 290 290 291 291 292 291 290 290 286 288 290 290 292 291 290 291 291 292 291 290 291 291 291 290 291 291 291 291 291 292 292 291 291 290 289 289 289 289 289 287 287 287 287 287 286 286
293 289 290 289 288 289 290 290 290 291 291 290 289 290 289 285 290 290 290 292 292 292 293 290 289 290 292 293 292 291 289 290 291 292 291 291 290 290 291 291 291 290 288 287 288 288 288 287 287 286 286 286 286 286
290 289 290 288 288 290 289 289 289 290 289 288 288 285 284 290 291 292 291 293 293 292 295 295 293 292 291 290 291 291 292 289 289 290 290 290 289 289 289 290 290 290 288 287 287 287 287 286 285 285 285 285 285 285
289 289 289 285 287 286 286 284 285 287 287 288 290 286 289 291 292 292 290 287 289 286 285 286 286 287 288 288 288 288 287 287 287 288 287 286 286 286 285 286 287 287 285 285 285 285 285 285 285 285 285 285 284 284
289 289 289 288 288 287 288 288 288 288 290 288 288 289 291 291 292 288 285 281 280 281 283 284 283 282 283 284 283 284 284 284 285 285 285 285 286 283 283 282 282 282 283 283 283 283 283 284 284 283 284 284 284 283
290 287 288 287 286 287 288 290 291 290 289 289 291 292 290 286 279 278 277 276 277 278 279 278 278 278 280 279 280 280 279 279 280 283 285 287 288 280 278 278 278 279 280 280 281 281 281 281 281 281 281 281 280 280
289 287 289 286 287 290 292 290 291 288 286 288 287 287 285 278 274 274 274 274 274 274 274 274 274 275 275 276 277 278 276 275 275 276 278 279 276 275 274 274 275 276 277 276 278 279 280 279 279 279 278 278 276 276
286 287 289 289 290 291 287 280 280 281 283 287 286 289 289 277 273 271 271 272 272 272 272 273 273 274 275 275 274 275 276 273 272 272 272 273 272 272 272 273 274 274 275 275 275 277 276 277 276 275 274 273 271 271
287 289 289 289 290 284 281 283 284 286 287 286 288 280 279 280 276 272 269 270 271 270 270 270 271 272 272 272 271 271 270 270 269 270 270 271 271 271 272 272 273 273 273 273 273 273 273 273 272 272 271 270 269 268
284 283 284 285 286 288 283 282 284 283 283 283 281 279 277 277 273 270 269 268 269 268 268 268 269 269 271 270 269 269 269 268 269 269 269 270 270 270 270 270 271 271 271 271 270 270 270 269 269 268 267 266 265 264

GFSWCAN_925_thetae_009.txt.gz
Theta_e
310 313 313 312 312 311 311 311 311 311 311 311 312 313 313 313 318 321 319 314 323 324 319 318 318 321 321 322 327 323 322 323 324 320 322 324 323 321 319 316 318 319 321 318 318 320 319 314 313 318 317 315 314 312
307 310 312 313 312 312 311 311 311 311 311 311 312 313 314 313 315 318 321 313 318 322 322 319 318 318 320 320 321 322 321 322 322 324 322 320 317 318 321 320 316 318 318 319 319 319 315 315 316 315 314 314 312 310
307 307 309 312 312 312 312 311 311 311 311 312 312 313 314 314 314 317 321 318 320 324 321 320 320 318 316 318 319 323 322 320 321 321 322 319 315 320 318 321 321 316 316 319 317 315 314 315 315 314 312 311 308 306
304 306 308 309 310 311 312 311 311 311 312 312 312 313 313 314 314 315 319 316 319 318 318 323 313 318 315 318 319 320 318 318 319 319 314 312 319 319 319 319 319 318 317 317 319 316 314 314 313 312 310 309 308 306
301 302 303 307 308 310 311 311 311 311 311 312 313 313 313 314 314 317 318 316 315 322 323 322 315 314 315 318 319 318 318 319 320 316 312 316 320 320 318 316 319 316 317 320 320 316 315 315 312 310 310 308 306 303
300 300 300 303 306 307 309 311 311 311 311 311 312 313 313 314 315 319 321 318 314 318 322 323 316 314 314 316 318 318 318 319 320 319 314 319 318 319 314 318 314 314 314 314 316 314 313 310 308 308 307 304 302 301
300 301 301 302 304 305 307 309 311 311 311 311 312 313 313 313 316 318 319 315 314 318 319 319 322 312 311 316 316 318 317 319 319 318 318 318 319 317 318 318 313 313 313 313 312 310 307 307 308 304 303 301 300 299
300 301 301 301 302 303 304 306 309 311 312 312 311 313 313 313 313 315 314 312 314 317 317 317 316 314 310 315 315 310 314 314 317 318 313 315 317 317 317 315 314 313 311 308 307 307 307 306 304 302 301 299 298 297
300 300 301 300 301 301 302 303 306 309 312 312 312 313 313 312 312 315 313 312 312 316 318 310 314 314 310 309 308 308 310 314 311 313 313 314 314 316 315 314 313 310 309 306 306 306 304 303 301 299 297 297 297 296
300 299 300 300 300 301 302 302 303 307 310 312 309 309 303 308 311 311 312 314 310 311 312 311 314 314 313 308 307 309 308 312 311 310 305 305 309 311 311 310 310 308 308 307 306 304 302 300 297 297 296 296 295 294
300 299 300 300 300 301 302 302 304 306 304 306 301 299 301 305 306 305 306 309 308 308 306 309 311 312 308 311 309 305 308 307 313 310 310 312 311 311 308 306 305 305 304 304 302 300 296 296 296 296 296 295 294 294
299 299 300 300 301 302 301 303 303 303 303 303 302 302 303 302 301 312 306 302 305 311 303 304 305 307 303 304 304 300 305 305 313 307 309 309 310 307 306 306 304 303 301 299 296 295 295 295 295 295 295 294 294 293
298 299 299 300 301 301 301 303 302 302 302 300 297 297 298 298 305 308 308 308 307 302 300 301 302 300 299 301 301 304 307 311 304 305 307 309 307 305 306 304 302 300 297 295 295 295 294 294 294 294 294 293 292 292
296 298 299 299 300 301 302 301 301 300 299 298 299 304 304 306 305 306 307 306 302 302 301 300 300 302 299 303 303 308 303 304 306 306 308 307 305 304 304 302 301 299 295 293 293 293 294 294 294 293 292 292 291 291
295 297 299 299 299 300 300 301 300 299 298 300 301 305 303 300 299 298 298 300 299 301 302 304 304 305 303 304 304 302 303 305 306 307 306 303 303 302 299 298 297 295 294 294 294 294 293 293 293 293 293 292 292 292
295 297 299 299 299 299 299 299 298 297 296 298 299 301 299 302 301 299 299 299 299 299 301 303 304 306 304 305 303 305 306 305 305 304 303 300 298 297 297 297 296 295 294 293 293 292 293 293 292 293 293 291 291 291
296 299 299 299 299 299 299 298 296 295 298 301 299 299 300 301 302 298 300 299 298 301 303 303 304 305 299 303 304 302 304 303 302 301 299 297 297 297 297 296 295 294 294 293 293 293 293 293 293 292 292 293 293 291
297 298 299 299 299 298 297 297 297 298 298 298 301 298 297 298 299 299 299 297 299 298 299 301 298 300 302 303 303 302 300 299 299 297 296 296 295 295 295 295 295 294 293 293 293 293 293 293 293 294 293 293 293 292
297 298 299 298 298 297 296 296 296 299 297 296 295 295 295 295 293 294 295 294 295 295 297 298 301 300 300 298 300 301 300 299 297 297 296 295 294 293 293 293 292 292 293 293 293 293 293 293 294 293 293 293 293 292
296 296 297 297 296 297 297 296 294 297 299 297 295 296 295 295 293 294 296 296 297 299 300 301 300 300 299 298 298 298 297 297 296 297 296 295 294 293 293 293 293 293 293 293 293 293 293 294 294 293 293 293 291 290
295 293 294 295 294 295 296 296 296 296 295 296 294 297 294 293 293 294 295 295 298 299 299 299 300 300 297 296 295 295 295 295 295 295 295 295 293 293 293 293 293 293 293 294 295 294 294 294 294 294 293 291 289 288
291 292 292 292 293 292 294 292 296 294 296 295 296 296 295 295 294 293 293 294 296 297 298 298 298 297 297 296 295 294 294 293 293 293 292 292 294 294 294 293 293 294 294 294 294 295 295 294 293 293 291 289 288 288
293 292 290 290 293 295 292 292 295 294 296 295 295 296 295 294 293 290 293 294 295 295 296 295 295 294 295 294 293 293 293 292 293 293 293 293 293 293 293 293 294 294 294 293 293 293 293 293 292 290 289 288 288 288
292 290 292 293 294 293 292 293 293 294 294 295 295 295 294 294 289 292 294 295 295 294 293 293 293 294 293 293 293 292 292 292 293 293 293 293 293 293 293 292 292 293 293 292 292 291 290 290 289 288 288 287 287 287
294 291 292 291 292 292 293 293 293 294 294 293 294 294 292 290 293 293 294 295 296 296 295 293 293 293 293 293 293 292 292 292 292 293 292 293 293 293 293 292 292 291 291 291 290 289 289 289 288 287 287 287 287 286
293 291 293 293 292 293 294 293 293 293 293 293 293 291 290 293 294 294 293 295 295 293 290 291 293 293 293 292 292 292 291 290 290 290 291 291 291 291 291 290 291 291 290 290 288 288 288 287 287 286 286 286 286 286
293 292 291 289 291 291 291 290 291 292 292 292 293 291 293 293 293 294 292 288 290 286 287 287 287 288 288 288 287 286 284 284 285 285 285 285 286 286 286 287 288 286 284 284 285 285 286 286 286 286 286 285 285 285
292 292 291 291 292 292 292 292 292 292 293 293 293 292 293 293 294 289 286 282 282 283 284 284 283 282 282 282 282 282 281 280 281 282 284 285 285 280 280 280 280 280 280 281 282 282 283 284 284 284 284 284 284 283
292 291 291 289 290 291 292 293 293 293 293 293 294 294 294 287 281 281 279 279 280 280 281 280 280 279 280 279 280 280 278 277 278 279 280 282 281 279 277 276 277 277 277 278 279 280 280 281 280 280 281 282 281 280
290 291 292 290 290 293 295 293 294 292 291 292 292 290 286 280 276 276 277 277 277 277 277 277 277 277 277 277 277 278 277 275 274 274 276 277 276 275 275 275 274 274 274 275 277 278 279 279 279 280 279 278 277 277
289 290 291 291 293 294 291 287 287 287 288 291 293 291 287 279 275 273 273 274 275 274 275 275 275 275 275 275 275 275 275 274 272 271 271 271 271 272 272 271 271 272 272 274 275 276 276 277 278 277 276 275 273 273
289 290 291 291 292 289 287 288 290 290 291 290 291 286 283 283 280 275 271 273 274 273 272 272 273 273 273 273 272 272 271 271 271 270 269 268 268 268 268 268 269 269 270 271 273 274 273 274 274 274 274 272 270 270
287 287 287 288 289 289 288 287 289 288 288 288 285 283 280 281 278 274 271 271 271 270 270 270 270 271 271 272 271 271 270 270 269 269 268 266 266 265 266 266 267 268 268 270 271 271 271 271 271 270 269 268 267 265

GFSWCAN_925_thetae_015.txt.gz
Theta_e
313 312 312 312 311 310 310 310 310 310 310 311 311 312 312 315 321 324 316 320 325 317 319 320 321 323 322 320 315 319 315 314 308 313 309 310 310 311 314 315 312 309 307 312 314 312 311 313 313 311 311 314 312 310
312 312 313 312 311 310 310 311 311 310 311 311 311 312 312 313 317 323 321 321 323 321 320 320 318 318 319 321 319 318 314 321 317 312 309 311 312 313 311 312 314 314 313 312 311 310 310 313 312 312 312 312 311 310
313 313 312 311 311 310 310 310 310 311 311 311 312 312 313 313 315 322 321 320 324 315 317 318 319 319 319 320 322 318 316 319 320 317 311 314 309 312 309 313 315 314 315 310 313 315 315 313 313 313 311 310 309 309
312 312 312 311 311 310 310 310 310 311 311 311 311 312 313 313 316 320 321 319 320 312 308 317 318 319 317 319 321 321 320 321 317 309 308 310 307 314 309 310 309 311 314 314 311 315 314 314 311 309 309 308 309 307
306 308 311 311 311 311 311 310 311 311 311 312 312 312 313 314 317 319 318 317 319 320 310 311 318 317 317 320 319 320 320 318 313 308 306 308 304 309 304 306 309 315 313 311 310 313 313 312 310 310 311 309 308 307
305 306 306 309 311 311 311 311 311 311 311 312 312 313 313 314 315 321 318 319 317 321 310 310 316 316 317 318 320 319 319 317 316 308 304 311 317 310 310 309 313 314 313 312 312 314 312 310 308 309 308 308 305 301
302 304 304 305 307 309 311 311 311 311 311 311 312 313 313 314 317 316 315 315 315 319 306 308 315 311 312 316 313 314 317 315 315 310 310 306 310 313 307 313 313 313 312 312 311 309 308 308 308 307 305 303 301 299
300 301 302 303 304 305 307 310 311 311 310 310 311 312 313 313 314 317 315 314 318 318 309 311 313 307 312 307 308 308 306 309 314 312 309 307 307 304 310 313 314 313 312 311 309 308 308 306 306 305 303 299 296 295
300 301 301 301 302 303 304 306 309 310 311 311 311 312 312 313 315 315 314 313 315 316 309 304 309 310 308 306 303 303 307 308 308 306 308 310 308 313 312 313 313 311 310 309 307 307 307 307 306 300 296 295 295 294
300 300 301 301 301 302 302 303 306 309 310 311 311 311 305 310 310 312 313 307 304 304 307 307 308 310 309 303 304 305 301 306 310 307 306 305 309 308 309 310 310 309 308 308 308 307 307 302 297 296 295 295 295 294
300 300 301 301 301 303 303 304 305 307 307 308 303 300 305 309 310 305 307 309 307 308 307 307 306 309 305 306 306 302 305 304 309 305 308 307 308 307 307 308 307 308 308 307 304 300 298 296 295 295 295 295 294 294
299 299 300 301 301 303 303 304 304 304 304 304 303 303 305 301 301 308 307 304 306 310 303 305 305 306 302 306 303 301 307 304 309 304 307 308 304 307 306 306 306 305 301 298 297 297 296 296 295 294 294 293 294 294
298 299 300 302 301 302 302 302 302 303 303 302 300 298 302 297 305 308 309 307 306 301 300 300 302 299 300 301 301 303 307 308 302 307 307 303 307 306 305 297 296 295 295 295 295 294 294 293 292 292 292 292 292 292
297 299 299 301 301 301 301 301 301 301 302 297 300 303 303 304 303 301 302 302 298 298 298 298 299 301 298 302 301 306 303 302 307 306 301 304 305 304 302 297 295 293 292 292 293 294 294 293 293 293 293 292 292 292
296 299 299 299 300 301 301 301 301 300 300 298 299 304 302 298 297 297 296 297 296 297 298 299 299 300 301 301 301 301 303 306 306 306 302 300 299 299 296 295 292 291 290 292 294 293 293 293 292 292 292 293 293 293
297 298 298 299 299 299 300 300 300 298 297 298 298 299 298 300 300 298 297 297 296 295 297 298 301 304 303 302 303 305 306 306 305 301 298 296 296 295 295 294 294 294 294 294 294 294 293 293 293 293 293 293 293 292
297 298 298 299 299 299 299 299 297 295 296 298 298 297 298 298 299 298 296 297 298 298 301 300 303 301 299 302 303 302 304 302 299 296 294 295 295 295 294 295 296 295 294 294 294 293 293 293 292 292 292 293 293 293
298 298 297 298 299 298 297 297 296 296 297 298 299 297 296 295 297 297 296 295 296 296 297 300 298 300 302 302 302 300 297 295 294 293 293 294 295 295 294 293 294 293 292 292 292 292 293 293 292 292 293 293 293 294
296 297 298 299 298 297 295 295 297 297 296 296 294 294 294 294 294 295 294 295 295 295 296 296 298 299 298 296 298 296 295 294 294 294 294 295 295 294 293 293 293 293 293 293 293 293 293 293 293 293 294 294 293 294
295 295 296 297 297 296 295 293 296 294 298 295 295 295 293 293 292 293 294 294 295 296 296 295 297 296 295 294 293 294 293 293 292 292 292 292 294 294 293 293 294 294 293 293 294 294 294 294 293 293 293 294 292 291
295 294 295 296 295 296 294 294 296 296 293 295 294 294 292 292 294 295 296 293 296 294 294 292 292 293 296 296 296 295 295 295 292 290 290 290 293 293 293 293 293 293 294 294 294 294 293 293 293 293 293 292 291 292
294 294 294 293 292 293 292 295 293 292 294 292 295 293 294 294 293 293 292 293 293 292 294 292 293 292 292 294 295 295 295 293 293 293 293 293 289 292 293 294 294 293 293 293 293 293 293 292 292 292 290 288 290 290
293 293 292 291 293 294 293 293 295 294 293 295 295 295 294 293 293 290 293 292 290 294 294 294 294 294 294 294 293 293 293 293 293 293 293 293 293 293 293 293 292 292 291 291 291 291 291 290 291 290 289 288 288 289
292 291 293 294 295 294 293 294 292 292 294 294 294 294 294 293 287 291 289 289 290 292 291 292 294 290 293 292 289 288 288 289 289 288 289 289 288 288 287 287 287 287 286 286 286 286 287 288 289 288 287 287 287 287
293 292 292 293 292 292 293 293 293 290 289 290 289 291 287 286 288 286 287 290 289 288 290 289 290 290 290 288 288 286 284 283 283 284 285 284 282 282 283 284 285 282 280 281 282 282 283 284 284 285 286 287 287 286
293 291 292 294 293 295 293 291 293 291 289 291 292 289 287 286 287 287 292 290 288 286 286 286 285 286 286 285 284 283 282 281 280 280 281 281 281 280 279 279 279 278 277 277 278 278 278 279 280 282 283 284 284 285
293 293 292 290 293 293 293 293 292 292 292 291 290 288 286 286 285 290 286 284 285 284 284 284 283 283 283 282 281 281 279 278 278 278 279 280 277 276 275 275 276 274 274 275 274 275 276 277 278 278 280 282 281 282
292 292 292 292 292 291 291 290 290 289 290 290 288 286 285 285 288 285 283 281 282 283 282 280 280 280 280 281 280 278 277 276 275 277 281 278 275 274 272 272 272 271 271 272 272 273 273 274 275 277 278 280 280 278
292 292 289 287 288 289 289 289 289 290 290 289 286 287 287 282 280 281 279 280 280 280 279 278 277 278 277 277 277 275 274 273 272 268 267 266 270 271 270 270 269 269 269 270 270 271 272 273 275 276 277 277 276 274
290 290 290 288 287 291 291 290 292 290 289 289 286 283 281 278 276 277 277 277 277 277 277 277 276 275 275 275 274 274 273 272 272 271 267 267 270 269 268 267 267 267 267 267 268 269 271 272 273 275 274 274 272 270
289 291 291 291 293 291 289 287 288 287 288 290 288 286 279 275 274 274 275 276 275 274 274 274 273 272 272 272 273 273 272 272 271 270 269 269 269 268 267 266 266 266 266 266 267 268 269 271 272 272 270 269 269 267
290 289 290 290 291 288 288 288 288 289 285 288 288 283 280 277 273 274 272 274 273 272 272 271 271 271 271 272 272 271 271 270 269 269 269 268 267 267 266 265 265 265 266 266 266 268 269 269 268 268 267 266 265 264
287 285 285 283 283 284 285 282 282 282 281 281 282 279 276 273 272 273 272 272 272 271 270 269 269 270 270 270 269 269 269 268 268 268 267 267 266 265 265 265 265 265 265 265 266 267 266 266 265 264 264 263 262 262

GFSWCAN_925_thetae_018.txt.gz
Theta_e
312 311 311 310 309 309 310 310 310 310 310 311 311 312 314 319 321 318 320 324 320 313 316 319 319 319 318 315 314 315 313 310 306 306 304 310 304 309 311 313 311 309 308 307 306 301 309 309 312 311 308 311 311 309
312 312 311 310 309 310 310 310 310 310 311 311 311 312 312 316 322 320 318 322 321 315 316 318 318 319 319 317 315 314 312 314 311 309 307 311 305 309 307 313 312 312 308 309 310 310 308 309 310 309 310 311 308 307
312 312 312 310 310 310 310 310 310 310 311 311 311 312 312 316 322 318 320 322 320 308 312 315 318 318 319 319 318 315 311 317 316 309 308 304 305 307 309 311 314 311 312 309 311 312 311 311 312 311 310 309 307 307
312 312 311 310 310 310 310 310 310 311 311 311 311 312 313 318 320 319 318 321 317 306 305 314 317 317 318 320 321 319 317 316 310 306 305 306 304 308 304 307 307 308 312 313 309 311 313 313 312 308 307 307 307 308
312 311 311 310 310 310 310 310 310 311 311 311 311 312 313 318 318 317 317 318 321 313 309 308 315 316 317 319 319 319 317 314 309 305 303 306 300 306 303 303 306 312 311 310 311 309 310 311 308 307 308 308 308 307
311 311 310 310 310 310 310 310 310 311 311 312 312 312 313 315 319 320 314 316 320 319 307 307 310 311 314 318 317 318 316 313 310 306 304 305 311 305 309 312 310 313 313 311 312 311 311 309 307 308 309 308 308 301
305 307 310 310 310 310 310 310 310 311 311 312 312 312 313 315 319 315 311 314 317 317 304 308 307 308 311 314 309 310 312 311 312 305 304 304 306 310 306 310 311 311 311 311 310 308 308 307 307 308 309 304 297 295
304 305 305 307 310 311 311 310 310 310 310 311 312 312 313 315 316 316 312 316 318 314 304 306 305 305 310 304 306 305 304 307 309 310 306 306 305 303 311 312 312 312 312 310 308 308 307 306 305 304 301 296 295 293
301 301 304 304 304 306 309 310 310 310 310 311 311 311 311 312 313 314 313 314 315 313 307 302 308 309 305 305 301 300 303 305 304 308 306 308 307 313 311 311 312 312 310 309 306 306 307 307 306 298 296 295 294 293
301 301 301 302 302 303 305 308 310 309 309 311 311 310 308 308 310 312 313 305 303 304 303 304 304 308 307 301 303 303 300 306 311 306 306 305 309 308 306 308 309 308 307 307 308 308 307 300 297 296 295 294 294 293
301 301 301 303 303 303 304 306 308 309 310 310 304 301 307 309 310 303 306 307 306 307 305 305 304 307 301 306 306 300 304 303 309 303 307 302 307 304 305 305 306 306 306 303 304 303 298 297 296 295 294 293 293 293
301 301 302 302 302 303 304 306 306 307 305 306 305 305 306 301 302 309 307 304 306 309 302 304 303 305 301 302 304 302 305 304 308 303 307 308 305 305 301 300 299 298 298 297 297 296 295 294 293 292 291 291 291 292
300 301 301 301 302 302 303 304 305 305 304 303 300 298 303 299 307 311 313 307 306 300 300 300 304 299 300 301 301 303 307 307 302 307 308 304 306 301 297 297 296 296 295 295 294 295 293 292 292 292 292 291 292 291
299 299 301 301 301 301 301 301 302 302 302 298 301 303 304 303 302 301 302 302 298 297 298 298 299 301 298 302 301 306 303 302 307 306 301 303 303 302 297 296 295 293 291 292 293 293 292 292 292 292 292 292 292 292
298 298 299 300 300 301 301 301 300 300 298 298 297 302 298 297 297 297 296 297 296 296 297 299 299 300 300 301 301 301 303 305 305 304 302 298 299 297 294 293 292 291 291 292 292 292 293 292 292 292 292 292 292 292
298 298 299 299 299 299 300 300 300 298 297 296 297 299 297 299 299 298 297 297 296 295 296 297 301 303 301 301 302 304 304 303 303 300 297 296 296 295 294 295 294 294 293 293 293 293 293 292 292 291 292 292 292 292
296 297 298 298 299 298 298 299 297 294 295 297 298 296 297 297 298 297 296 296 297 297 300 299 297 299 298 301 302 302 302 301 299 297 294 294 294 294 293 294 294 294 293 293 293 292 291 292 292 292 291 292 292 293
298 297 298 298 298 298 297 297 295 294 296 296 298 296 295 294 297 296 295 293 294 295 296 298 297 299 300 301 301 299 297 295 294 293 293 293 293 293 293 292 292 292 291 292 292 292 292 292 292 292 292 293 292 292
296 296 297 298 297 296 295 294 295 295 296 294 293 293 293 293 292 293 293 294 294 293 291 291 295 297 296 295 296 295 292 291 293 293 292 293 294 293 293 292 292 292 292 292 292 292 293 293 293 293 293 292 292 292
294 295 296 297 297 296 294 290 295 292 293 291 293 293 292 292 291 292 293 293 294 295 294 290 291 291 292 290 289 290 289 290 289 290 291 291 293 293 292 292 292 292 292 293 293 293 293 293 293 292 292 292 291 290
294 294 294 295 296 295 289 291 295 294 294 294 292 293 292 291 293 294 295 292 290 288 292 290 287 289 293 294 294 294 293 293 290 288 288 288 292 292 293 293 293 293 292 291 289 289 290 290 290 290 291 291 290 288
293 293 294 293 292 291 288 293 292 289 294 292 294 292 293 293 293 293 291 289 293 289 291 288 291 289 291 293 293 293 293 292 291 291 291 291 288 288 288 287 287 286 287 288 287 286 286 286 287 286 287 289 288 287
293 293 292 291 287 290 289 293 293 291 292 294 293 293 292 292 292 289 292 292 289 290 290 291 292 293 291 289 288 287 289 289 287 286 286 287 286 285 284 284 284 284 283 283 282 282 282 282 282 283 284 285 286 286
292 291 290 286 292 291 288 290 290 293 292 293 293 293 293 292 288 288 284 288 291 289 287 287 289 288 288 286 285 283 282 283 283 283 282 281 281 281 283 283 280 278 277 278 278 278 278 278 278 279 280 281 283 284
292 286 286 285 290 290 286 287 290 291 293 293 292 291 285 283 282 281 283 289 288 287 285 284 285 287 288 285 284 283 280 280 280 281 280 280 280 279 278 277 277 275 274 274 275 274 274 274 275 276 277 278 278 281
287 284 285 283 284 292 290 287 288 289 288 289 287 287 281 282 288 284 289 288 286 285 285 284 284 283 283 282 282 281 278 278 278 279 278 277 275 274 273 273 273 273 272 271 272 272 271 272 273 274 274 275 277 279
286 284 288 289 291 292 291 289 291 291 291 290 287 286 283 285 282 288 285 283 284 283 282 282 282 282 281 281 278 276 276 276 275 275 276 274 273 271 270 270 270 269 269 269 269 269 270 270 271 272 273 275 276 277
289 286 287 289 292 291 291 290 291 292 291 290 288 288 288 285 286 282 282 281 282 280 279 279 279 279 278 277 276 275 275 275 276 276 274 273 271 270 269 268 268 268 268 268 268 268 268 268 269 271 273 274 274 274
291 291 289 290 288 287 288 289 287 289 290 286 283 282 284 280 277 279 278 279 279 279 277 277 276 276 275 275 274 273 273 272 271 264 262 260 267 269 268 268 267 266 266 267 267 267 268 269 271 272 273 273 271 271
289 288 286 285 286 289 289 288 290 287 287 285 282 281 279 276 274 276 276 277 276 275 274 273 274 274 273 273 273 272 271 271 271 269 263 263 268 268 267 267 266 266 266 266 265 266 269 269 270 271 270 269 268 267
288 289 290 289 290 289 287 287 287 288 288 289 283 280 276 273 274 274 274 274 274 274 273 272 271 271 271 271 270 271 270 269 269 269 268 268 267 267 266 265 265 265 265 265 265 266 267 268 267 267 266 265 265 264
288 288 288 289 287 286 287 287 285 286 279 287 282 279 275 271 268 271 272 273 272 271 270 270 270 269 269 269 269 269 268 268 268 267 267 266 266 266 265 265 265 264 264 264 265 265 265 265 265 264 263 263 262 262
276 271 272 271 276 277 277 275 273 274 276 278 278 272 270 270 270 272 272 272 271 270 270 269 269 269 269 268 268 267 267 267 266 266 266 266 265 265 264 264 264 264 263 263 264 263 263 263 263 262 261 261 260 260

GFSWCAN_925_thetae_021.txt.gz
Theta_e
310 309 309 309 309 309 309 309 309 310 311 312 312 316 320 318 315 318 321 323 318 311 316 318 318 317 315 313 313 314 312 309 303 306 303 304 302 308 310 311 311 310 310 306 304 302 308 307 310 311 309 307 311 309
310 309 309 309 309 309 309 309 310 310 311 311 312 314 318 320 317 320 321 320 318 313 316 317 318 318 318 314 313 311 313 311 310 306 301 304 302 309 306 310 309 310 307 308 308 309 306 306 309 308 307 309 309 308
310 309 309 309 310 310 310 310 310 310 310 311 311 313 318 322 321 318 321 321 316 307 311 314 317 317 319 319 316 313 308 312 311 305 306 306 303 303 309 309 311 310 309 307 309 309 308 307 308 310 308 309 306 306
310 310 309 309 310 310 310 310 310 310 310 310 311 314 318 320 318 318 319 317 313 303 305 312 316 316 317 319 320 316 314 311 306 303 302 304 302 305 304 306 307 308 310 310 308 309 310 311 309 309 308 306 307 307
311 310 309 310 310 310 310 310 310 310 310 310 311 314 317 317 317 318 319 319 319 311 308 307 313 315 315 318 319 318 314 311 307 304 303 306 299 304 303 302 306 309 310 308 310 308 310 309 309 307 307 306 307 307
310 310 310 310 310 310 310 310 311 311 311 311 311 313 317 316 315 314 309 315 319 314 307 309 308 310 313 316 315 314 314 310 308 307 303 303 306 304 309 312 310 310 310 307 309 308 308 309 306 306 307 307 306 299
310 310 310 310 310 310 310 310 311 311 311 311 311 312 313 317 317 311 307 314 318 313 304 308 304 306 309 310 307 309 309 309 309 306 302 304 307 308 306 310 310 310 309 310 309 307 309 307 307 307 307 302 296 294
310 310 310 309 309 310 310 310 311 311 312 312 312 314 315 315 315 313 314 317 316 311 301 304 303 304 308 305 306 303 304 306 307 308 305 308 304 304 309 310 310 311 310 310 308 307 308 306 306 303 296 295 294 294
304 306 309 309 309 310 310 310 310 310 311 311 311 311 311 312 310 313 313 315 315 311 305 302 306 308 303 304 301 301 303 306 304 306 305 306 306 309 312 310 310 310 311 310 306 306 305 304 298 297 296 296 295 293
302 302 303 304 308 310 310 310 309 310 310 310 310 308 300 306 309 312 311 303 302 303 301 302 303 307 307 301 303 303 300 309 311 305 306 306 309 306 304 304 305 307 307 306 306 306 300 299 298 298 297 296 294 293
302 302 302 302 303 306 308 309 309 310 310 310 305 301 308 308 309 301 305 303 307 308 304 303 303 307 302 306 305 298 304 303 311 303 309 306 307 303 301 301 300 300 300 300 301 299 298 297 295 294 293 293 293 292
301 301 302 303 304 305 306 307 309 309 308 307 306 306 306 300 300 305 306 304 306 308 301 304 303 305 301 300 304 302 305 304 308 302 307 308 302 298 297 297 297 297 296 296 295 295 294 293 293 292 291 290 290 291
301 301 301 301 302 303 305 306 307 307 306 305 302 299 304 300 309 311 311 307 306 300 300 300 304 298 300 300 301 303 307 307 301 307 308 305 302 299 298 299 298 297 296 296 295 294 293 292 291 291 291 291 292 291
300 301 301 300 300 301 301 302 303 303 303 299 302 304 304 304 302 302 302 302 297 297 298 298 299 300 298 302 301 306 303 302 307 305 300 302 300 298 295 292 293 292 290 295 293 292 291 291 291 292 292 292 292 291
299 299 299 299 299 300 300 300 300 300 298 298 297 301 298 297 297 296 296 297 295 296 297 299 299 300 301 302 300 300 303 304 303 300 301 298 296 296 294 294 294 293 292 292 291 292 292 292 291 291 291 291 291 292
298 298 298 298 298 298 300 300 299 298 296 297 297 298 297 298 299 298 297 297 295 295 295 297 301 301 301 300 300 301 302 301 301 300 297 295 296 295 294 295 296 296 293 292 292 292 291 291 291 291 292 292 292 292
297 297 297 298 298 298 298 299 297 293 292 297 298 296 297 297 298 297 296 296 296 297 300 299 294 297 297 298 301 301 300 300 298 298 295 296 296 294 293 293 293 293 292 291 291 291 291 291 292 292 291 291 292 292
296 297 297 297 297 297 296 297 293 292 296 295 298 296 294 294 296 296 294 292 292 296 295 297 295 297 297 299 299 298 298 297 295 295 293 294 293 293 292 291 291 291 291 291 292 292 292 292 291 292 292 292 291 292
295 296 297 297 297 296 293 294 293 296 295 294 293 292 293 293 292 292 293 293 293 291 291 290 291 294 295 294 294 293 291 290 292 292 291 292 292 292 292 291 291 291 291 291 291 291 291 290 290 290 289 289 288 289
293 294 295 296 296 295 292 290 293 292 293 294 293 293 292 292 291 293 293 293 290 289 290 290 291 291 291 290 289 288 288 288 289 288 288 289 291 291 290 290 289 290 290 290 289 288 287 287 286 286 286 285 286 287
293 293 294 295 295 294 289 291 294 293 294 294 292 292 292 291 293 293 294 290 286 286 291 289 285 287 290 291 292 292 292 291 289 286 287 286 288 288 287 286 286 286 285 285 285 285 284 284 283 283 282 283 284 284
292 292 292 293 291 290 287 291 292 291 293 293 293 292 292 292 292 292 291 289 291 288 289 287 289 288 291 289 287 288 289 289 288 288 288 288 285 284 284 283 282 281 282 281 281 281 280 279 278 277 278 279 280 281
292 292 290 291 285 290 287 293 292 293 294 293 293 293 292 292 291 289 292 292 291 289 288 289 289 289 287 285 284 284 285 285 283 283 283 283 282 282 281 279 278 277 277 276 276 276 275 275 274 275 275 276 276 277
291 290 290 289 290 285 282 288 289 290 288 291 293 293 292 291 289 289 284 289 290 287 286 286 287 287 286 285 283 281 280 281 281 280 280 280 280 279 278 277 275 273 272 272 273 272 272 271 272 272 272 273 274 274
291 288 289 285 289 283 282 281 286 288 288 291 292 291 290 286 281 286 282 289 288 286 285 285 287 286 285 284 283 281 278 279 279 279 277 277 276 275 274 273 273 271 270 269 269 269 269 269 270 270 270 271 271 272
289 283 288 281 282 287 283 284 286 286 283 288 289 288 284 287 289 285 289 287 285 284 283 284 284 283 283 282 281 278 276 276 278 277 274 272 271 270 270 269 269 269 268 267 267 267 267 267 267 268 269 270 270 271
288 281 286 287 288 289 288 286 289 291 288 291 288 287 290 291 289 286 284 282 283 281 281 282 282 281 281 277 275 274 274 275 275 274 272 271 270 269 268 267 266 266 266 267 267 266 266 266 266 267 268 269 271 271
288 284 287 286 289 290 290 290 291 292 292 290 289 290 290 286 285 281 280 280 279 279 278 278 278 278 276 274 273 274 273 274 273 273 271 270 269 269 268 267 267 266 266 266 266 266 266 266 267 268 269 269 269 269
289 288 289 289 288 286 289 290 290 290 289 288 284 285 281 278 275 276 277 278 278 277 275 274 274 274 273 272 272 272 271 271 271 263 261 259 266 268 267 266 266 266 265 266 266 266 267 267 268 268 268 268 267 267
287 287 285 284 286 288 287 286 287 286 286 282 280 278 277 274 273 275 276 276 275 272 272 272 272 273 272 272 271 270 269 269 268 268 262 260 267 267 266 266 265 265 265 265 265 265 266 266 267 267 266 266 265 264
285 287 288 287 288 287 286 286 287 287 287 284 280 278 275 272 273 273 273 273 273 272 272 271 270 270 270 270 269 269 269 268 268 268 267 267 266 266 265 265 265 264 264 264 264 265 265 265 264 264 263 263 262 262
287 287 287 288 285 284 276 281 282 275 282 285 278 274 269 265 265 270 271 272 271 270 269 269 269 269 269 268 268 267 267 267 266 266 266 266 265 265 265 264 264 264 263 263 263 264 264 263 263 262 261 261 261 260
270 269 270 269 274 277 275 270 270 272 275 280 272 270 266 268 269 270 271 271 270 270 269 269 268 268 268 268 267 266 266 266 266 265 266 265 265 265 264 264 263 263 262 262 262 262 262 262 261 261 260 260 260 259

GFSWCAN_925_thetae_024.txt.gz
Theta_e
309 309 309 308 307 308 310 310 311 311 312 314 318 320 316 316 317 320 321 322 315 311 316 317 316 314 313 312 312 312 312 309 303 306 303 303 302 307 309 309 311 310 309 303 302 299 309 305 310 311 309 306 308 307
309 309 308 308 308 309 310 310 311 312 312 314 317 320 319 319 318 319 320 317 317 313 314 316 316 316 317 312 311 309 313 311 309 305 298 299 302 305 305 310 308 310 307 307 307 308 305 304 308 307 306 307 308 307
309 308 308 309 309 310 310 311 311 311 312 313 317 320 318 318 319 319 320 316 316 307 311 313 316 316 318 317 315 312 305 310 308 303 301 300 303 302 306 307 310 308 306 305 308 308 306 305 305 306 307 307 308 306
308 309 309 309 310 310 310 310 311 311 312 314 318 320 320 319 318 320 317 313 311 303 306 312 314 314 315 318 318 314 311 307 303 301 301 301 301 303 301 305 305 307 307 308 306 307 307 307 307 306 307 307 306 306
309 309 309 310 310 310 310 310 310 311 312 315 316 317 317 318 318 318 318 316 313 309 308 306 311 312 315 317 316 314 310 309 306 304 303 305 298 303 301 303 305 307 308 307 308 307 308 307 308 308 308 307 306 306
309 310 310 310 310 310 310 310 310 310 311 313 316 316 316 316 315 312 308 317 314 313 307 310 307 308 312 314 313 311 311 307 306 306 303 302 304 304 309 311 308 308 307 306 308 307 305 306 307 307 307 305 304 300
309 310 310 310 310 310 310 311 311 311 311 311 312 315 316 314 310 307 306 313 315 311 304 308 305 304 307 308 305 306 308 307 307 306 302 302 306 305 306 305 310 308 308 308 307 308 310 307 309 306 305 299 295 294
309 309 309 309 310 310 310 311 311 312 312 313 313 314 314 314 314 314 313 316 314 308 300 304 303 304 306 305 306 303 304 307 307 306 304 306 305 303 310 309 308 308 309 309 308 306 306 305 304 296 295 295 295 296
309 309 309 309 309 310 310 311 311 312 312 313 314 313 311 311 309 311 313 314 313 309 303 301 304 306 303 303 301 302 303 310 303 306 305 307 305 310 307 304 305 305 307 307 306 305 302 298 296 296 297 297 296 294
308 309 308 308 309 310 310 310 311 311 310 310 310 308 301 307 309 310 310 303 301 300 303 302 302 306 307 301 303 303 301 308 312 304 305 306 308 304 297 297 298 300 303 305 306 301 298 298 298 296 296 295 293 292
302 303 306 308 308 309 309 309 310 310 309 309 302 302 308 308 308 298 302 302 307 308 304 302 302 306 302 307 307 299 305 303 311 306 309 307 307 300 296 296 296 296 297 297 296 296 296 295 294 293 293 294 294 292
303 304 304 305 306 306 307 309 310 309 308 307 306 306 306 300 301 304 304 303 306 306 301 305 303 304 301 299 303 302 305 304 309 301 307 308 301 299 299 299 298 296 295 295 294 294 294 294 294 294 291 290 290 290
300 301 301 303 304 306 307 308 309 308 307 306 301 298 302 299 308 310 311 308 307 300 299 300 303 298 300 300 302 303 308 307 301 306 307 304 301 298 297 298 295 295 295 295 294 293 292 291 291 291 291 291 291 291
299 299 299 300 301 302 304 305 305 306 306 299 302 307 305 305 302 302 303 302 297 297 298 298 300 301 298 303 301 307 302 302 307 304 301 300 298 296 293 292 293 293 292 292 291 291 291 291 291 291 291 291 291 291
298 299 299 298 298 300 301 301 301 301 299 298 299 301 299 296 297 296 296 297 295 296 297 299 299 300 301 302 300 301 302 303 298 296 301 297 295 294 294 295 294 295 293 291 291 291 291 291 290 290 291 291 291 291
298 298 297 297 298 299 300 299 298 298 296 297 297 299 297 299 298 298 297 298 295 295 295 298 300 297 298 301 300 302 300 297 299 299 297 295 295 295 295 294 295 295 293 292 292 291 290 290 290 290 291 291 291 291
296 296 297 297 297 298 299 299 297 292 293 297 298 296 297 298 298 297 296 296 296 297 300 299 297 297 297 297 300 299 296 298 299 297 295 295 295 294 294 293 292 292 291 290 290 290 290 290 290 290 289 290 290 290
294 296 296 296 297 298 297 296 292 293 297 295 298 295 294 294 296 296 294 292 294 296 295 295 295 293 292 295 295 295 297 293 293 293 293 295 293 292 292 291 290 290 290 290 290 290 289 289 288 287 286 286 285 286
294 295 296 296 297 296 292 293 292 296 295 294 293 292 293 292 291 292 292 291 290 289 289 289 290 292 292 292 291 292 295 294 293 293 290 291 291 291 290 290 290 289 289 288 287 286 285 285 284 284 283 282 283 283
293 294 295 295 296 295 292 289 292 292 295 294 292 292 292 292 291 292 293 289 289 287 290 290 290 289 290 289 288 289 288 287 288 287 287 287 288 288 287 286 286 286 285 284 284 283 282 282 281 280 278 279 280 280
292 292 293 295 295 294 289 289 294 293 293 294 292 292 292 291 292 293 293 290 289 287 290 288 285 286 289 288 289 290 289 290 287 286 286 286 285 285 283 282 282 281 280 279 280 280 279 278 277 276 275 275 275 276
291 292 292 292 289 289 288 291 292 291 293 293 292 292 292 292 292 292 290 292 290 288 289 288 291 291 289 286 285 286 286 286 286 285 285 285 282 282 281 279 278 278 277 275 276 275 274 273 273 272 273 273 273 273
291 291 290 290 285 285 287 291 289 293 293 293 292 291 292 291 291 289 291 292 291 289 288 288 287 286 285 284 283 282 283 282 281 281 281 280 280 279 277 275 273 272 272 272 272 272 271 271 270 270 270 270 271 271
291 289 289 290 290 284 281 283 287 286 283 287 287 289 289 290 288 289 290 289 290 287 287 287 286 286 285 283 281 280 280 280 279 278 279 279 278 277 275 273 272 270 269 269 269 269 269 269 268 268 269 269 269 269
284 283 288 288 288 281 278 278 284 286 284 282 288 286 288 284 284 288 285 289 286 285 285 286 286 286 285 283 281 278 278 279 278 276 274 274 274 273 272 271 270 269 268 267 267 267 267 267 267 267 268 268 267 268
288 282 288 283 278 286 279 283 280 282 282 286 286 285 282 285 287 288 288 285 284 283 282 282 283 282 281 280 279 277 275 276 277 274 271 271 270 269 268 267 266 267 266 266 265 266 266 266 266 266 267 268 268 268
285 281 284 287 288 287 284 281 285 285 287 289 287 286 289 291 287 285 283 281 282 279 279 281 281 280 278 275 273 274 275 275 275 273 270 270 269 268 267 266 265 266 266 266 266 266 265 265 265 266 267 268 267 267
284 283 287 283 286 287 290 287 288 290 290 290 289 289 289 287 284 280 279 278 278 277 277 276 276 275 274 272 272 273 273 272 271 271 269 269 268 268 267 266 266 265 265 265 265 265 266 266 265 266 266 267 266 265
287 286 285 285 284 285 288 289 289 289 288 288 287 285 280 276 273 274 275 276 277 276 274 273 272 273 272 272 271 271 271 271 271 261 261 258 266 267 266 266 265 265 264 264 265 265 265 265 265 265 265 265 264 264
283 283 282 280 283 285 286 282 283 283 282 281 279 277 275 273 272 273 274 274 273 271 271 272 272 272 271 271 270 269 268 268 268 268 261 259 266 266 265 265 265 264 264 264 264 265 265 265 265 265 264 264 263 262
284 286 283 280 281 281 280 285 286 286 284 278 277 276 274 270 272 271 272 271 271 271 271 270 270 270 270 269 269 268 268 267 267 266 266 266 266 265 265 264 264 264 263 263 263 263 263 263 263 262 262 261 261 260
285 284 284 282 280 275 274 274 277 276 281 282 276 270 264 265 265 270 270 271 270 270 269 268 269 268 268 267 267 267 266 266 266 265 265 265 265 265 264 264 263 263 263 262 262 262 262 262 261 261 260 260 260 259
269 268 270 271 276 277 273 268 267 271 277 277 268 266 265 267 268 269 270 270 269 269 268 268 268 268 267 267 266 266 266 265 265 265 265 265 265 264 264 263 263 263 262 262 262 261 261 261 261 260 260 259 259 258

GFSWCAN_925_thetae_027.txt.gz
Theta_e
307 308 307 309 308 307 307 309 310 311 312 314 315 315 315 314 316 320 320 321 315 312 315 316 314 313 313 314 317 314 315 313 308 312 313 310 312 311 311 310 313 314 314 313 305 310 315 306 311 315 314 308 309 310
307 309 309 308 307 308 310 311 311 312 313 316 317 316 316 314 316 320 318 315 316 314 315 315 315 315 315 311 313 310 315 312 313 311 305 305 311 307 308 316 308 314 312 315 311 315 309 306 312 309 307 309 309 310
309 308 308 307 309 310 311 311 312 312 314 318 320 316 315 315 316 320 317 316 314 309 313 314 315 315 317 315 313 316 308 311 309 305 305 305 310 307 314 312 311 309 306 311 310 311 307 307 307 306 307 309 308 309
308 308 308 310 310 310 311 311 312 315 318 319 319 318 316 316 319 318 317 311 311 306 309 314 313 312 314 317 316 312 309 306 304 304 304 305 310 304 308 309 310 310 308 310 309 309 308 308 308 310 309 307 308 308
308 309 310 310 310 310 311 311 313 316 318 318 319 318 318 318 318 315 314 312 311 310 310 310 310 311 312 313 312 310 309 309 308 307 305 309 302 306 304 305 308 308 311 313 315 310 310 310 308 308 310 310 309 308
309 310 310 310 310 310 311 311 313 316 316 317 317 318 318 318 317 315 312 316 312 312 310 311 306 306 310 311 310 310 310 308 309 309 305 305 304 307 310 311 309 308 307 307 310 308 307 308 307 308 309 308 306 303
309 309 310 310 310 310 311 311 311 313 316 316 316 316 314 312 309 306 307 312 311 310 306 308 307 304 305 307 305 307 308 307 309 307 304 305 308 306 307 313 309 308 308 309 308 308 311 308 309 304 299 296 295 295
310 310 310 310 310 311 311 311 312 312 313 314 314 313 313 313 314 313 310 313 311 306 302 306 305 306 305 308 306 304 306 308 308 308 305 306 306 306 312 307 304 304 304 307 306 306 306 298 296 296 296 298 297 296
309 309 310 310 310 311 311 311 313 313 313 313 312 311 310 311 309 312 311 312 311 307 304 300 307 310 305 304 302 304 305 310 304 307 308 310 306 308 301 300 300 300 302 303 299 297 298 299 298 298 296 295 294 293
309 309 309 310 310 310 311 311 311 311 311 310 310 308 304 308 308 309 309 304 303 300 303 303 302 307 307 303 304 305 304 307 314 306 306 307 307 298 298 298 298 298 298 301 302 299 298 297 296 296 295 294 294 294
308 308 308 309 309 309 310 311 310 310 309 309 304 304 307 307 307 299 303 305 304 305 304 303 304 307 302 310 307 301 306 304 311 308 310 308 306 299 298 298 296 296 296 296 296 295 295 295 295 294 294 294 294 294
305 305 306 306 306 308 310 309 310 309 308 307 307 306 305 302 301 306 305 303 305 307 302 305 303 305 301 300 305 303 306 305 310 303 308 308 300 300 299 298 297 296 296 296 295 295 295 295 294 295 294 291 290 290
301 302 303 304 306 307 308 309 308 308 307 306 302 299 303 300 304 304 310 309 307 301 300 301 303 300 301 301 302 305 309 309 302 308 308 304 300 298 297 297 296 295 294 294 294 293 292 291 290 291 290 290 290 290
300 300 300 302 303 305 306 307 306 306 306 298 302 306 301 307 304 303 304 304 298 298 299 299 300 302 299 303 302 309 302 303 308 307 302 300 297 295 294 294 295 294 290 291 290 290 290 289 289 290 290 290 291 290
297 297 299 299 300 303 304 305 304 305 298 299 299 301 300 297 297 296 296 297 296 296 297 300 300 301 302 303 301 302 303 302 301 300 300 297 294 294 295 294 294 294 291 291 291 291 290 289 289 289 290 290 290 290
297 297 296 297 298 300 301 301 301 298 295 296 297 299 297 299 299 298 298 298 296 295 296 298 301 303 301 301 301 301 302 300 299 299 297 295 295 295 295 294 294 294 292 291 290 289 289 289 289 289 289 288 287 286
296 295 296 297 298 298 299 298 296 294 296 297 298 295 297 298 298 297 296 296 295 298 301 300 301 301 298 301 302 301 301 299 298 297 296 295 295 295 294 294 292 291 290 290 289 289 288 288 287 286 285 285 283 283
294 295 295 297 298 298 297 296 293 294 296 295 297 295 295 294 296 296 294 292 295 297 297 299 297 298 297 297 298 297 296 296 295 296 295 294 294 293 292 290 289 289 288 287 286 285 284 284 283 283 282 280 281 281
293 294 295 297 297 297 292 293 292 296 295 294 293 292 293 293 292 292 292 291 289 289 292 292 293 296 296 294 294 294 296 295 295 293 290 289 290 289 288 288 288 286 285 284 284 283 282 282 281 280 278 277 278 278
293 294 295 296 297 295 292 290 293 295 295 294 292 292 292 292 291 293 292 291 290 290 292 292 293 292 292 291 290 292 293 291 291 291 288 287 286 286 285 285 284 283 281 281 280 279 279 279 277 276 274 274 274 274
291 292 294 296 295 293 289 290 293 293 293 294 292 292 292 291 292 293 293 291 289 290 292 290 289 288 287 286 287 287 288 289 288 289 288 287 284 283 281 280 280 278 278 277 277 275 274 274 273 272 271 271 271 271
291 292 292 293 289 289 289 290 292 291 293 293 292 292 292 293 292 292 290 294 292 289 290 290 291 290 288 287 285 284 285 285 285 284 283 283 282 281 278 276 276 275 274 273 274 273 272 271 270 269 269 269 270 270
291 291 290 289 286 287 289 289 288 292 293 292 292 290 292 291 290 289 292 291 291 288 288 288 286 286 284 283 283 282 282 282 281 281 280 280 279 277 274 273 272 272 272 271 270 269 269 268 268 268 268 268 268 268
290 289 287 289 286 288 281 285 289 286 284 288 287 287 288 288 287 289 291 290 289 287 288 287 286 285 283 281 281 280 280 279 278 276 277 277 277 275 274 272 270 269 268 267 267 268 268 267 267 267 267 267 267 267
283 284 282 284 283 280 281 278 284 289 283 283 286 285 287 284 286 289 288 288 285 284 284 286 286 285 283 281 279 278 278 278 277 275 273 274 273 272 271 270 269 267 267 266 266 266 266 266 266 266 266 266 265 265
285 285 287 286 285 282 282 282 279 282 279 282 284 284 283 285 285 287 285 282 283 282 281 283 282 280 279 279 278 276 275 276 275 273 271 270 270 269 268 267 267 267 266 265 265 265 265 265 265 265 266 266 266 265
284 286 287 287 288 287 281 283 285 288 283 285 286 285 287 288 284 283 282 279 280 277 276 277 279 278 276 274 273 273 273 275 274 272 270 269 268 268 267 266 265 265 265 265 265 264 264 264 264 265 265 265 265 264
287 284 284 281 280 283 283 281 284 288 289 289 288 287 287 285 282 278 277 276 275 275 274 274 274 273 271 271 272 272 271 271 271 270 269 268 268 267 266 266 265 265 264 264 264 264 264 264 264 264 264 264 264 263
282 281 282 279 280 282 282 283 284 286 286 287 287 283 279 275 272 273 273 274 275 274 273 271 271 271 271 271 270 270 270 270 270 265 265 265 265 267 266 265 265 264 264 264 264 264 264 264 264 264 263 263 263 262
282 280 280 277 281 284 285 284 282 281 280 279 278 277 274 272 270 271 272 273 272 271 271 271 271 271 270 270 269 269 268 268 268 267 265 264 265 265 265 265 264 264 263 263 263 264 264 264 263 263 263 262 262 261
283 285 283 278 281 278 275 276 284 284 279 276 275 274 272 271 270 270 270 270 270 270 270 270 269 269 269 268 268 267 267 266 266 266 265 265 265 265 264 264 264 263 263 262 262 262 262 262 262 261 261 260 260 259
281 278 276 279 279 273 271 271 268 279 280 277 269 269 267 268 266 269 269 270 269 269 268 268 268 268 268 267 267 266 266 266 265 265 265 265 265 264 264 264 263 263 263 262 262 262 261 261 261 260 260 259 259 258
271 270 272 272 278 280 270 268 267 270 270 270 268 266 265 268 267 268 269 269 269 268 268 268 267 267 267 266 266 266 265 265 265 265 265 265 264 264 264 263 263 263 262 262 261 261 261 260 260 259 259 258 258 258

GFSWCAN_925_thetae_030.txt.gz
Theta_e
299 301 300 301 305 307 306 306 309 308 308 309 310 310 313 313 313 320 319 316 323 324 320 320 318 321 320 324 327 319 320 319 319 328 330 323 328 317 317 315 318 320 323 324 317 326 326 310 314 319 316 316 314 315
299 300 301 307 307 309 308 307 308 308 309 310 310 312 314 313 313 319 320 316 319 323 322 317 316 316 318 319 322 319 324 321 322 325 322 319 321 315 320 323 314 319 319 320 318 319 313 312 316 315 314 315 314 314
306 306 306 308 307 307 309 309 310 310 312 313 314 314 314 313 314 318 319 316 319 322 320 322 321 317 316 316 316 323 319 319 318 316 320 320 323 319 323 321 319 315 312 317 315 314 314 313 313 312 312 313 313 313
308 307 307 309 310 311 311 311 312 313 314 315 315 315 314 313 315 318 318 315 317 320 318 322 314 316 313 317 318 316 317 313 312 315 321 316 327 314 320 317 318 315 314 316 316 315 313 313 312 312 313 314 314 313
309 310 310 311 311 311 312 314 316 317 318 319 317 315 314 314 316 316 314 312 312 318 321 322 315 312 313 314 314 314 315 317 318 320 319 325 314 316 311 313 317 312 315 318 318 313 313 314 313 312 313 314 314 313
310 310 310 311 311 312 315 315 316 318 318 318 315 315 314 315 317 315 321 315 312 313 323 324 313 313 313 315 315 316 316 317 318 321 315 313 309 316 318 321 313 312 313 313 315 314 314 313 312 310 310 308 307 306
310 310 310 311 311 312 314 315 316 316 317 316 315 316 318 316 314 316 316 313 310 310 320 317 319 312 310 314 312 316 315 317 319 314 310 313 314 315 314 323 310 309 309 311 310 313 314 307 306 303 303 302 300 298
310 310 311 311 311 311 313 315 315 314 314 314 315 314 313 313 314 314 308 310 308 312 317 317 316 318 310 314 314 309 313 317 313 311 310 312 310 312 317 306 306 306 307 309 305 307 305 303 302 301 299 298 297 295
310 311 311 311 312 311 312 313 312 312 311 311 310 311 311 312 317 315 310 310 309 314 318 310 321 319 309 308 307 310 312 314 309 314 313 314 311 313 303 302 303 303 304 304 303 303 301 300 298 297 297 296 296 295
310 310 310 311 311 311 312 311 312 311 310 309 310 313 316 310 308 309 311 316 314 311 309 306 307 312 311 310 310 311 310 312 317 313 309 314 304 300 300 299 299 300 302 302 301 299 297 296 296 296 296 296 296 296
309 309 310 310 310 310 310 310 311 311 309 310 312 312 309 307 310 310 312 313 313 313 308 307 310 311 306 313 312 307 312 310 315 313 314 313 306 300 299 297 298 298 298 298 297 296 296 297 297 295 297 297 296 295
307 307 308 310 310 310 310 310 310 310 308 309 310 306 306 308 311 311 308 309 311 312 306 309 307 308 306 306 309 307 310 309 315 310 313 311 302 300 299 298 298 298 298 298 298 298 297 297 296 296 294 292 292 291
305 306 307 307 307 308 309 310 310 309 307 307 308 306 312 307 314 318 313 312 312 305 303 305 306 306 305 308 307 309 314 313 307 310 311 305 301 299 298 298 298 297 296 296 295 294 293 293 292 292 292 291 290 291
303 304 305 305 305 306 306 308 309 310 309 304 308 310 310 313 307 307 309 307 300 300 302 304 304 309 304 307 305 313 304 306 312 311 308 302 299 297 297 297 297 296 292 293 293 293 291 291 291 289 289 289 289 290
299 303 304 304 304 305 305 305 306 304 300 302 305 305 303 299 298 298 297 299 298 297 300 305 304 306 305 307 305 306 308 310 309 309 303 299 297 297 297 297 296 295 293 294 294 291 289 290 291 291 289 288 287 286
297 298 298 299 302 304 304 305 304 299 295 299 299 301 299 301 300 299 298 298 297 297 298 302 304 309 306 307 308 309 310 309 304 302 299 297 296 296 296 295 295 295 294 293 292 291 290 289 289 289 288 285 284 284
296 295 296 297 297 298 299 298 297 296 298 299 300 296 298 299 299 297 297 296 295 299 303 305 309 306 302 306 306 305 306 304 301 299 297 296 296 295 296 295 293 292 292 292 291 290 288 287 285 285 285 283 282 283
293 295 296 297 298 298 295 295 297 298 298 297 299 297 296 295 297 296 295 294 299 301 302 303 301 303 306 305 305 302 298 299 299 298 297 297 297 296 296 293 292 292 290 288 286 286 285 285 285 284 282 281 281 281
293 295 296 297 297 297 297 295 296 298 297 296 296 295 296 295 294 294 294 293 293 295 299 300 305 304 304 302 302 297 298 298 297 295 291 292 294 292 292 291 289 287 287 286 286 285 284 282 281 280 279 278 278 278
294 295 295 296 297 296 296 296 295 297 297 295 295 294 295 295 294 295 296 296 296 298 300 301 300 298 299 297 296 297 299 299 296 295 291 290 290 290 290 289 287 285 285 283 281 280 281 281 278 277 276 275 276 276
292 293 295 295 294 293 293 294 295 295 295 295 294 294 294 294 295 296 296 295 299 294 297 294 293 291 289 289 291 293 293 296 296 295 293 289 287 286 285 283 282 282 282 281 280 279 277 277 275 274 274 274 273 274
291 292 292 293 293 293 294 291 295 294 295 295 295 294 296 296 295 294 293 297 294 293 292 292 293 291 290 288 288 288 288 288 288 287 286 285 285 284 282 281 281 280 278 277 277 276 275 273 272 271 272 272 272 273
291 291 290 290 293 294 292 292 295 294 294 294 294 295 295 295 294 292 295 293 292 290 289 288 287 287 286 285 284 284 285 286 285 284 283 282 280 279 278 277 276 277 276 274 273 273 272 269 270 269 270 270 271 271
289 288 290 291 291 291 289 291 292 293 294 294 294 295 294 293 292 293 293 292 288 287 289 287 286 286 284 283 283 282 282 282 281 281 281 281 280 278 276 274 273 271 271 270 270 270 269 269 268 269 269 269 270 270
290 288 289 289 288 290 290 291 291 293 293 292 294 294 292 291 292 291 291 288 286 285 286 286 286 285 284 283 281 279 279 280 280 278 276 277 276 275 274 273 271 269 269 270 269 269 269 268 268 268 268 268 268 268
289 288 290 289 290 291 289 293 291 291 291 292 292 290 291 292 291 288 285 284 284 282 281 282 284 282 280 280 280 278 276 276 277 275 273 273 273 273 273 273 273 271 268 267 267 267 267 267 267 266 267 268 267 267
290 290 289 288 289 289 291 289 290 290 292 293 292 292 292 292 288 285 283 279 280 277 276 276 278 278 277 275 274 273 273 273 274 273 271 269 269 269 269 269 269 267 266 265 265 265 265 265 265 266 266 267 267 266
289 289 289 288 290 290 290 290 291 292 292 291 291 290 290 288 285 280 279 277 276 275 274 273 272 272 272 272 272 272 271 271 271 270 269 268 267 267 266 266 265 265 264 264 264 263 264 264 265 265 266 265 265 264
290 288 288 286 288 289 289 290 290 289 287 289 290 286 281 277 275 275 275 275 275 276 275 274 272 271 270 269 269 269 269 270 272 272 272 272 270 269 266 265 265 264 263 263 263 263 263 264 264 263 263 262 262 262
289 287 289 286 287 289 288 287 288 286 282 282 280 278 276 274 271 271 272 273 273 271 270 269 270 271 270 272 270 269 267 267 267 268 270 269 268 266 265 265 264 264 262 262 262 262 262 262 262 262 262 262 262 261
288 289 289 288 288 287 284 280 284 283 282 280 277 278 276 274 271 269 269 268 269 269 270 270 269 268 269 269 269 269 269 266 266 265 265 265 264 264 264 264 263 263 262 261 261 261 261 261 262 262 262 261 260 259
285 282 285 287 287 282 280 283 282 284 283 280 277 275 274 275 274 271 268 269 270 269 268 268 269 268 267 266 266 266 266 265 264 265 265 265 264 264 263 263 263 263 262 261 261 261 260 260 261 261 260 260 259 258
283 283 283 284 284 284 280 280 279 281 279 278 275 274 273 274 272 270 268 268 267 267 267 267 267 267 267 267 266 266 265 265 264 264 264 264 264 264 264 263 262 262 262 261 261 260 260 260 260 260 259 258 258 257

GFSWCAN_925_thetae_036.txt.gz
Theta_e
296 296 297 297 298 298 298 298 299 299 300 301 302 300 301 303 304 308 311 312 320 326 324 324 322 322 325 327 330 327 326 325 332 332 337 335 332 329 326 321 324 325 330 325 330 324 325 315 316 318 321 318 317 316
297 298 298 297 297 298 298 298 300 300 301 302 301 301 302 303 303 307 310 312 314 325 327 324 323 323 324 325 329 326 328 326 327 330 333 336 326 323 330 329 320 326 325 329 325 326 319 315 315 316 316 316 316 317
297 297 298 298 298 298 299 299 300 300 300 300 301 303 304 304 306 308 310 313 321 327 325 324 325 322 322 324 324 328 330 326 327 328 332 333 322 331 325 332 328 320 319 324 321 316 316 316 315 316 316 317 316 316
297 298 298 299 299 299 300 300 300 300 301 301 302 303 305 306 308 309 310 313 325 326 325 325 321 321 320 322 324 326 328 327 330 331 335 320 325 326 333 328 329 321 319 318 319 317 317 318 318 317 317 316 315 315
298 298 297 297 297 298 298 300 300 302 302 303 303 305 308 309 308 309 311 315 320 325 325 325 320 320 320 322 322 324 327 328 329 329 317 332 327 329 326 326 330 319 319 326 326 318 319 317 313 313 312 311 310 309
298 298 299 299 302 303 302 301 302 304 305 308 309 309 308 309 310 312 320 320 319 323 325 326 320 321 320 321 321 324 325 327 327 331 328 325 320 328 325 329 319 317 317 316 319 316 317 312 309 307 306 305 304 303
304 306 307 307 307 307 307 308 308 308 307 307 308 309 310 311 312 318 318 316 319 323 325 322 322 319 320 321 322 323 323 326 326 326 325 324 321 324 320 330 317 314 314 313 312 314 312 312 307 303 301 299 299 298
305 306 307 308 308 308 308 308 307 308 309 309 310 312 313 315 315 315 310 312 316 320 324 321 316 323 319 325 322 321 326 324 321 318 319 324 319 325 327 316 313 312 312 311 310 310 308 306 303 301 300 299 298 298
307 308 308 307 308 309 310 310 311 312 312 312 312 313 315 316 320 314 312 313 314 318 321 314 321 320 318 316 317 319 321 319 316 319 320 320 317 321 317 313 311 311 310 308 306 306 305 303 301 300 299 299 298 298
309 309 309 309 310 308 309 311 312 314 313 313 313 316 315 315 310 310 316 317 315 318 315 315 318 321 317 317 315 317 315 318 320 316 315 318 311 307 306 306 306 307 307 305 302 302 301 300 300 300 300 299 298 296
309 309 309 310 309 310 311 312 312 312 313 316 319 314 311 312 315 316 316 317 316 318 311 313 316 317 313 316 313 313 316 316 319 317 318 315 313 306 303 304 303 305 304 303 302 301 301 301 300 299 298 296 294 294
309 310 310 310 309 309 310 312 313 313 314 315 314 312 312 316 316 313 313 313 316 315 309 312 313 311 311 314 313 313 312 313 318 313 316 317 307 302 302 303 303 303 302 302 301 300 299 299 298 296 295 294 294 292
308 309 310 310 310 310 310 309 310 312 312 312 312 308 315 309 316 318 314 316 310 307 306 311 309 310 310 310 311 310 312 317 315 316 314 309 302 301 302 302 301 300 300 300 299 297 296 295 295 294 293 293 293 292
305 305 306 308 309 309 309 310 310 309 309 310 310 310 310 311 307 306 307 306 301 302 306 308 309 309 309 308 308 310 307 310 314 314 314 303 300 301 301 300 300 298 296 297 296 294 293 292 291 291 290 289 289 288
304 306 307 305 305 308 309 310 310 307 303 304 306 307 304 300 299 299 298 300 299 302 307 310 310 310 308 310 310 307 310 313 312 314 307 300 299 299 300 300 296 296 295 296 294 293 292 292 292 291 289 287 286 284
301 302 298 300 304 306 305 307 305 301 299 298 299 302 300 302 301 299 299 299 298 300 305 310 310 310 309 309 310 314 314 315 310 305 300 298 298 298 299 297 296 296 297 295 293 292 292 292 292 289 286 284 285 283
300 297 298 298 300 304 305 301 301 300 300 301 300 296 299 299 299 298 296 296 296 301 305 308 310 309 307 310 311 309 309 306 302 300 298 297 297 298 298 297 296 296 295 294 293 293 291 290 287 287 287 285 284 284
298 297 298 298 300 299 298 299 300 301 300 299 299 298 297 295 298 297 296 296 299 299 301 305 305 308 310 311 308 304 301 299 298 299 298 297 297 297 297 296 295 295 294 292 291 290 289 288 288 287 285 283 283 283
295 297 297 298 299 299 299 299 300 300 299 299 297 297 297 296 296 297 297 299 299 300 301 302 304 305 302 299 300 300 299 297 296 295 296 297 297 297 296 294 292 291 290 290 290 289 286 285 283 283 282 281 281 281
296 296 297 297 299 298 298 299 299 299 299 298 298 298 298 298 297 297 299 300 299 300 298 298 295 294 294 294 294 298 297 295 295 295 295 295 294 293 293 292 292 290 287 286 285 286 286 284 282 280 279 279 279 278
294 295 297 299 297 297 298 299 298 298 298 298 297 298 298 299 298 298 299 299 297 295 296 295 294 293 292 291 291 292 294 296 297 297 295 294 293 292 291 290 289 289 288 287 285 283 282 281 279 278 278 278 276 277
294 295 296 294 297 296 297 297 297 298 298 298 298 298 298 299 299 298 298 296 293 293 292 292 291 291 290 289 289 290 291 291 291 291 291 291 290 289 288 287 287 285 283 282 282 281 280 277 275 275 276 276 276 276
294 295 295 296 295 295 295 296 297 296 296 296 297 297 297 296 296 297 296 292 290 290 290 289 288 288 287 286 286 286 287 288 288 287 286 285 284 284 283 282 283 283 280 278 277 277 276 275 275 274 275 274 275 275
291 292 293 295 296 294 296 294 295 295 295 296 296 296 294 294 296 296 292 290 288 287 288 288 289 289 286 284 283 283 284 284 283 284 285 283 282 280 279 277 276 276 276 276 276 276 275 275 274 274 273 273 273 273
294 292 295 295 296 296 296 294 295 295 295 296 296 295 294 295 295 293 291 289 286 284 284 286 285 285 286 284 282 280 280 281 281 279 279 281 280 278 277 275 274 273 274 274 274 274 273 273 272 272 271 271 271 271
292 291 292 292 293 294 294 294 293 293 294 295 293 292 294 295 293 291 287 285 283 282 281 282 284 283 281 279 279 278 277 278 278 276 275 275 276 278 278 278 277 273 271 271 271 271 271 271 270 270 270 270 271 271
292 292 291 291 292 293 293 293 294 295 294 295 294 294 295 295 291 287 283 281 281 279 278 278 279 279 279 278 276 276 275 275 275 274 273 273 272 272 272 273 272 269 269 269 268 268 268 269 269 269 269 270 270 269
290 290 291 292 292 293 292 293 293 293 292 291 294 292 291 288 285 282 281 280 280 278 277 277 276 275 275 275 276 276 276 275 274 274 274 273 272 272 271 270 269 269 268 268 267 267 267 267 267 267 268 268 267 267
290 290 292 290 292 291 290 292 291 288 287 289 291 288 284 279 277 278 278 278 278 278 278 277 277 276 275 274 273 273 272 272 274 275 275 276 275 272 270 270 269 269 269 268 268 267 267 267 266 266 266 266 266 266
290 291 291 291 291 290 289 288 288 286 284 285 283 280 278 276 275 275 275 275 276 276 275 275 275 275 275 275 274 273 270 269 268 269 271 271 269 269 269 269 268 268 267 267 267 267 266 267 266 266 267 267 267 266
289 291 291 290 290 288 286 286 286 285 284 283 282 282 279 276 274 273 273 274 274 274 275 274 272 272 272 271 271 272 272 269 268 267 266 266 267 268 268 268 267 267 267 266 266 266 266 266 266 266 266 266 266 265
288 288 289 289 289 286 286 286 286 288 287 285 282 280 279 281 277 273 271 273 273 273 272 272 272 271 269 269 269 270 268 268 268 267 266 265 265 265 265 265 265 266 266 266 265 265 265 265 265 265 265 265 264 263
288 288 288 288 288 288 287 286 286 285 284 283 280 280 278 278 275 273 271 270 270 270 270 270 270 269 269 269 268 268 268 268 266 266 266 265 264 263 262 263 263 263 263 264 264 264 265 265 265 265 264 263 263 262

GFSWCAN_925_thetae_039.txt.gz
Theta_e
296 296 297 297 297 298 299 298 300 300 299 300 301 301 302 302 301 301 303 304 313 318 320 321 319 322 324 322 322 323 325 320 320 318 317 315 314 316 319 323 318 316 316 311 316 316 317 313 314 314 316 314 313 313
296 297 297 297 297 298 297 298 298 298 299 300 300 302 302 301 301 301 304 305 308 313 319 322 323 324 323 321 323 322 325 322 323 322 319 314 321 312 317 316 320 319 320 317 317 316 316 312 313 314 313 314 314 314
297 296 296 296 297 297 297 297 297 298 299 300 301 301 302 302 301 302 305 308 311 313 319 323 322 321 324 321 319 320 321 323 323 323 320 318 317 313 313 315 318 319 318 317 315 317 314 316 315 315 315 314 308 307
296 296 297 297 297 297 297 297 298 299 300 300 301 301 301 301 301 303 306 310 313 316 314 323 321 320 322 325 324 320 324 326 324 321 313 311 316 319 313 317 318 317 315 316 315 317 317 314 314 312 311 308 304 303
297 297 297 297 297 298 298 298 299 300 301 301 301 301 301 302 303 303 306 309 311 316 316 321 320 320 322 323 325 325 323 323 321 313 307 315 317 316 314 314 313 316 317 312 314 316 314 311 309 308 306 305 303 301
298 298 298 299 299 299 300 299 300 300 300 300 300 301 302 304 305 309 309 309 309 309 319 316 317 319 321 321 322 322 321 321 322 318 313 317 317 313 311 309 316 315 313 315 316 311 308 306 304 304 303 302 301 299
297 297 297 297 297 297 297 298 299 299 300 302 301 302 304 307 309 309 310 315 315 310 317 314 316 318 319 318 316 319 320 319 320 318 314 315 315 315 310 313 315 314 311 311 311 308 307 306 303 301 300 298 297 296
298 298 298 298 299 300 301 302 301 301 303 303 303 304 307 307 308 310 311 311 312 320 315 313 313 317 318 316 314 315 318 314 313 314 311 309 311 305 311 313 312 311 309 308 307 307 304 301 300 299 297 297 296 295
306 304 304 304 303 303 302 301 302 303 304 305 307 309 310 310 314 315 313 314 315 317 311 307 315 317 315 313 311 313 313 310 312 310 312 310 309 314 314 311 310 309 308 306 305 303 301 300 300 298 297 296 295 294
306 306 308 308 307 306 305 306 306 307 308 309 311 314 310 313 310 312 315 309 309 310 307 308 312 314 314 308 308 308 305 312 313 310 309 309 308 306 304 305 305 306 305 302 301 300 299 299 299 299 297 296 295 294
306 306 306 308 309 308 307 306 307 310 313 315 312 309 311 312 312 308 306 307 309 307 305 308 311 314 310 311 309 305 309 304 308 308 308 310 310 306 304 303 303 305 302 302 300 300 299 299 298 296 295 294 292 290
309 309 308 307 307 307 308 311 312 314 314 314 312 312 312 311 308 308 307 306 308 310 305 308 309 310 306 311 308 308 309 305 311 308 310 312 305 302 303 302 303 303 301 301 301 300 299 298 296 295 293 291 290 288
308 309 310 310 310 310 309 312 313 312 311 310 307 304 311 304 310 307 306 310 308 304 304 304 306 303 304 305 306 309 312 310 301 310 310 306 302 302 302 302 302 301 300 299 297 295 295 293 293 293 291 291 288 286
307 309 308 309 310 308 309 312 311 309 309 305 305 307 307 308 304 302 304 304 299 299 302 303 304 304 302 305 304 309 305 307 311 308 305 302 301 301 300 300 299 298 295 295 294 292 291 291 289 289 289 288 286 284
306 306 308 304 306 309 310 310 309 306 300 300 301 303 301 299 299 298 297 299 297 299 301 304 303 305 304 307 305 306 308 307 307 305 304 300 300 299 299 296 295 294 293 293 293 291 290 290 288 287 286 284 284 282
302 305 300 302 305 305 308 310 306 300 296 298 297 301 299 301 300 299 298 299 297 297 299 300 304 306 307 306 308 309 308 306 306 301 299 299 299 298 296 295 296 295 293 292 291 291 291 289 287 285 285 284 282 282
298 296 298 301 304 306 308 301 299 297 296 298 298 295 297 298 297 297 296 297 295 299 304 304 306 307 304 307 307 304 305 302 299 298 298 298 298 295 294 294 294 293 292 292 291 290 289 289 286 284 284 284 283 282
297 297 298 300 301 300 300 299 297 298 298 297 297 297 296 295 297 296 295 295 297 299 300 303 302 306 305 306 304 301 298 297 296 296 296 297 297 296 296 295 295 293 291 290 290 289 288 287 285 283 282 282 282 281
297 297 299 299 298 298 296 297 298 298 297 296 295 294 295 295 294 296 296 296 297 297 298 298 297 297 297 295 296 298 296 296 296 296 295 295 296 295 294 292 290 290 290 289 287 284 283 282 282 280 280 280 280 279
295 297 297 298 297 296 296 296 298 297 298 296 295 296 296 296 295 295 295 295 296 296 295 294 293 293 293 292 292 294 294 294 295 295 294 292 292 292 291 291 289 286 285 285 285 283 281 280 279 279 279 279 278 277
293 294 295 296 296 297 294 294 296 296 296 297 295 295 296 294 296 296 294 292 292 293 292 291 291 289 288 288 289 291 291 294 295 293 293 292 291 290 289 288 287 287 285 283 282 280 278 277 277 277 277 276 276 276
294 294 293 294 294 294 293 294 295 295 295 296 295 295 296 295 294 295 291 290 291 290 290 289 289 288 287 287 287 287 288 287 288 289 290 289 288 287 287 285 282 281 280 281 280 277 276 275 275 275 275 275 275 275
292 292 293 294 288 290 291 294 292 293 295 294 296 296 295 294 293 292 290 290 289 287 287 288 286 285 284 283 283 284 284 285 285 285 283 282 281 279 278 278 279 278 278 277 277 276 275 275 274 274 274 273 273 273
292 291 289 291 290 293 289 292 293 293 293 293 291 292 293 293 292 288 289 287 285 283 283 285 285 285 282 281 280 280 281 282 280 280 281 280 279 277 276 275 275 276 276 275 275 274 274 273 273 273 272 271 272 271
287 287 288 286 289 288 286 288 288 292 290 290 288 287 289 290 288 288 288 286 281 280 280 282 281 280 281 280 279 278 278 279 278 277 276 278 277 276 275 274 273 272 273 272 271 271 271 271 271 270 270 270 270 270
290 290 290 291 291 290 292 291 292 293 288 287 292 291 288 288 284 285 285 281 279 278 278 279 281 279 278 277 277 276 275 277 276 275 273 274 275 276 276 275 272 270 270 269 269 269 268 268 268 269 269 269 269 270
291 291 291 290 292 291 290 291 291 287 286 288 287 287 292 288 283 284 281 280 279 278 277 277 277 278 277 277 276 275 274 274 274 273 272 272 271 271 271 270 269 268 269 268 268 267 267 267 267 267 267 267 267 267
290 291 291 292 291 291 292 290 288 288 286 288 289 282 281 281 280 280 279 279 279 277 276 275 275 275 274 274 273 273 273 274 274 273 272 271 270 270 270 270 269 269 269 268 268 267 267 267 266 266 266 266 266 266
290 290 286 285 290 289 288 290 289 287 285 287 285 281 279 278 276 277 277 276 276 276 275 275 276 274 273 272 271 270 270 271 272 267 266 267 270 269 268 269 269 268 268 267 267 267 267 267 267 266 266 266 267 266
289 289 289 289 289 288 287 287 285 284 283 282 279 277 276 275 273 274 274 274 275 274 274 273 272 272 271 272 271 269 269 268 268 267 263 262 266 267 267 268 267 267 267 267 266 266 266 265 265 266 266 265 266 265
289 289 285 285 283 286 286 286 285 284 281 278 278 273 273 272 273 272 272 273 273 273 273 271 270 270 270 269 269 269 269 268 267 267 266 266 265 265 265 265 265 265 265 266 266 266 265 265 265 265 265 265 265 264
285 283 282 284 284 284 286 284 283 286 282 280 276 272 273 274 270 271 270 271 271 271 270 270 270 269 269 268 268 268 268 268 267 266 266 265 265 264 264 263 263 264 264 264 264 264 264 264 264 264 265 264 263 263
284 282 281 281 283 284 282 280 283 281 278 277 276 275 272 271 270 272 271 270 269 269 269 269 269 269 269 268 268 267 267 267 266 265 265 265 264 264 263 263 263 263 262 262 262 262 262 262 263 263 263 263 262 261

GFSWCAN_925_thetae_042.txt.gz
Theta_e
296 296 297 297 297 296 296 296 297 298 298 297 297 297 298 299 299 302 303 304 305 311 315 317 315 313 315 319 320 320 321 319 317 316 316 313 309 315 316 317 315 314 313 308 311 309 313 313 313 313 311 312 311 312
297 297 297 297 297 297 297 297 297 297 297 297 298 298 297 299 300 301 303 304 306 307 314 311 312 314 317 317 319 318 320 320 321 320 314 312 314 307 313 318 317 316 313 313 314 313 313 312 313 311 312 313 313 313
297 296 296 296 297 297 298 298 299 299 298 298 299 298 299 299 301 303 303 303 305 308 310 314 318 321 321 320 321 320 317 321 323 316 316 314 314 309 312 312 316 316 317 317 315 316 316 315 313 312 309 306 305 306
297 296 296 297 298 297 298 299 299 298 300 301 300 300 302 302 302 302 303 305 305 311 312 317 320 319 321 320 320 320 318 320 321 317 311 309 313 313 308 314 314 314 314 314 316 315 314 311 309 305 304 302 302 301
295 294 295 296 297 297 297 297 298 299 300 300 300 301 301 301 301 301 301 306 309 312 312 316 317 320 322 321 319 319 319 320 316 311 307 313 314 314 309 310 311 313 313 312 312 314 311 309 306 305 303 302 300 299
296 297 297 297 297 297 297 298 298 298 299 300 301 301 301 301 301 302 305 304 307 310 312 314 314 318 320 322 321 321 320 319 317 315 312 314 315 310 307 306 314 313 313 313 313 309 306 303 302 302 301 299 298 297
297 297 298 297 297 298 298 298 299 301 300 300 301 301 301 301 302 306 307 308 305 308 312 312 314 317 318 318 316 318 316 315 318 315 309 312 314 310 304 311 314 311 309 308 305 305 304 304 301 299 298 296 296 295
298 298 298 298 298 299 299 299 299 300 300 300 300 301 302 303 303 307 309 311 310 310 313 311 315 315 316 314 317 315 315 311 312 311 307 307 310 300 310 312 310 308 307 307 305 304 302 299 297 296 296 296 295 294
297 297 297 297 297 297 297 298 298 299 299 301 301 302 304 306 308 308 307 310 309 311 311 306 314 317 312 310 307 309 307 311 311 308 307 309 303 310 311 310 308 307 306 302 301 300 299 298 297 296 295 294 293 292
298 298 298 299 298 298 299 298 299 300 301 302 303 306 308 309 308 307 310 310 309 308 306 308 309 313 312 305 307 304 305 308 313 309 309 307 307 304 304 305 304 304 302 300 300 299 298 297 297 297 295 294 293 291
303 303 302 301 301 302 302 301 302 303 303 305 310 308 310 308 309 309 306 306 308 306 303 307 308 312 308 308 308 302 308 305 312 311 310 310 309 306 303 303 302 302 302 299 299 298 298 298 297 295 294 292 290 288
305 305 305 304 303 302 302 302 303 305 310 311 311 311 310 308 304 306 305 304 307 309 304 308 308 309 306 308 308 306 307 304 312 306 310 311 303 302 305 305 304 302 301 299 299 299 298 297 295 293 291 289 287 287
306 307 307 306 305 305 306 306 308 311 311 310 306 302 307 302 306 303 305 308 307 303 303 303 306 304 304 305 305 307 305 308 299 310 305 303 303 302 303 302 301 300 300 299 298 297 295 294 292 290 288 286 286 285
308 307 307 307 307 308 309 310 309 308 308 302 302 304 304 304 302 302 304 303 299 299 301 301 303 306 300 306 303 310 306 306 307 305 304 302 302 301 301 300 298 296 294 294 294 292 291 290 290 289 286 285 284 283
307 306 308 308 309 310 311 310 308 304 298 299 300 302 301 299 298 298 297 298 297 298 299 302 302 303 304 306 303 305 308 309 305 302 303 300 299 299 298 296 295 293 292 292 291 290 289 288 287 286 285 284 283 282
305 307 301 302 304 305 305 305 301 299 296 295 297 301 300 301 300 298 298 299 297 296 297 297 303 306 306 305 307 308 304 304 305 301 299 299 298 296 295 294 294 293 292 291 290 289 288 287 286 284 283 282 282 282
304 298 301 300 301 304 306 302 297 295 297 296 297 296 297 298 298 297 296 296 295 299 304 301 305 306 302 306 305 303 302 301 299 297 297 297 295 295 295 293 292 292 291 291 290 289 287 285 284 283 283 281 281 281
297 298 299 300 302 301 299 298 295 296 298 297 296 296 296 295 296 296 295 296 297 298 300 301 301 299 298 301 301 299 297 296 295 296 296 295 295 294 295 293 292 292 291 290 289 288 285 284 284 283 283 282 281 280
297 297 298 298 300 298 294 296 296 297 296 296 295 294 294 295 294 293 293 293 294 294 295 295 294 294 294 293 293 295 295 295 296 294 294 294 294 293 292 292 291 291 289 288 287 285 283 282 281 281 281 280 279 279
295 296 297 297 298 294 295 293 296 295 297 296 295 296 295 295 293 291 291 292 293 293 293 292 290 289 289 288 289 293 293 293 294 294 293 291 291 291 291 290 288 287 285 283 281 280 280 279 279 279 279 278 277 277
293 293 294 296 296 295 292 292 296 296 295 296 295 295 296 293 290 289 290 290 290 291 290 289 288 287 286 286 286 287 287 291 293 293 292 291 289 288 287 286 285 284 283 280 279 278 277 277 276 277 276 275 276 276
292 293 293 294 290 290 291 292 293 292 294 295 293 293 292 292 291 289 288 287 287 286 288 287 285 284 283 284 284 283 285 284 283 283 282 283 283 283 281 281 280 279 279 278 277 276 275 274 275 275 274 274 274 274
291 293 293 289 286 286 287 290 288 291 289 290 291 291 291 289 293 288 287 286 285 283 284 284 282 281 281 281 280 281 281 282 282 281 279 278 278 277 277 277 278 277 277 276 276 275 274 274 274 274 273 272 272 272
292 288 289 288 287 289 282 289 290 292 287 288 287 290 291 290 288 284 285 283 281 280 281 281 281 281 279 278 278 278 279 279 278 278 278 277 276 275 275 274 274 274 274 273 273 272 272 272 272 271 270 270 270 270
286 285 282 282 281 283 280 284 285 288 284 284 284 284 286 285 284 283 283 281 278 277 277 279 278 278 278 276 276 276 276 276 275 275 274 276 275 274 273 271 271 270 271 271 270 270 269 269 269 269 269 269 269 269
289 287 287 290 289 285 284 285 284 287 282 281 290 288 281 278 277 280 282 278 275 276 275 276 277 276 276 275 274 274 274 275 274 273 272 273 274 274 273 272 270 269 269 268 268 267 267 267 267 267 267 267 267 267
289 287 289 289 289 286 284 285 284 281 280 286 281 280 284 276 277 281 280 279 278 276 275 276 275 275 274 273 273 274 273 273 272 271 271 270 270 270 270 269 268 268 268 268 267 267 267 267 266 266 266 266 266 266
288 287 286 283 281 283 279 278 278 281 279 284 282 277 274 275 277 278 278 277 276 275 274 274 273 272 270 270 270 273 273 273 272 271 270 269 269 268 268 268 268 268 268 267 267 267 267 266 266 266 265 265 266 266
289 287 282 284 281 281 284 281 281 283 284 284 276 276 275 275 273 275 274 275 275 274 273 272 272 271 270 270 270 269 269 270 271 262 259 259 265 266 267 267 267 267 267 266 266 266 266 266 266 265 265 265 265 265
284 281 280 277 278 282 281 279 275 276 279 276 275 274 274 272 271 273 273 273 272 271 270 270 270 270 269 269 268 268 267 267 267 266 261 259 265 265 265 265 265 265 265 265 265 265 265 265 265 265 264 264 265 264
282 278 277 276 278 283 283 278 280 278 272 268 270 267 268 269 271 271 271 272 271 270 270 269 269 268 268 268 267 267 267 266 266 266 265 265 265 264 264 263 263 263 263 263 263 263 263 263 263 263 264 264 264 263
273 275 276 279 278 281 279 282 283 278 272 271 269 264 266 265 266 269 270 270 270 269 269 269 268 269 268 268 267 267 266 266 266 265 264 264 264 263 263 263 263 262 262 262 262 261 261 261 261 261 261 262 263 262
273 270 269 274 277 278 273 275 278 275 273 271 270 268 267 267 268 270 269 269 269 268 267 268 268 268 268 267 267 266 265 265 264 263 263 263 263 263 262 262 262 262 262 262 262 261 260 260 260 260 259 260 260 260

GFSWCAN_925_thetae_045.txt.gz
Theta_e
300 299 299 299 299 300 299 299 298 298 297 295 295 297 299 299 299 299 300 303 305 307 309 312 312 314 314 313 314 316 320 319 312 316 316 314 311 315 314 315 313 316 314 308 306 305 315 310 311 310 309 310 310 309
298 299 299 298 299 298 298 298 297 297 295 296 297 298 298 298 298 298 301 302 304 305 309 306 307 307 309 312 313 315 318 319 318 318 314 313 312 306 313 316 315 315 314 314 313 312 310 312 311 310 309 311 311 311
297 297 297 297 297 297 297 297 297 297 297 297 298 298 298 299 298 299 302 304 304 306 306 307 311 314 313 312 316 317 315 318 319 316 314 313 314 309 312 311 315 315 313 313 314 315 315 313 309 308 309 309 309 308
297 297 296 296 296 296 296 296 296 296 297 298 298 297 296 298 298 299 301 304 304 307 306 310 316 316 319 319 319 317 317 318 316 315 312 310 310 312 307 313 313 313 314 314 314 314 313 310 305 304 303 302 301 300
297 297 297 297 297 297 298 297 297 297 297 296 296 296 296 297 298 300 301 302 304 305 310 311 312 316 319 320 319 318 318 318 314 313 306 311 312 314 308 309 310 312 313 313 312 313 312 310 304 303 302 301 299 299
297 298 297 297 298 299 298 298 299 300 298 297 298 297 297 298 299 301 302 301 303 307 307 309 311 316 318 319 317 317 318 317 316 314 310 315 315 313 310 310 313 313 311 310 312 311 306 303 301 300 300 298 297 296
297 297 297 297 297 297 297 298 300 301 300 299 299 298 299 301 300 303 303 303 301 304 310 308 310 313 317 317 314 317 314 314 317 314 308 312 314 311 304 312 313 310 308 306 304 304 303 302 300 298 297 296 295 294
296 296 297 297 297 298 299 299 299 300 301 300 300 300 300 299 300 301 303 308 303 306 309 309 310 312 315 315 314 313 313 313 312 311 306 308 309 300 311 311 309 306 305 305 303 303 302 298 296 296 295 295 294 293
297 297 297 297 298 298 300 300 299 299 300 300 301 301 301 301 302 303 306 306 306 308 309 305 312 315 312 311 308 309 311 312 310 308 309 311 306 314 311 309 308 306 307 301 299 298 298 297 296 295 294 293 292 291
297 297 297 298 298 298 299 299 300 299 300 300 302 303 303 303 304 304 305 307 307 307 308 307 308 314 312 306 306 308 305 309 314 311 309 308 309 304 303 305 303 302 300 299 298 297 296 296 295 294 294 293 292 291
297 296 296 297 297 297 297 299 299 299 300 302 303 304 307 307 306 305 306 306 305 306 304 307 308 313 308 311 308 303 308 306 315 313 313 310 312 306 302 302 301 300 300 299 299 298 298 296 295 295 294 291 289 289
297 297 297 297 297 297 297 298 298 300 302 302 308 307 307 307 305 304 304 303 304 308 304 307 307 309 304 306 306 305 308 305 313 307 311 313 305 302 302 302 301 301 300 300 299 298 297 296 295 293 291 289 288 287
300 299 299 299 299 299 298 299 300 302 302 307 304 302 306 300 307 308 308 307 307 302 303 302 305 302 301 302 300 301 300 302 303 310 312 304 303 304 304 302 301 300 299 299 298 297 295 293 291 290 288 287 286 285
302 302 302 302 302 302 302 302 302 305 305 301 303 302 303 302 302 301 303 303 300 299 300 301 303 304 300 303 301 305 305 305 305 303 302 302 302 301 301 300 299 298 296 296 294 292 291 289 287 287 287 286 284 283
304 304 304 304 303 303 303 303 303 302 298 299 300 302 301 299 298 298 297 298 297 298 299 302 301 303 303 306 303 305 308 309 301 299 301 300 299 299 298 296 295 293 293 292 291 290 288 287 286 285 285 284 282 281
306 306 301 303 305 304 301 299 299 298 295 296 296 300 298 300 299 298 297 299 297 297 297 299 300 304 305 305 307 306 307 306 304 300 298 298 297 296 295 294 293 293 291 291 290 289 288 287 286 284 283 282 281 280
304 299 300 300 300 300 300 299 297 294 295 296 297 296 297 297 298 297 296 296 295 299 303 301 306 305 303 304 304 302 300 299 298 298 297 295 295 294 293 292 292 291 290 289 288 288 287 285 284 282 282 281 280 280
297 298 299 300 300 300 298 297 295 295 297 296 297 296 294 293 294 294 293 293 296 298 299 298 297 296 295 297 296 293 297 296 295 295 294 294 294 293 293 292 291 291 290 289 288 286 285 284 284 283 282 281 280 279
296 297 298 299 300 298 294 295 295 297 296 295 295 294 293 291 290 290 291 292 293 293 293 293 291 291 291 289 289 289 293 295 295 294 293 292 293 292 292 291 291 290 289 288 286 285 284 282 282 282 281 280 280 279
295 296 297 297 298 294 295 293 295 296 297 295 293 291 290 290 289 288 288 289 290 291 290 289 288 286 286 286 286 288 288 292 293 293 292 291 290 289 289 289 287 285 283 282 281 281 280 279 278 279 279 278 278 277
293 293 295 296 295 293 290 291 295 295 295 297 295 294 291 289 287 286 286 286 287 288 287 286 285 284 283 283 283 285 284 285 285 289 289 286 284 284 284 284 282 281 280 279 279 278 277 277 276 276 276 276 276 276
292 293 292 293 288 289 290 290 293 291 293 294 292 291 289 286 284 286 285 284 284 283 284 283 282 282 282 281 281 281 282 281 281 280 280 280 281 280 279 279 279 278 277 277 276 275 275 275 275 274 274 274 275 274
292 293 291 287 285 285 285 289 287 291 288 288 288 289 288 287 287 285 282 282 282 281 281 282 281 279 279 279 279 279 279 279 279 279 278 277 276 276 275 275 276 276 276 275 274 274 273 273 273 272 272 272 272 271
290 284 281 281 284 282 279 283 287 288 285 285 285 286 290 288 283 280 281 279 279 278 279 278 279 279 277 277 277 276 276 277 276 276 276 275 274 273 272 272 271 272 272 272 271 271 270 270 270 270 269 269 269 269
285 283 280 280 279 282 279 280 281 284 281 280 282 283 288 282 278 278 278 279 277 276 276 276 276 276 275 275 274 274 274 274 273 273 272 274 273 272 271 269 269 268 268 268 268 268 267 267 267 267 267 267 267 267
284 284 286 281 281 282 280 281 280 283 279 281 285 286 276 275 275 277 280 276 273 275 274 275 275 275 274 273 273 272 272 272 271 270 269 270 270 270 269 268 268 267 268 267 267 267 266 266 266 266 266 266 266 266
283 281 285 286 285 284 282 279 280 278 281 284 279 273 276 273 274 279 279 277 276 274 274 273 273 272 272 271 271 271 271 271 270 269 269 269 268 268 268 268 268 267 268 267 267 266 266 266 266 266 265 265 265 265
289 283 282 278 279 279 276 273 275 277 278 283 276 272 270 270 275 276 276 276 274 273 271 270 269 269 268 268 270 271 270 270 270 269 269 267 267 267 267 266 267 266 266 266 266 266 266 266 266 265 265 265 265 265
282 279 279 276 276 278 281 277 277 281 281 278 270 273 273 273 271 272 273 273 273 272 270 270 269 269 269 269 268 268 268 268 268 261 258 256 263 264 264 264 264 264 264 264 264 265 265 266 265 265 264 264 264 264
281 276 276 271 275 280 279 272 272 269 274 273 273 273 272 270 270 271 272 271 270 269 269 269 269 269 268 268 267 266 266 266 265 265 259 259 264 264 264 263 263 263 263 263 263 263 263 263 263 263 263 263 264 264
275 274 275 274 276 277 274 272 275 273 267 264 266 264 266 268 270 270 270 270 269 269 269 268 268 268 267 267 267 266 265 265 265 265 264 264 264 263 263 263 263 262 262 262 262 261 261 261 261 261 261 261 262 262
271 269 273 275 278 278 276 275 273 269 267 264 266 260 263 262 264 268 269 269 269 268 267 268 268 267 267 267 266 265 265 265 264 264 263 263 263 263 262 262 262 262 262 262 262 261 261 260 260 259 259 259 259 260
268 267 266 269 274 277 272 275 275 272 269 269 268 266 265 263 264 268 268 268 268 267 267 267 267 267 266 266 265 264 264 263 263 263 263 263 262 262 261 261 261 261 261 260 260 260 260 259 259 258 258 258 258 257

GFSWCAN_925_thetae_048.txt.gz
Theta_e
301 301 301 301 301 301 303 302 302 301 300 300 300 299 299 299 300 298 298 299 302 306 308 310 308 310 310 310 309 309 311 313 311 314 316 315 309 314 315 315 316 318 314 309 306 307 319 308 309 311 309 309 308 308
300 301 302 302 302 302 301 300 299 300 300 300 300 299 299 299 299 298 298 297 299 305 308 305 305 305 307 310 310 310 312 314 314 317 311 307 309 303 313 317 312 317 315 315 314 315 311 308 309 309 307 308 308 308
299 299 298 299 299 299 300 300 299 299 299 299 299 298 297 296 297 298 298 298 298 306 305 307 306 310 310 308 311 312 312 315 315 312 311 312 313 309 313 313 315 312 310 313 313 313 312 313 310 309 310 309 308 306
298 298 298 299 299 298 299 298 298 298 298 297 296 295 295 296 297 298 298 299 301 304 305 305 309 309 314 314 311 312 312 316 313 312 310 309 312 311 310 313 314 312 312 312 312 313 312 310 306 305 304 303 302 301
297 297 297 297 297 297 297 297 297 296 296 295 297 298 299 299 299 299 299 301 303 305 307 307 304 308 310 317 315 314 315 314 312 311 305 312 312 312 308 311 308 311 313 313 315 311 311 310 304 302 303 301 300 299
297 296 296 296 296 297 297 297 296 295 296 297 298 297 298 298 298 300 301 300 302 303 305 305 307 310 315 317 316 315 315 313 312 311 309 313 313 314 314 314 313 311 309 310 313 310 305 303 300 300 299 298 298 297
297 298 298 298 298 297 296 296 296 296 297 297 296 297 296 297 299 300 302 301 300 302 306 305 304 308 316 316 312 313 312 312 313 311 308 314 315 312 305 313 313 311 309 307 304 304 303 302 301 297 296 296 295 294
297 297 298 298 298 299 299 298 297 298 298 297 297 297 296 297 298 300 302 304 301 301 302 307 309 310 314 316 316 312 310 310 309 309 304 308 309 303 312 311 309 306 305 305 303 302 303 298 297 295 294 294 294 293
297 297 297 298 299 300 300 300 300 298 298 298 298 298 300 299 300 300 302 305 302 302 306 304 310 314 311 310 310 309 308 308 309 306 308 312 307 316 313 310 307 306 307 302 298 298 298 297 295 295 294 294 293 292
296 297 297 299 298 299 300 300 299 298 299 298 299 300 300 301 302 305 305 305 305 306 306 308 307 311 311 303 307 308 306 310 314 310 309 309 311 305 303 304 304 301 300 299 298 297 296 296 295 294 294 293 292 292
296 297 298 299 299 299 299 300 300 300 300 301 302 299 303 302 304 302 300 305 304 305 304 305 306 310 308 309 307 303 307 306 314 310 314 312 314 306 303 302 301 300 299 299 298 297 297 295 294 293 292 292 291 291
297 297 298 298 299 299 300 300 300 301 301 302 303 305 304 306 304 305 305 302 305 308 304 306 307 309 305 307 307 303 307 306 315 307 311 314 307 302 302 302 301 300 299 298 298 297 296 295 294 293 291 290 289 288
297 296 296 296 297 297 299 299 300 301 300 301 303 300 305 300 307 308 308 307 307 302 302 303 305 303 302 304 302 303 308 309 304 311 313 306 303 303 302 301 299 299 298 298 297 296 295 293 291 290 289 287 287 286
297 297 297 297 297 297 297 298 299 299 300 300 302 302 302 302 301 301 303 303 299 298 300 301 302 304 300 304 301 309 305 305 307 307 303 302 302 301 300 299 299 298 297 296 294 292 291 290 289 288 287 286 285 284
299 299 299 300 299 298 298 298 300 299 297 298 299 302 301 299 298 298 297 299 297 297 299 302 302 303 303 304 303 305 307 307 304 304 302 299 299 299 298 297 295 294 293 292 291 289 288 288 287 286 285 284 283 283
302 302 302 302 301 300 300 299 299 297 294 296 296 298 297 298 297 297 296 298 297 296 297 299 302 305 305 304 306 305 306 303 302 299 298 297 296 295 295 294 293 292 291 290 289 288 287 286 286 284 282 282 282 282
301 298 301 303 303 302 300 298 296 294 294 295 296 292 294 296 294 294 294 294 294 299 302 302 301 299 300 302 300 298 298 298 296 297 295 295 294 293 292 292 291 290 290 289 289 287 286 284 284 282 281 280 280 280
298 299 300 300 299 298 297 296 294 294 296 296 293 292 290 289 289 290 290 292 295 297 294 294 294 293 291 293 292 290 290 290 295 294 294 293 293 292 292 291 290 290 289 288 287 285 284 284 284 283 281 280 279 279
299 300 299 298 299 297 294 294 294 295 294 293 290 290 290 287 287 287 289 289 291 291 292 290 288 288 288 287 286 286 287 288 293 292 291 291 291 291 291 290 289 288 287 286 285 284 283 283 282 281 281 280 279 278
296 296 297 297 297 294 295 294 295 295 295 293 290 287 286 285 285 285 285 287 288 288 287 286 284 283 283 283 283 284 284 286 292 289 286 285 285 285 285 285 284 283 282 281 280 280 279 278 278 279 279 279 278 276
295 294 295 295 294 292 291 292 295 295 295 294 292 291 288 286 284 283 283 284 284 285 284 282 282 282 281 281 280 282 282 282 282 284 284 282 281 281 280 280 279 279 278 278 278 277 276 276 275 276 276 276 276 275
292 292 292 293 288 288 289 288 291 290 293 293 290 289 287 281 280 283 282 281 281 281 282 282 280 280 280 279 279 279 280 279 278 278 277 277 278 277 277 277 277 276 276 275 275 274 274 273 273 274 274 273 274 273
292 292 288 286 285 285 285 287 286 289 288 287 286 287 285 284 284 283 278 280 279 279 279 279 279 278 278 277 277 277 277 277 277 276 275 274 274 273 273 272 273 273 273 272 272 271 271 271 271 271 271 271 271 271
289 282 280 280 282 280 278 281 286 286 283 283 284 285 286 281 280 278 279 278 278 277 277 277 277 277 276 275 275 274 274 275 274 274 274 273 272 270 270 269 269 269 269 269 269 269 268 268 268 268 268 268 268 268
286 283 280 279 277 280 277 277 279 282 279 279 282 283 280 279 276 276 276 277 276 274 274 275 275 274 274 273 273 272 272 271 271 270 269 272 271 270 269 268 267 267 267 267 266 266 266 266 266 266 266 266 266 266
286 285 286 277 279 281 278 282 281 277 277 282 279 280 272 272 272 275 279 274 273 274 273 273 274 273 272 271 271 270 270 270 269 268 267 267 267 267 266 266 266 266 266 266 266 266 266 266 266 266 265 265 265 265
285 282 284 283 284 282 278 276 278 276 279 279 275 271 270 270 272 277 277 275 274 272 270 270 270 270 270 270 269 269 270 270 268 267 266 266 266 266 265 265 264 265 266 266 265 265 265 265 265 265 265 265 265 265
287 281 279 275 277 278 275 271 273 276 276 281 273 270 267 267 273 274 275 273 271 270 269 269 269 269 269 269 269 269 268 268 268 267 266 265 265 265 264 264 264 264 264 264 264 264 264 264 265 264 264 264 264 264
278 275 277 273 274 276 277 273 275 277 276 273 266 269 271 271 269 270 271 272 271 270 269 268 267 268 268 267 267 267 267 267 267 259 256 255 262 263 263 263 263 263 263 263 263 263 263 263 262 262 262 262 262 263
277 273 274 271 274 277 272 270 268 264 271 270 272 271 270 269 269 270 271 271 270 269 268 268 268 268 267 267 266 265 265 265 265 264 257 258 263 263 263 263 262 262 262 262 262 262 261 261 261 261 261 261 261 261
273 272 275 273 275 272 270 269 271 269 264 262 263 262 264 266 269 269 269 269 268 268 268 268 267 267 267 266 266 265 265 264 264 263 263 263 263 263 262 262 262 261 261 261 261 261 261 260 260 259 259 259 259 259
269 268 272 274 277 271 269 271 263 265 262 262 264 257 259 259 262 267 268 268 268 268 267 268 268 267 266 266 265 264 264 263 263 263 263 262 262 262 261 261 261 261 260 260 260 260 260 259 259 258 258 258 258 257
265 263 264 269 274 274 272 273 272 270 265 266 265 263 261 261 263 266 267 267 267 267 267 267 267 266 265 265 264 264 263 263 263 263 262 262 262 261 261 261 260 260 260 260 260 259 259 259 258 258 257 257 257 257

GFSWCAN_925_thetae_051.txt.gz
Theta_e
300 300 301 301 302 302 303 303 301 300 303 302 302 301 301 301 301 300 299 302 302 305 306 306 307 309 309 309 310 309 312 312 312 313 315 316 316 319 320 317 318 320 319 318 314 319 322 311 309 316 318 310 311 311
301 301 301 301 300 300 303 302 302 303 303 302 301 300 301 301 301 299 298 300 301 301 305 305 305 306 306 308 309 310 310 312 313 316 313 313 315 312 318 322 313 321 319 321 320 322 317 310 315 311 310 312 310 312
300 302 301 301 301 301 302 303 302 302 301 301 302 301 300 300 300 298 298 298 299 297 302 305 306 308 308 307 309 312 311 313 313 313 313 315 316 313 316 317 317 314 313 318 318 317 314 312 312 311 310 311 309 310
299 299 300 301 301 302 302 302 301 301 302 301 300 300 300 300 299 298 298 298 298 299 303 306 305 306 307 310 308 310 312 314 314 314 312 312 316 313 315 317 318 316 315 315 315 314 314 314 312 311 309 308 306 306
298 299 299 299 299 299 300 300 300 300 300 300 299 298 298 298 299 297 297 297 297 301 303 304 306 306 305 311 309 310 312 314 314 314 310 317 312 313 309 312 314 313 315 317 319 316 317 316 313 307 307 307 305 303
297 297 298 299 299 299 299 299 298 298 298 298 298 298 298 298 297 297 299 298 298 298 300 303 304 306 311 312 312 312 312 314 315 316 313 314 313 315 316 318 314 313 313 315 315 312 306 304 303 304 304 303 301 301
296 296 297 297 298 297 298 297 296 296 295 295 296 296 297 298 297 299 300 300 298 297 303 306 307 307 309 314 313 315 314 315 315 314 312 315 316 315 310 317 314 312 312 310 306 307 307 304 306 301 300 299 297 296
298 298 296 296 297 297 296 296 295 296 297 297 297 298 296 297 298 299 301 301 298 300 302 305 307 309 312 314 316 313 314 313 312 314 308 315 310 309 317 315 313 310 307 306 306 303 305 300 299 297 296 296 296 295
297 298 298 298 296 295 295 296 297 297 297 297 297 298 298 298 298 299 303 301 301 301 302 303 309 313 311 310 309 309 310 314 310 310 312 314 310 317 315 312 311 308 309 307 301 300 300 300 298 297 296 296 295 294
298 299 300 299 299 297 296 297 296 296 296 296 297 299 299 298 301 302 302 303 302 303 304 303 307 312 311 306 306 310 305 310 315 312 309 312 316 308 305 305 306 304 302 301 301 300 298 298 298 297 296 295 294 293
299 299 300 301 300 300 298 297 297 297 297 298 299 299 299 302 301 300 302 303 303 304 304 303 303 307 307 311 308 303 308 307 315 314 316 315 316 308 303 303 302 301 300 300 300 299 299 298 296 295 294 294 293 292
299 299 299 300 300 299 299 298 298 298 299 301 302 302 302 302 301 302 304 302 304 306 304 306 306 307 305 307 307 304 308 306 315 308 313 315 307 303 303 302 301 300 300 299 298 297 296 295 295 294 294 293 291 288
298 298 299 299 300 301 299 300 299 300 301 301 302 301 304 301 305 307 306 306 306 302 302 303 305 303 303 303 302 305 309 311 303 310 310 304 303 303 302 301 300 299 298 297 296 295 295 293 292 292 290 288 287 286
296 296 297 297 299 299 300 299 299 298 298 297 301 301 302 301 301 301 302 303 299 299 300 301 302 304 301 303 303 309 305 305 310 308 305 303 299 299 300 299 299 297 296 295 293 292 291 290 289 288 287 287 286 285
296 296 297 297 297 298 298 298 298 297 293 298 298 301 300 299 297 297 297 298 296 296 299 301 302 304 303 304 304 306 308 306 304 304 301 298 297 297 296 295 294 293 292 292 291 290 289 288 287 287 286 285 284 283
297 298 298 297 296 297 298 298 296 294 293 295 292 293 294 295 293 293 293 295 295 295 297 300 304 306 305 304 303 301 304 299 298 297 297 296 295 295 294 293 292 291 290 289 289 288 287 286 285 284 283 283 282 282
301 300 298 297 297 297 296 296 295 294 295 294 292 289 289 290 290 290 290 292 293 298 300 299 296 296 297 297 295 293 292 291 291 292 295 294 294 293 292 291 290 290 289 288 287 286 285 283 283 283 283 281 280 280
299 301 300 299 298 297 295 295 293 294 293 291 291 289 287 286 286 287 288 290 294 295 293 292 291 290 289 291 289 286 286 287 290 290 290 292 292 292 291 290 289 288 287 286 286 285 285 284 283 282 281 280 279 279
299 301 299 299 298 296 294 294 293 291 290 289 287 287 286 284 285 285 286 288 289 289 289 287 285 284 285 284 283 283 284 284 288 286 284 284 285 286 286 285 284 284 283 283 282 282 281 281 282 281 280 279 279 278
300 300 299 298 297 293 294 294 294 292 291 290 288 285 284 284 283 283 284 285 285 285 284 283 282 281 282 281 281 282 282 284 288 285 282 282 281 281 281 281 281 280 280 279 279 279 278 278 277 278 278 278 277 276
297 297 298 296 292 291 290 292 295 294 292 292 290 289 287 284 282 281 281 282 282 282 281 281 281 280 279 279 279 280 279 279 280 281 281 279 278 278 278 277 277 277 277 277 276 275 275 274 274 274 275 274 274 274
292 292 292 291 289 288 289 287 291 290 291 291 288 288 284 282 279 281 281 279 279 279 280 280 279 279 278 278 277 277 277 277 276 275 275 275 275 275 275 275 275 274 274 273 273 272 272 271 271 272 272 271 272 271
291 291 287 285 285 285 285 287 287 288 287 285 285 286 283 281 282 280 278 278 278 277 277 278 278 277 276 276 275 275 275 275 275 274 273 272 271 271 270 270 271 271 271 270 270 269 268 268 268 268 269 269 268 268
288 281 279 279 282 280 278 281 285 285 282 283 285 284 286 281 279 277 277 277 277 276 276 276 276 276 275 274 273 272 273 273 272 271 272 271 270 269 268 268 267 267 267 267 266 266 266 266 266 266 266 266 265 265
284 283 280 280 277 280 277 278 279 282 279 279 282 282 278 278 276 275 276 277 275 274 273 274 273 273 273 272 271 270 270 270 269 269 267 269 269 269 268 267 266 265 266 266 265 266 265 265 265 265 265 265 264 264
284 282 284 281 279 282 281 284 280 276 280 280 278 277 272 273 273 276 278 275 274 273 271 271 272 272 271 270 270 269 269 268 268 267 266 266 266 266 266 266 266 264 264 265 265 265 265 265 265 265 264 264 264 264
283 280 282 281 281 280 276 275 277 276 276 276 275 271 271 270 272 277 276 274 272 269 269 269 270 270 270 269 268 267 268 268 267 265 264 264 264 264 264 263 263 262 263 264 264 264 263 263 264 264 263 263 263 263
279 279 278 274 275 276 273 271 272 274 275 279 272 269 267 268 273 273 273 271 269 268 268 268 268 268 268 267 267 267 267 266 266 265 265 264 263 263 263 263 263 263 263 263 263 263 262 262 262 262 262 261 261 262
275 272 275 271 272 274 274 271 273 275 274 271 267 268 270 270 268 270 270 271 270 269 268 267 266 267 267 266 266 266 266 266 266 261 261 261 261 262 263 262 262 262 262 262 262 262 261 261 261 260 260 260 260 260
275 272 273 270 274 274 269 267 266 263 269 269 271 271 269 268 268 269 270 270 270 268 268 268 267 267 266 266 265 265 265 264 264 263 261 261 261 262 262 262 262 261 261 261 261 261 261 261 260 260 260 260 259 259
271 271 272 273 272 268 266 265 267 266 262 263 261 263 265 266 268 268 268 268 268 267 267 267 267 267 266 266 265 265 264 263 263 263 263 262 262 262 262 261 261 261 261 261 261 260 260 260 259 259 259 258 258 258
267 267 271 273 274 268 268 267 261 263 261 263 262 257 260 262 262 266 267 267 267 268 268 267 267 266 266 265 264 264 263 263 263 263 262 262 262 261 261 261 261 261 260 260 260 260 260 259 259 258 258 258 257 257
263 262 265 269 272 271 270 271 269 268 264 264 263 260 259 263 264 265 267 267 267 267 267 267 266 266 265 264 264 263 263 263 263 262 262 262 261 261 261 261 261 260 260 260 260 259 259 259 258 258 258 257 257 257

GFSWCAN_925_thetae_057.txt.gz
Theta_e
301 301 301 302 301 301 301 301 301 301 302 302 301 301 301 301 301 302 304 304 306 307 306 306 308 310 308 310 312 310 313 315 318 319 319 315 319 315 315 316 322 325 325 330 328 331 331 321 320 322 323 323 321 321
301 301 301 302 302 301 301 301 301 301 300 302 301 301 301 301 301 302 305 304 304 307 307 307 308 308 308 308 309 312 313 314 314 316 318 318 322 325 317 322 316 324 324 326 324 325 323 321 323 321 322 322 323 322
301 301 301 302 301 301 302 301 302 300 301 301 301 302 301 302 300 303 304 304 304 306 306 308 308 308 305 308 309 314 315 313 315 315 314 316 319 317 327 322 318 320 320 324 323 323 322 322 322 321 321 322 322 322
303 301 301 302 302 302 302 302 301 302 302 302 302 301 302 300 301 302 304 304 305 306 308 307 305 306 304 305 305 310 313 313 313 314 317 319 321 313 320 317 317 319 319 320 320 319 320 321 321 321 321 320 320 319
302 302 302 302 301 301 301 302 302 302 302 300 301 301 301 301 301 301 302 303 304 305 307 306 305 305 304 302 302 306 313 315 313 316 321 319 315 313 314 317 319 314 315 321 321 317 323 321 322 321 322 322 319 318
301 302 302 303 303 302 301 301 302 303 303 302 301 301 301 300 300 300 300 300 302 302 304 306 306 306 304 305 304 308 310 315 315 315 318 314 312 315 325 322 315 312 313 316 319 319 320 321 319 318 320 321 320 317
300 301 301 301 302 302 302 302 302 302 302 302 301 300 300 300 301 302 303 302 301 301 303 304 304 307 306 306 306 308 310 314 316 317 317 317 317 315 324 325 314 315 316 316 318 318 318 317 318 316 316 319 315 316
298 300 300 300 301 301 301 301 301 301 300 299 299 299 300 300 299 302 301 300 300 302 303 305 307 308 306 307 307 311 314 314 314 315 317 319 318 320 321 316 315 315 315 317 319 318 317 314 312 313 312 313 314 314
297 299 299 300 300 300 300 300 300 299 299 299 298 299 299 300 302 302 300 299 302 303 303 305 308 311 307 308 310 312 314 315 314 318 317 317 319 321 317 316 316 317 318 318 319 318 316 314 314 312 310 309 311 311
295 296 297 299 299 299 299 299 298 298 298 298 299 300 302 301 300 299 298 300 302 303 304 306 306 307 302 307 312 312 315 315 316 318 317 319 319 314 306 311 315 315 314 316 316 317 315 314 313 311 309 309 309 308
295 296 297 297 297 297 298 298 298 298 298 300 302 303 301 300 301 304 305 306 306 307 307 306 307 305 303 310 311 311 314 314 316 315 318 320 318 304 301 305 309 311 311 312 312 311 311 312 314 310 308 307 306 304
295 297 298 298 298 298 296 296 298 300 301 301 302 301 300 302 304 305 306 305 305 306 308 308 307 308 308 308 312 311 313 312 318 309 313 308 305 300 300 300 303 304 307 308 307 308 307 307 307 307 305 303 301 296
296 297 297 296 298 298 298 298 298 299 301 303 302 304 304 305 305 304 305 305 309 308 307 309 309 309 308 309 308 313 318 315 308 310 309 305 300 298 298 297 298 296 297 298 298 298 296 295 295 294 292 291 290 290
297 297 296 296 296 296 297 297 298 299 300 301 302 304 305 306 301 300 300 302 301 300 306 309 308 309 306 309 306 315 307 309 316 314 306 300 298 297 297 295 294 293 292 292 291 290 290 289 289 288 288 287 287 286
297 297 298 298 297 297 297 298 297 297 296 296 296 296 298 296 295 294 296 299 297 296 299 305 303 304 305 309 306 309 313 307 303 302 298 296 297 296 295 294 293 292 291 291 290 290 289 288 288 288 287 286 286 285
298 298 298 297 297 297 297 296 296 297 295 292 289 290 290 294 293 292 293 295 295 294 296 300 305 307 305 304 303 302 303 298 296 295 293 294 295 294 293 292 292 291 291 290 289 288 287 286 286 285 285 284 284 284
299 298 298 298 298 297 296 296 294 292 293 293 291 288 287 288 288 289 290 292 291 297 301 300 299 299 301 298 295 293 293 292 291 290 289 290 290 291 291 290 290 290 289 288 287 287 286 286 285 284 284 283 282 281
300 297 297 297 297 297 295 294 292 292 290 289 290 289 287 287 288 288 290 290 296 295 294 293 293 292 293 294 290 288 289 291 288 287 285 286 287 286 286 287 287 287 287 286 286 286 285 285 285 284 283 283 282 281
298 297 297 298 298 298 297 295 293 291 289 289 288 288 289 287 287 288 290 289 289 290 290 289 288 288 287 286 286 287 287 289 287 285 284 282 282 284 284 283 282 283 283 283 283 282 282 283 283 283 283 283 282 282
297 297 296 296 297 298 297 296 293 293 292 291 290 289 288 287 287 289 289 290 288 287 286 285 284 283 283 283 283 284 285 288 287 284 283 282 281 280 280 281 281 281 280 279 280 280 280 280 279 279 279 279 279 278
297 296 293 295 295 295 296 297 295 295 295 294 293 291 290 289 288 287 287 285 286 285 284 284 282 282 280 281 281 280 280 281 281 282 281 280 279 279 279 278 278 278 278 277 277 276 276 276 277 276 276 276 275 276
296 293 294 294 295 295 295 295 296 296 295 294 292 291 290 289 288 286 284 283 282 283 282 282 282 281 280 280 279 279 279 278 278 278 277 277 277 277 277 276 276 275 275 275 274 274 273 273 274 273 274 274 273 271
291 292 293 294 297 297 293 294 295 294 295 294 293 291 290 288 286 286 284 282 281 280 281 280 279 279 279 278 278 278 278 278 278 277 276 276 275 274 274 274 274 274 274 273 272 272 271 271 271 272 272 272 272 272
289 289 291 293 294 293 293 293 293 293 293 293 291 289 288 288 286 285 283 281 280 280 280 280 281 281 279 278 278 277 277 277 277 277 277 276 275 274 273 273 272 273 273 272 272 271 271 271 271 270 270 270 270 270
292 288 292 292 292 293 293 292 292 292 291 291 289 289 287 287 286 284 283 281 280 280 280 279 279 280 280 279 277 275 275 275 275 274 273 275 276 275 274 271 270 269 270 271 271 270 270 269 269 269 268 267 267 268
289 287 290 291 291 292 292 292 291 291 290 289 287 286 287 286 285 284 282 281 279 279 278 279 279 278 277 276 275 274 273 274 274 272 270 270 271 272 272 272 271 269 267 268 268 269 268 268 267 268 268 267 266 266
290 289 287 287 289 289 290 289 289 289 288 288 287 286 286 285 283 280 279 278 278 275 275 276 277 276 275 274 272 271 270 269 269 269 268 268 267 267 268 268 267 266 266 266 267 267 267 267 266 266 266 266 265 265
287 286 286 285 285 286 286 286 286 286 285 284 284 282 283 282 281 279 278 275 275 274 273 273 273 273 273 272 272 272 270 269 268 269 269 268 267 266 266 266 263 264 265 264 265 265 265 265 265 265 264 265 264 264
286 285 283 281 283 282 282 284 283 280 279 283 283 280 278 276 276 275 275 274 274 274 273 273 272 271 270 270 269 269 269 270 271 270 271 271 270 267 265 265 265 264 265 265 264 263 264 263 263 262 263 264 264 264
285 285 283 280 281 281 279 279 278 277 277 277 276 275 275 274 272 274 274 274 274 274 273 272 272 273 272 272 270 268 267 267 267 269 270 269 267 265 265 265 264 264 264 264 264 264 263 264 264 264 263 263 263 262
285 285 283 282 280 279 278 277 276 276 277 277 277 278 276 274 272 272 272 272 272 271 271 271 271 271 271 270 271 270 269 265 263 263 265 265 265 265 264 263 263 263 263 263 263 263 262 263 264 263 263 262 261 261
284 284 283 281 279 278 278 280 280 280 279 279 277 275 275 276 276 273 271 271 272 272 271 272 272 270 268 267 266 265 265 265 264 263 263 264 264 263 263 262 262 262 262 262 262 262 262 262 263 262 262 262 261 260
283 283 282 281 280 280 280 281 281 279 279 279 277 277 277 278 276 274 268 269 271 272 271 270 269 267 266 265 266 264 264 264 263 263 263 262 262 261 261 262 262 262 261 262 262 262 262 261 261 261 261 260 260 259

GFSWCAN_925_thetae_060.txt.gz
Theta_e
299 301 302 301 301 302 301 301 301 301 301 302 302 303 301 301 301 301 300 301 305 308 308 307 307 309 309 310 311 310 311 314 314 318 319 318 321 314 312 311 321 323 324 325 327 329 330 322 321 321 323 323 324 323
302 302 301 301 302 301 301 300 300 302 302 301 302 302 301 301 301 300 301 301 303 308 308 308 308 308 309 311 311 311 312 313 315 318 318 317 324 322 317 319 314 319 321 325 324 325 325 323 322 323 324 325 325 324
303 302 301 302 301 302 301 301 301 300 299 301 302 302 302 301 301 301 302 301 306 306 308 309 309 308 308 310 310 314 312 313 316 315 315 318 321 317 325 321 319 320 320 322 322 321 323 323 323 322 323 324 322 323
302 301 301 302 301 301 301 302 302 300 301 301 302 301 301 300 301 301 303 304 304 306 308 307 307 309 307 307 308 307 309 309 316 316 317 320 321 317 321 319 317 317 319 321 323 322 320 319 320 321 321 322 323 321
303 302 301 301 302 301 301 302 301 301 301 301 301 300 301 301 300 303 304 303 304 307 307 309 307 307 306 306 306 307 307 308 315 314 319 317 317 318 319 318 318 315 315 319 323 319 319 319 317 318 320 319 322 322
302 303 301 301 301 302 302 301 301 301 301 301 301 302 301 300 300 303 303 303 304 305 307 308 307 306 306 304 305 308 307 310 315 315 316 316 315 317 324 315 312 313 313 312 313 314 319 320 320 320 319 319 319 322
301 302 303 301 301 301 302 302 301 302 302 302 301 301 302 302 302 303 304 303 303 304 305 305 305 306 306 307 306 306 307 310 314 317 318 316 315 314 317 320 313 314 314 314 314 315 318 319 320 317 316 316 318 319
301 301 301 302 302 302 301 302 301 301 301 301 301 301 300 301 302 302 302 302 302 303 304 306 306 308 307 308 308 307 310 311 313 316 316 317 316 318 318 313 314 314 314 314 314 318 319 319 316 315 314 314 315 316
300 300 300 300 301 300 300 300 300 300 300 300 300 300 300 301 303 302 300 302 303 304 304 304 306 310 307 308 308 311 312 313 312 316 316 317 319 318 312 311 314 316 316 316 317 318 318 319 317 315 313 312 312 313
299 299 300 300 300 299 299 299 299 299 299 300 301 302 303 302 300 300 301 302 303 304 304 303 306 306 302 306 311 314 314 312 314 315 315 317 317 305 302 301 304 308 311 313 315 317 314 316 316 315 313 311 310 311
298 299 299 299 299 299 299 299 299 299 300 302 303 302 301 300 302 304 303 303 303 303 304 306 308 307 300 304 308 312 311 313 315 316 317 318 311 301 299 299 300 302 305 309 310 311 311 310 312 313 311 309 308 306
297 297 297 299 298 298 298 298 298 300 302 303 302 301 301 302 304 305 306 306 306 306 307 308 307 306 303 300 303 307 309 312 317 312 316 309 301 298 297 296 297 297 299 301 301 301 301 301 303 302 298 295 293 292
298 297 297 297 297 297 297 298 299 300 302 303 304 304 304 305 305 307 304 306 308 303 306 308 308 307 307 305 303 307 312 312 308 310 306 301 298 297 296 294 294 292 292 292 292 292 292 291 291 291 290 288 287 286
297 297 297 297 297 296 297 297 297 300 302 300 304 301 303 301 299 298 299 301 299 299 298 301 308 306 305 307 303 310 306 307 313 310 301 296 297 295 294 294 292 291 291 290 290 289 289 289 288 287 287 286 285 285
296 297 296 296 297 298 297 297 298 296 295 295 296 297 295 295 294 294 295 297 297 296 297 303 304 305 306 307 305 308 310 302 299 298 295 293 294 293 293 292 292 291 290 290 289 288 288 287 286 286 285 284 284 283
298 298 298 298 298 298 297 297 296 296 294 291 289 291 291 293 292 292 293 294 295 294 296 300 305 307 303 302 300 299 299 295 294 292 291 290 291 291 291 291 290 289 289 288 287 286 286 285 284 284 283 283 283 283
299 298 298 296 295 295 296 296 293 291 291 292 291 289 289 289 290 291 291 292 292 294 301 301 299 299 300 297 294 293 293 291 289 287 287 288 287 288 288 288 288 288 287 287 286 285 285 284 284 283 283 282 282 282
300 298 297 296 298 297 295 293 292 291 289 289 290 289 289 289 289 291 291 291 296 295 294 293 293 291 290 292 290 289 290 288 286 285 284 285 285 284 284 285 285 284 284 284 284 285 285 285 284 284 283 283 282 282
299 298 297 297 297 298 296 295 293 291 291 291 289 288 288 288 287 289 290 290 289 289 290 288 287 287 286 285 286 286 288 286 285 284 283 282 282 283 283 282 281 281 282 282 282 281 280 280 282 282 281 281 282 281
297 297 297 296 298 298 297 296 294 294 293 292 290 289 288 288 287 286 286 288 287 286 284 284 283 283 283 283 283 284 285 287 285 283 282 282 281 280 280 280 280 280 279 278 278 278 279 278 278 277 277 278 277 277
296 295 295 296 296 296 298 297 296 296 295 295 292 291 290 288 287 286 286 285 285 285 284 283 282 281 281 281 281 281 281 281 282 282 281 280 279 279 278 278 277 277 277 276 276 276 276 276 276 275 274 274 274 275
295 295 296 295 297 296 297 297 297 297 295 294 293 292 291 290 288 286 284 284 283 282 283 283 282 281 281 281 281 280 280 279 279 279 278 278 278 278 277 277 276 276 275 275 274 274 273 273 274 273 274 274 272 271
294 294 295 296 296 297 295 295 295 295 295 294 293 292 291 289 288 287 284 282 282 283 281 281 281 280 280 279 279 280 280 279 279 278 277 277 276 276 276 275 275 275 275 274 274 273 272 272 271 272 272 272 272 272
290 291 293 295 296 294 295 294 294 294 293 293 291 290 289 289 288 286 283 282 282 281 282 283 282 281 279 278 278 278 278 278 278 278 278 277 275 274 273 272 273 273 274 273 272 272 271 271 271 270 269 270 270 270
293 289 293 294 295 295 294 293 293 293 292 291 290 289 288 289 287 286 284 283 281 282 281 281 281 281 280 279 277 276 276 276 275 274 274 276 277 276 273 271 270 270 271 272 271 270 270 269 269 269 268 267 268 268
290 288 292 293 292 294 293 293 292 292 291 290 288 288 289 288 286 285 283 282 280 280 280 281 280 279 277 276 276 274 273 275 274 272 271 271 272 273 273 272 271 269 269 269 270 270 269 268 268 268 268 267 266 267
291 290 289 290 291 291 292 291 291 290 290 289 289 288 288 286 284 281 280 279 278 277 277 278 278 277 276 275 273 272 271 270 271 270 270 269 269 268 268 268 267 266 267 267 267 268 268 267 267 267 267 266 266 266
288 288 287 288 287 288 288 288 287 287 286 286 286 284 284 284 283 281 279 277 276 275 275 274 274 274 274 273 273 273 272 271 270 270 270 269 268 268 267 266 265 266 266 265 266 266 266 266 265 265 265 265 265 265
287 286 283 282 284 283 283 285 284 281 281 285 285 282 279 278 278 277 276 276 276 275 275 274 273 273 272 271 271 270 270 271 272 271 272 272 271 268 267 266 266 265 266 266 266 264 264 264 264 264 264 265 265 265
286 286 283 282 282 281 280 280 280 280 280 278 277 276 276 275 275 276 276 276 276 276 275 274 274 274 274 274 271 270 268 268 268 270 271 270 268 267 266 266 266 265 265 265 265 266 265 265 265 265 265 264 264 262
287 286 284 282 280 280 279 279 279 279 280 280 279 278 276 275 274 274 274 274 274 273 273 273 273 273 272 272 272 272 270 266 265 265 266 266 266 266 265 264 264 264 265 264 264 265 263 264 265 265 264 264 263 262
287 285 283 281 280 279 280 283 282 282 281 280 278 277 277 278 277 274 273 273 274 275 273 274 273 272 270 268 267 267 267 266 265 265 265 265 265 264 264 264 264 264 264 263 264 264 264 263 263 264 263 263 262 261
285 284 283 282 281 282 282 283 282 281 282 281 279 279 279 279 278 274 271 272 273 274 273 272 270 269 267 267 267 266 266 265 265 264 263 263 262 262 262 263 263 263 263 263 263 264 263 263 262 262 262 262 262 261

GFSWCAN_925_thetae_063.txt.gz
Theta_e
300 300 301 302 302 301 301 301 301 301 301 302 302 302 301 302 301 302 300 299 303 304 305 306 308 308 308 308 308 307 308 309 310 309 311 309 310 314 314 314 319 319 319 319 321 321 324 320 320 320 319 318 319 318
301 302 303 302 301 302 301 301 301 301 301 301 302 302 302 302 302 301 300 300 300 305 308 306 306 307 307 309 310 308 308 308 311 311 311 311 309 309 311 312 314 318 316 318 318 319 320 321 321 319 320 321 321 320
302 302 301 301 301 301 300 301 301 301 300 300 302 301 302 302 302 301 300 299 300 302 306 306 308 307 306 309 310 309 307 310 312 310 312 314 311 311 309 311 312 316 316 319 319 318 318 318 319 320 319 320 319 319
302 301 301 301 301 301 301 301 300 301 302 301 302 302 302 302 302 300 301 301 300 303 306 307 308 308 308 309 308 308 307 308 310 310 312 312 312 312 310 314 313 314 317 319 319 318 319 318 317 319 316 317 319 318
302 301 301 301 301 301 301 300 300 299 302 301 302 302 302 302 300 300 301 301 302 305 305 308 308 307 307 308 307 307 306 307 309 309 309 311 311 312 312 313 313 312 311 316 318 317 318 317 316 318 319 319 318 317
301 301 301 301 301 301 301 301 301 300 301 301 300 300 301 301 300 301 303 302 303 304 307 306 306 307 306 305 306 306 306 307 309 312 310 312 312 312 309 310 311 311 311 310 310 311 311 313 316 318 319 317 315 315
301 301 301 301 301 301 301 301 301 301 301 301 301 301 301 300 301 302 302 302 303 304 306 304 305 306 306 305 304 305 306 307 309 310 313 311 310 312 307 310 312 313 311 310 312 314 312 312 316 314 313 312 312 313
301 301 301 301 300 301 301 301 301 301 301 301 301 301 300 300 302 302 303 303 304 303 304 302 303 305 305 306 305 304 306 307 309 309 310 312 311 311 313 309 308 309 311 313 313 314 315 315 314 313 311 310 310 310
300 302 301 301 301 301 301 301 301 301 299 301 300 300 301 302 302 301 302 303 304 304 303 297 301 306 301 306 304 304 306 303 307 308 309 313 311 309 304 303 304 304 307 308 310 312 312 312 313 312 310 309 308 308
300 300 300 300 300 300 300 300 300 300 301 301 301 301 299 301 301 301 302 302 302 303 301 299 301 299 302 302 301 302 301 302 305 309 310 310 305 301 298 299 299 301 302 305 309 309 309 309 310 310 308 306 305 303
299 299 299 299 299 299 299 299 300 301 301 302 302 301 300 300 302 303 300 301 302 300 302 301 302 303 300 304 305 304 306 301 304 307 309 310 300 298 296 297 296 296 298 300 301 300 300 299 301 300 297 296 295 293
299 299 299 298 298 298 299 299 300 300 302 302 301 300 301 302 303 302 300 301 301 303 302 301 303 304 301 300 302 305 308 303 308 306 309 303 298 296 295 294 293 293 294 294 294 295 294 294 294 293 291 289 288 286
297 297 297 297 297 297 297 298 301 301 302 303 303 301 303 299 301 297 302 300 304 299 299 302 303 301 301 301 301 304 306 310 306 304 299 295 295 294 294 293 291 290 290 290 290 289 288 288 287 287 286 285 285 284
297 297 297 297 297 297 297 297 300 300 299 298 300 296 297 297 297 295 296 297 297 297 297 298 303 303 300 301 303 309 305 304 305 301 294 292 293 292 292 291 290 289 288 288 287 287 286 285 285 284 284 284 283 283
297 297 298 298 298 297 296 296 295 294 292 290 290 293 291 294 291 292 292 295 294 294 295 299 302 303 303 304 302 303 302 296 295 291 291 290 290 291 290 289 288 287 287 286 285 285 284 284 283 283 283 282 282 282
297 298 297 297 298 297 297 293 292 294 291 288 287 288 286 285 285 286 290 292 292 292 293 297 302 303 300 297 296 296 294 292 289 288 287 287 287 288 288 287 287 286 286 285 285 284 283 283 283 282 282 282 281 281
299 298 294 295 295 294 295 294 290 289 289 291 290 288 287 285 288 289 290 288 291 293 298 296 293 295 295 291 290 291 289 287 285 284 285 284 284 285 284 284 284 284 285 285 284 284 283 282 282 282 282 281 281 280
299 297 296 297 298 298 294 292 290 289 289 288 288 288 287 285 286 289 288 287 292 294 291 291 290 287 287 288 288 288 285 284 283 282 281 283 282 281 281 281 282 282 282 281 280 281 282 282 282 282 282 281 280 279
298 297 297 297 297 297 294 294 292 290 290 289 288 288 287 286 285 285 286 287 286 287 287 285 282 284 284 284 284 285 284 283 282 281 281 280 280 280 280 279 279 278 279 279 279 278 278 277 278 278 278 278 279 278
297 297 296 296 297 297 296 294 294 293 292 288 288 286 285 284 285 284 284 286 285 284 283 282 282 282 282 282 282 282 284 283 282 281 280 279 278 278 278 278 277 276 276 276 276 276 276 275 275 274 274 275 274 274
296 295 296 296 296 296 295 295 295 294 293 292 291 289 288 286 283 283 283 283 283 283 282 281 281 281 280 280 280 279 279 279 280 280 279 278 278 277 276 276 275 275 274 274 273 274 274 274 274 272 272 272 273 272
294 295 295 295 294 294 293 294 295 293 292 292 290 290 287 284 282 282 282 282 281 281 281 281 280 280 281 280 280 279 279 278 278 277 277 277 277 276 276 275 275 274 274 273 273 272 271 271 272 272 272 271 270 270
294 293 294 295 292 291 291 294 292 293 292 291 290 288 286 284 286 284 280 282 282 281 280 280 280 280 279 279 280 280 279 278 277 276 275 275 274 274 273 273 274 273 273 272 272 271 271 270 270 270 270 270 270 269
291 290 290 291 291 290 290 290 292 292 289 288 287 286 286 286 284 281 281 281 281 281 282 281 280 279 278 277 277 277 277 276 275 274 275 274 272 271 271 270 270 271 271 271 270 270 270 269 268 268 268 268 268 268
286 286 288 288 290 288 287 287 288 288 285 287 283 285 284 286 282 282 281 281 280 280 279 279 280 279 277 276 275 274 274 273 272 271 271 273 273 271 270 269 269 269 269 270 269 268 268 268 267 267 266 267 267 267
285 285 288 289 287 288 289 286 285 285 284 283 285 287 284 280 278 281 282 279 275 277 278 279 275 275 274 274 272 271 271 272 271 270 269 269 269 270 269 268 267 267 267 268 268 268 267 267 267 267 266 266 266 265
285 286 289 289 290 290 286 285 287 283 282 284 285 282 279 276 277 280 279 278 275 276 276 276 276 275 274 272 271 270 270 270 270 269 268 268 267 267 267 266 265 265 266 266 266 266 266 266 266 266 265 265 265 265
287 286 284 283 282 284 280 280 280 280 279 282 281 276 276 278 278 278 276 276 275 274 274 273 273 273 272 272 272 271 271 270 270 269 268 267 267 267 266 266 266 266 266 265 265 265 265 265 265 265 265 265 265 265
283 283 281 278 279 279 280 280 279 279 279 282 277 276 275 278 276 276 276 275 275 274 273 273 272 272 271 270 270 270 270 271 271 264 264 266 267 266 266 266 265 265 266 266 265 265 265 265 265 265 264 264 264 264
285 283 279 277 276 277 278 278 280 277 276 276 275 275 275 275 276 276 276 276 276 275 274 274 274 273 273 270 269 268 267 268 268 268 266 263 266 266 265 265 265 265 265 265 265 265 264 265 265 265 265 264 263 263
285 282 279 278 277 276 275 276 277 277 275 275 273 271 272 270 273 273 274 273 273 273 273 273 273 272 272 271 270 268 265 266 266 266 266 266 266 265 264 264 264 264 264 264 264 264 263 263 264 264 264 263 263 262
282 279 277 276 278 278 278 281 279 277 276 272 271 270 271 272 271 273 273 273 273 274 274 273 271 269 269 268 267 267 267 266 265 265 265 265 265 264 264 264 264 263 263 263 263 264 264 263 263 263 262 262 262 261
281 280 278 277 277 277 278 278 278 278 275 274 272 273 272 272 271 272 272 272 273 273 272 271 270 269 268 268 267 266 266 266 265 264 264 264 263 263 263 263 263 263 263 262 263 263 263 263 263 262 262 261 261 260

GFSWCAN_925_thetae_066.txt.gz
Theta_e
299 299 299 300 301 301 301 301 301 301 301 301 301 300 301 301 301 301 300 300 299 298 301 305 304 304 305 305 305 304 306 306 306 306 307 306 305 312 314 315 316 315 317 317 317 320 319 319 321 321 317 318 320 319
301 302 302 302 302 302 301 301 301 301 301 301 302 301 301 301 301 301 301 300 300 302 303 303 305 305 305 305 306 305 306 306 307 307 306 305 306 303 309 312 312 316 316 317 318 317 317 318 321 319 319 319 319 319
301 301 301 301 301 301 301 301 301 301 301 301 301 301 301 301 301 301 300 300 300 301 301 303 305 306 307 308 307 306 306 308 310 307 308 309 309 307 311 310 310 311 314 316 317 315 316 316 319 317 319 317 317 318
301 301 301 301 301 301 302 301 301 300 301 301 301 301 302 302 302 301 299 300 300 301 302 305 306 306 306 308 308 308 308 308 308 308 308 306 307 309 307 310 310 309 312 314 316 316 317 317 316 315 316 316 316 317
301 301 301 301 301 300 301 300 300 301 301 301 301 300 302 302 301 300 299 300 300 302 304 305 306 307 306 308 307 307 307 308 309 309 307 307 308 310 309 311 311 311 313 316 314 315 316 316 313 314 316 314 314 316
301 301 301 301 301 300 300 300 301 301 301 300 302 302 302 302 301 300 302 299 300 301 302 306 306 306 307 307 306 306 307 306 307 305 305 309 310 310 311 311 311 309 311 309 312 312 315 313 312 313 315 315 315 315
301 301 301 301 301 300 301 300 301 301 302 302 302 301 301 300 300 301 301 301 301 300 302 305 307 306 305 304 303 303 305 305 306 307 306 308 310 312 307 310 306 306 306 309 308 312 314 313 311 312 311 311 311 311
300 300 301 301 301 300 301 301 300 301 301 300 300 300 301 301 301 302 302 301 302 304 303 301 306 307 301 303 303 301 303 304 305 306 307 310 310 310 312 303 302 302 304 306 305 309 310 310 310 309 309 308 309 308
301 300 301 301 301 301 300 300 300 301 301 300 300 300 301 301 301 302 303 303 303 302 299 294 298 304 301 304 301 301 303 303 303 300 306 309 309 303 299 300 300 300 301 303 304 304 307 308 308 306 306 306 305 301
300 300 300 300 300 300 301 300 301 300 299 297 300 300 299 301 301 301 302 301 300 301 298 297 298 301 300 302 302 300 294 301 307 305 307 304 300 299 295 297 296 296 297 300 303 302 301 303 303 300 298 297 296 293
299 299 299 299 300 300 300 300 301 301 302 301 300 300 299 300 302 301 299 300 300 300 299 299 300 299 299 297 302 302 306 302 303 305 304 303 298 295 294 294 293 293 294 295 296 297 297 297 297 296 293 290 289 288
298 298 297 297 297 298 300 301 301 301 301 300 299 300 301 301 300 300 301 301 299 304 302 299 300 299 299 300 302 303 307 304 307 302 299 294 294 293 293 292 290 290 291 291 291 291 291 291 290 289 288 286 285 284
297 297 297 297 297 297 300 301 301 301 302 302 299 297 298 294 294 294 299 301 302 298 297 299 303 297 300 301 301 303 306 306 304 298 293 291 292 291 290 290 289 288 288 287 287 286 285 285 285 285 285 284 283 283
298 298 297 297 296 296 297 298 300 298 295 293 294 291 291 292 292 293 294 295 295 294 295 295 300 303 299 301 302 307 301 299 297 294 290 290 290 289 289 288 286 285 285 285 285 284 284 283 283 282 282 282 282 281
297 295 294 295 297 295 294 294 293 291 288 288 288 288 287 288 285 290 288 291 293 292 293 297 300 301 300 300 296 298 296 291 291 288 288 287 288 287 287 286 286 285 284 284 283 283 282 282 282 281 281 281 281 280
298 296 295 296 294 295 293 292 291 292 287 284 286 284 283 280 281 280 281 284 285 291 293 296 297 299 296 293 292 292 290 288 287 286 285 285 285 284 284 285 285 284 284 283 283 282 282 282 281 281 280 280 280 279
298 295 297 297 296 292 293 291 289 289 289 287 284 279 275 276 280 284 281 287 288 292 293 294 291 293 291 290 289 288 286 285 284 284 283 282 282 282 283 282 282 281 281 282 283 283 282 281 281 280 280 279 279 278
297 295 297 297 297 296 291 290 289 289 288 287 284 283 281 280 280 279 285 286 289 291 290 288 287 285 284 286 285 285 283 282 281 280 280 281 280 279 279 279 279 279 279 279 278 278 278 279 279 280 279 278 277 277
297 296 296 296 296 295 292 292 290 289 288 286 285 284 284 283 283 284 285 284 284 284 283 282 281 282 282 282 283 283 282 281 279 279 278 278 278 278 277 277 277 276 277 277 277 276 275 275 276 276 276 276 275 275
297 297 296 296 297 294 293 293 291 290 290 286 285 284 283 283 283 282 282 283 283 282 281 280 280 280 279 280 281 282 281 280 279 278 278 277 276 276 276 276 275 275 275 275 274 275 274 273 273 273 273 272 272 271
296 295 295 296 296 295 293 293 293 290 289 289 287 286 284 283 282 281 281 282 280 280 280 280 279 279 279 279 279 279 279 279 279 278 278 277 276 275 275 274 274 273 273 273 272 272 272 272 271 270 270 269 269 268
293 295 294 294 292 292 291 291 292 291 291 291 290 289 285 282 281 281 281 280 280 280 280 280 280 280 279 278 278 278 277 277 276 276 275 275 275 275 274 274 273 272 272 271 270 269 269 269 270 270 269 269 268 267
293 293 293 290 289 288 289 291 290 292 288 288 287 285 283 280 282 282 278 281 280 280 279 279 278 278 279 278 278 277 276 275 274 273 273 272 271 271 270 271 271 271 270 270 269 268 268 269 270 269 269 268 268 267
291 288 287 286 287 287 285 287 290 289 286 285 285 284 285 281 281 278 279 280 281 280 279 278 277 276 275 274 274 274 274 273 272 272 272 270 270 269 269 268 269 269 269 269 269 268 267 267 268 268 268 267 267 266
285 284 284 282 283 284 282 281 283 284 282 283 282 281 281 281 277 277 277 279 277 276 275 277 277 275 274 272 272 272 272 272 270 270 270 270 269 268 268 267 267 268 268 268 268 267 267 266 266 266 266 266 266 265
282 281 286 283 281 284 283 282 280 280 277 277 282 282 277 274 274 277 279 274 272 273 272 269 272 272 272 272 271 270 270 270 270 268 268 269 269 268 266 265 265 266 267 267 267 267 266 266 265 265 265 265 265 265
280 283 287 285 286 285 281 280 281 278 276 280 279 275 272 271 272 278 277 275 274 274 274 274 273 272 271 270 270 270 270 269 268 267 267 267 267 267 267 266 265 265 266 266 266 266 266 265 265 265 265 265 264 264
285 281 279 276 278 279 275 273 271 274 274 280 275 271 270 271 275 274 272 274 274 274 274 273 273 273 272 271 270 269 269 268 268 267 266 266 266 266 266 266 266 265 265 265 265 265 265 265 265 264 264 264 264 264
278 278 277 273 274 275 276 272 273 276 277 277 269 270 273 276 272 275 274 274 274 273 271 271 270 271 270 270 269 270 270 269 268 263 262 259 265 265 265 265 265 265 265 265 265 265 264 264 265 264 264 264 264 263
279 277 275 271 272 274 273 273 270 267 273 273 274 275 273 272 274 275 275 274 273 273 272 272 271 271 270 269 267 267 268 268 269 269 261 259 265 265 265 265 265 264 264 264 264 264 264 264 265 264 264 263 263 262
280 275 274 273 273 273 270 270 275 273 267 266 264 265 268 269 273 273 274 274 274 273 273 272 271 271 271 269 269 267 265 266 266 266 266 266 265 264 264 264 264 264 264 264 264 263 263 263 263 263 263 262 262 261
274 271 273 275 276 274 273 273 267 266 264 264 264 260 264 263 266 270 273 273 273 273 272 272 272 270 270 268 268 268 267 266 265 265 265 265 265 264 264 263 263 263 263 263 263 263 263 263 263 262 262 261 261 261
273 275 272 273 274 273 273 270 270 272 268 267 268 267 266 267 267 269 271 272 273 273 273 272 271 270 268 267 267 266 266 265 265 264 264 264 263 263 263 263 263 262 262 262 262 262 262 262 262 261 261 261 260 260

GFSWCAN_925_thetae_069.txt.gz
Theta_e
299 301 301 302 301 300 300 300 300 300 299 299 298 298 299 299 299 300 299 298 299 299 301 303 304 304 303 304 303 302 305 304 303 304 305 305 302 307 310 312 312 313 314 312 317 318 314 316 318 324 318 317 318 318
301 301 301 301 301 301 302 301 301 302 301 300 300 299 299 298 298 299 300 299 299 300 301 300 302 304 303 303 304 304 305 305 305 304 302 303 302 300 308 310 311 313 311 311 312 314 313 312 315 315 316 319 319 319
301 301 301 301 301 301 301 301 301 301 301 301 301 301 300 299 299 299 300 300 299 300 299 300 302 303 304 304 304 305 304 305 306 303 304 305 306 304 304 306 308 308 311 313 314 312 313 312 313 317 318 317 317 317
301 301 301 301 301 300 300 301 301 301 301 301 301 301 301 300 300 300 301 300 299 300 301 302 300 301 302 307 304 305 306 307 306 305 306 303 304 306 304 307 307 306 309 311 311 311 313 314 314 313 314 315 316 315
301 301 301 300 300 300 299 300 300 300 301 301 301 301 301 301 301 301 300 300 299 299 300 301 306 304 305 307 307 307 306 305 305 306 306 305 306 309 306 308 308 310 311 312 310 312 312 313 314 312 314 314 313 315
301 301 300 300 300 300 301 301 301 301 300 300 301 301 301 301 299 298 298 300 300 300 303 303 305 306 306 307 306 306 305 305 306 308 307 307 309 309 304 307 308 306 306 307 309 307 308 311 310 309 312 313 314 314
301 301 300 301 300 301 301 300 299 300 301 300 301 301 302 300 299 300 300 299 300 300 300 302 306 306 306 304 304 304 304 306 306 306 306 307 309 310 306 309 304 303 303 305 304 306 311 309 310 308 308 308 308 307
301 300 300 301 300 301 301 300 301 301 300 300 300 301 301 300 300 302 300 299 300 300 299 303 305 306 303 303 305 303 304 305 305 305 304 306 307 308 308 300 300 300 301 304 302 304 305 306 303 303 304 305 304 300
300 300 300 300 301 300 300 300 301 300 300 301 300 301 301 300 302 301 300 300 300 301 302 299 302 307 301 302 300 300 301 305 302 300 303 305 306 299 296 296 297 296 297 299 300 302 301 303 302 299 298 296 296 293
299 300 300 300 300 300 300 300 300 300 300 300 300 298 297 303 302 302 301 300 302 299 297 298 294 304 302 302 298 299 295 300 306 304 303 299 298 295 293 294 293 293 294 296 298 301 299 299 298 295 292 291 290 289
297 298 299 300 300 300 300 299 298 300 299 300 299 298 300 301 301 300 299 299 300 300 298 297 297 298 298 299 304 298 304 298 299 302 304 300 296 293 292 291 290 290 292 293 293 293 293 293 293 291 289 287 286 286
297 297 297 298 300 300 300 300 301 301 300 300 300 300 299 298 297 300 300 298 301 303 300 297 300 298 299 300 299 302 305 304 307 300 297 294 292 291 290 289 287 287 288 288 288 288 287 287 287 286 286 285 284 283
297 297 297 298 298 300 300 300 301 301 302 299 295 293 294 290 291 292 297 296 296 298 295 298 303 299 299 300 299 303 305 306 298 294 290 290 290 289 288 287 286 285 285 285 285 284 284 283 283 283 283 282 281 281
295 295 296 296 295 298 294 296 297 295 293 291 290 286 286 286 289 290 291 292 293 292 292 294 299 302 299 301 302 305 296 296 295 290 287 287 288 287 286 285 284 283 283 283 282 282 282 282 282 281 280 280 279 278
298 296 295 294 295 292 294 293 291 290 288 287 286 285 286 286 285 287 286 288 291 290 293 297 299 299 296 295 293 292 293 289 288 286 286 285 285 286 285 285 284 283 282 282 282 282 281 281 280 280 280 279 279 278
297 296 296 296 292 294 291 290 290 290 287 285 284 283 283 281 282 282 282 285 287 289 293 295 298 297 292 291 289 290 288 287 285 284 283 284 284 283 282 282 282 283 283 282 282 281 280 280 279 279 278 278 277 277
296 296 297 295 291 290 290 289 288 287 286 284 282 279 274 274 277 281 282 285 286 290 293 292 289 291 289 289 288 285 283 283 282 281 280 279 279 279 280 280 279 279 279 279 280 280 280 279 278 278 278 277 277 276
296 296 297 296 295 294 290 290 287 287 285 284 283 282 277 277 278 280 282 283 286 289 287 286 285 283 282 284 284 282 280 279 279 278 278 278 278 278 277 278 278 278 278 277 277 277 277 278 278 277 277 276 275 274
297 297 296 296 295 293 291 289 288 285 284 283 281 281 279 280 281 281 282 282 282 282 282 282 279 281 280 280 280 280 278 278 278 277 277 276 277 277 276 276 276 276 276 276 275 275 274 274 274 274 274 273 272 271
296 296 295 296 296 292 292 290 289 287 286 283 283 282 282 281 281 279 281 282 282 281 279 277 277 276 276 278 279 278 277 277 278 277 276 276 275 275 275 275 274 274 274 273 273 273 273 272 271 270 270 269 269 268
295 294 295 295 295 294 291 291 289 288 287 286 285 284 283 282 281 281 281 281 280 280 279 278 278 278 278 278 278 278 278 278 277 277 276 275 275 274 273 273 273 272 271 271 271 270 270 270 269 268 268 267 268 267
293 294 294 294 291 290 290 290 290 288 289 289 287 287 283 279 279 280 281 279 279 279 279 279 278 278 277 276 276 276 276 275 274 274 273 273 273 273 273 272 271 271 270 269 268 268 268 268 269 268 267 266 266 266
292 293 291 288 287 287 290 289 289 291 287 287 286 285 282 278 281 281 278 280 279 278 277 277 276 277 276 276 276 275 274 274 273 272 271 270 270 269 269 269 269 269 268 267 268 268 268 268 268 267 266 266 265 265
291 286 286 285 287 285 283 285 289 287 285 285 285 284 283 279 279 277 279 279 279 278 278 277 276 276 275 274 273 273 273 272 271 270 270 269 268 267 267 267 268 268 268 267 267 267 268 268 267 267 267 266 265 265
285 284 283 282 282 283 281 279 281 283 280 281 281 281 279 280 276 275 275 277 276 274 272 275 275 273 272 270 271 271 272 272 270 269 269 269 268 267 267 267 267 267 268 267 266 266 266 266 266 266 266 266 265 264
283 283 282 281 280 284 281 280 279 278 276 278 280 278 273 271 271 274 277 273 271 270 266 269 271 272 271 271 270 270 269 270 270 268 267 269 268 268 265 264 265 266 267 267 267 266 265 265 265 265 264 264 264 264
279 280 285 282 284 282 278 277 279 277 276 278 275 270 269 268 268 275 275 274 272 273 274 273 272 271 270 269 269 269 269 269 268 267 266 267 267 267 267 266 265 265 266 266 266 266 265 265 265 264 264 264 264 264
282 279 277 273 275 276 271 270 269 272 274 279 273 268 267 269 274 273 271 273 273 273 273 272 271 270 270 269 269 268 268 267 267 266 266 266 265 265 265 265 265 265 264 264 264 265 265 264 264 264 264 264 263 263
275 275 274 270 272 273 274 270 272 276 276 272 267 268 272 274 271 273 272 273 273 273 271 270 269 270 270 269 269 269 268 268 268 260 259 256 263 265 265 265 265 265 265 265 264 264 264 264 264 264 264 263 263 262
276 275 272 268 271 273 269 268 267 264 271 270 273 274 272 270 272 274 273 273 272 272 272 271 270 270 268 268 267 267 267 268 268 268 260 257 265 265 265 264 264 264 264 264 264 264 264 264 264 264 263 263 263 262
276 272 272 272 273 270 268 265 271 270 263 264 263 264 267 267 273 272 273 273 273 272 271 270 270 270 270 269 268 267 266 266 267 267 267 266 265 264 264 264 263 263 263 263 263 263 263 263 263 263 262 262 262 261
269 267 272 273 274 272 269 265 264 264 260 263 262 257 262 262 264 268 272 272 272 272 272 272 271 271 270 269 269 268 268 267 266 265 265 265 264 264 264 263 263 263 263 263 263 263 263 262 262 262 262 261 261 260
271 271 271 272 271 272 270 271 270 269 265 264 267 263 262 262 265 267 270 272 272 273 272 272 271 270 268 267 267 266 266 265 265 264 264 263 263 262 262 262 262 262 262 262 262 262 262 262 262 261 261 260 260 259

GFSWCAN_925_thetae_072.txt.gz
Theta_e
299 300 301 301 301 301 301 301 299 299 299 298 298 298 298 300 300 300 301 301 299 299 302 303 303 304 304 303 304 303 305 304 303 304 306 306 304 305 306 310 312 312 313 316 316 317 316 312 317 321 317 313 314 317
300 301 301 301 301 301 301 301 301 300 299 299 299 298 297 300 301 300 299 300 299 300 302 300 302 302 303 303 303 304 304 303 302 302 301 302 302 299 307 309 309 309 309 311 311 311 310 312 313 313 313 313 314 316
301 301 301 301 300 301 301 301 301 302 300 300 300 298 298 298 299 298 299 299 298 297 300 300 301 303 303 304 303 305 303 305 303 301 301 302 304 302 304 305 306 307 309 311 311 308 309 308 310 311 313 314 314 315
301 301 300 300 300 300 300 300 300 301 301 300 300 300 299 298 298 300 299 299 298 300 301 299 299 300 302 303 304 303 304 306 306 305 303 301 304 304 302 305 305 304 307 309 309 308 310 308 308 311 312 313 315 316
301 300 300 300 300 300 301 300 299 300 301 301 301 300 300 299 299 298 299 299 299 299 300 298 302 300 300 302 303 304 306 306 306 306 302 302 303 306 303 305 305 308 308 308 307 309 308 309 308 308 310 310 312 313
300 300 300 300 300 300 300 299 301 300 301 301 301 301 301 299 299 299 299 299 298 299 300 301 302 304 303 304 306 304 305 305 306 307 305 305 306 306 301 305 307 305 304 305 308 304 304 305 307 305 307 308 307 304
300 300 300 300 301 300 300 300 300 300 300 301 301 301 301 300 299 299 300 299 299 299 301 295 303 304 303 305 305 305 305 306 305 304 306 306 306 307 305 309 303 302 301 301 304 302 306 305 306 302 301 303 300 297
300 300 299 300 301 300 300 300 301 300 300 301 301 301 302 301 299 300 300 300 300 299 300 299 304 305 304 304 305 303 305 305 305 304 302 304 305 306 308 299 298 298 297 301 298 299 303 302 301 297 296 296 295 293
300 300 300 299 300 300 300 300 301 301 301 301 301 300 300 300 301 300 300 300 300 300 300 301 303 306 302 302 303 302 303 305 302 303 302 305 304 301 296 296 295 294 294 295 297 298 300 300 299 294 292 291 290 289
299 299 300 300 298 298 299 299 300 300 299 299 298 297 297 301 299 300 299 300 299 300 297 301 298 304 302 300 301 302 298 302 305 304 301 297 296 293 293 291 290 291 291 294 295 298 295 296 295 292 290 289 288 287
298 299 299 300 300 299 300 300 300 300 299 299 298 298 300 300 299 298 299 301 300 300 298 299 297 301 297 300 303 297 303 297 304 301 305 299 294 292 290 288 288 288 289 289 290 290 289 290 290 289 287 286 285 285
297 296 297 300 299 300 300 300 300 300 299 299 299 298 296 296 296 300 300 299 300 301 298 301 300 298 299 297 300 301 299 303 304 297 295 291 291 288 288 287 285 285 286 286 286 286 286 286 285 285 284 283 282 281
296 297 295 296 297 297 300 300 300 301 299 296 293 290 292 287 287 289 294 298 297 295 294 297 300 299 299 300 299 303 304 303 294 292 290 288 288 287 286 285 284 284 284 284 284 283 283 282 282 282 281 281 280 279
296 294 295 294 292 293 294 296 296 294 291 289 288 284 283 284 287 288 289 289 292 289 289 291 300 301 298 300 297 302 294 293 292 289 287 286 287 286 285 284 284 283 283 282 282 281 281 280 280 279 279 278 278 277
295 295 293 293 293 290 291 290 290 290 286 285 284 283 284 284 285 285 285 288 289 289 291 297 297 295 292 291 290 292 290 288 287 286 286 284 283 283 283 283 283 283 282 281 280 280 279 279 278 278 278 277 277 277
296 295 294 290 292 291 290 289 288 288 285 284 283 282 281 282 283 281 283 285 286 287 292 294 295 293 291 290 288 287 287 284 283 281 281 281 280 281 280 280 280 280 281 280 280 279 279 278 278 277 276 276 276 275
296 296 296 295 290 289 289 288 287 286 284 283 282 279 276 278 278 279 281 283 284 290 291 290 288 289 289 288 284 283 281 281 281 280 279 279 279 279 279 279 279 278 278 278 279 279 278 277 277 276 275 275 275 274
296 296 296 295 295 293 289 288 286 285 282 280 278 280 278 276 279 279 281 282 285 287 286 285 285 283 283 284 283 281 280 280 279 278 278 278 277 277 277 277 277 277 277 276 276 276 276 276 275 275 275 274 273 272
296 296 295 295 293 292 288 286 285 283 281 279 279 278 277 277 279 281 281 282 282 283 283 282 280 281 281 281 280 279 279 278 277 277 276 275 276 276 276 275 275 275 274 274 274 274 273 272 273 272 272 271 270 270
296 294 295 296 295 291 291 288 286 285 282 282 283 282 280 280 281 277 280 281 281 280 278 276 275 274 274 276 276 277 277 277 277 276 275 275 274 274 273 274 273 273 273 272 272 272 272 270 269 268 268 268 267 266
294 294 294 294 293 292 289 288 287 285 285 284 283 283 282 281 280 280 280 280 279 279 278 277 277 277 277 277 277 277 277 277 276 276 275 274 274 273 273 272 272 271 271 271 270 270 269 268 267 267 268 267 266 266
293 294 293 292 290 289 288 288 288 287 288 287 286 285 282 279 279 280 280 278 278 277 277 277 277 276 276 275 274 274 274 274 274 273 272 272 272 272 271 270 270 269 268 268 268 267 267 266 266 266 266 266 266 266
291 292 290 288 288 288 291 289 289 290 287 286 286 284 280 279 281 280 277 279 278 277 276 276 276 276 275 275 274 274 273 273 272 271 270 269 268 268 268 268 268 267 266 266 267 267 267 266 266 266 265 265 265 264
290 284 282 281 286 283 282 284 288 286 284 284 284 283 279 278 278 276 277 277 278 277 276 276 275 274 274 273 272 272 271 271 270 269 269 268 267 266 267 267 267 267 267 267 267 267 266 266 266 266 265 265 264 264
285 282 281 280 280 282 280 277 279 281 278 279 279 279 276 278 275 273 272 273 272 270 268 273 273 272 271 269 270 270 271 271 269 268 268 269 267 267 266 266 266 267 266 267 266 267 266 266 266 266 265 265 264 264
283 281 281 281 279 281 280 278 277 277 276 276 276 274 271 271 271 272 276 269 268 268 263 267 269 271 271 270 269 269 269 270 270 268 267 268 268 268 265 264 265 266 267 266 266 266 265 265 265 265 265 264 264 264
279 279 282 279 282 281 276 275 278 276 274 277 275 269 268 267 268 273 274 272 271 273 273 273 272 271 270 269 269 268 269 269 269 267 267 267 267 266 266 266 265 265 266 266 266 266 265 265 264 264 264 264 263 263
280 278 277 271 273 274 269 269 268 270 274 277 272 267 267 268 273 272 271 271 272 273 272 271 271 270 270 269 268 267 267 267 266 266 266 266 265 265 265 265 265 265 264 265 265 265 265 264 264 264 264 263 263 263
273 272 272 267 270 271 272 268 271 274 274 270 266 267 271 273 269 271 271 272 273 272 270 269 268 269 269 268 268 268 267 267 267 258 258 256 262 265 265 265 265 264 264 264 264 264 264 264 264 264 263 263 263 262
274 273 269 266 268 271 267 268 267 264 269 269 272 273 271 269 270 272 272 272 272 271 271 270 270 270 269 269 267 267 267 267 267 266 261 258 265 265 264 264 264 264 264 264 264 264 264 263 263 263 263 263 262 262
273 269 270 271 271 269 267 262 266 268 261 262 260 264 266 266 272 272 272 272 272 271 270 269 269 269 269 268 268 267 267 266 266 267 266 266 265 264 264 264 263 263 263 263 263 263 263 263 262 262 262 262 262 261
268 267 271 272 272 269 266 262 261 262 259 263 260 256 259 261 263 267 269 271 271 271 271 271 271 271 270 269 269 268 267 266 265 265 265 265 264 264 263 263 263 263 263 262 262 262 262 262 262 262 262 261 261 260
269 269 268 269 269 270 268 269 269 268 264 263 263 259 258 261 265 266 269 271 272 272 272 271 270 269 268 267 266 266 265 265 264 264 263 263 263 262 262 262 262 262 262 261 261 261 261 261 261 261 261 260 260 259

GFSWCAN_925_thetae_075.txt.gz
Theta_e
297 297 299 300 300 300 300 301 301 301 301 299 299 298 298 298 298 299 298 300 300 299 302 303 304 305 304 303 304 303 304 304 306 307 307 307 307 308 307 308 313 313 313 313 313 315 315 311 316 317 315 316 314 314
298 299 300 301 301 301 300 301 300 301 300 300 299 298 298 300 299 298 300 300 300 300 302 301 303 303 303 303 304 304 305 304 304 305 305 305 307 305 308 309 309 313 314 316 315 315 312 312 313 311 314 315 314 314
299 301 301 300 300 299 300 300 300 301 301 300 299 298 298 299 299 299 298 300 299 296 299 300 303 302 303 303 303 304 304 304 303 303 304 305 306 305 309 309 310 309 308 312 311 311 311 309 309 311 311 311 312 312
301 301 300 300 300 300 300 300 300 299 301 301 299 299 298 297 298 299 299 300 298 299 302 301 299 301 303 303 303 303 304 305 305 306 305 305 307 304 306 307 307 306 308 310 310 309 310 310 310 309 308 309 309 309
300 300 300 300 300 300 300 301 300 299 300 301 299 299 298 297 299 297 298 298 298 300 300 300 300 300 301 302 302 303 305 305 306 308 307 308 305 308 306 307 309 308 309 311 310 307 307 308 308 306 305 307 305 302
299 300 300 300 300 300 300 300 300 301 300 301 300 299 298 297 297 298 297 298 298 300 301 301 300 301 300 300 302 304 305 305 306 306 306 306 305 308 308 308 306 306 304 304 306 305 305 305 306 302 301 300 300 297
299 300 299 300 299 300 300 301 299 300 301 301 300 299 298 299 298 299 299 299 298 299 300 299 302 302 300 302 304 305 305 306 306 307 307 306 307 308 306 307 303 301 299 299 301 301 306 305 305 299 297 296 296 293
299 299 299 299 300 299 300 300 300 300 301 302 300 299 299 298 299 300 299 299 298 299 300 298 299 304 303 305 304 303 304 304 305 304 304 306 307 306 306 298 297 295 295 298 295 296 298 301 300 296 294 293 293 290
300 300 299 299 299 300 300 300 300 301 301 301 300 299 299 298 299 300 300 299 299 299 299 298 300 305 303 303 302 300 303 304 303 303 304 306 305 303 295 293 293 292 292 292 294 295 297 298 296 293 292 290 290 288
299 300 299 299 299 299 299 299 302 301 300 298 298 297 298 300 299 300 299 299 300 300 299 300 298 304 302 302 302 303 301 304 306 304 301 302 295 291 290 289 289 288 289 290 292 294 292 292 293 290 289 288 287 286
297 299 299 298 300 300 299 299 298 299 299 298 298 300 300 300 298 299 300 300 301 301 297 299 298 302 298 304 303 300 304 302 303 304 305 298 293 290 288 287 286 286 286 287 288 288 288 288 288 288 286 285 284 283
297 296 297 297 300 300 300 300 300 300 299 299 299 297 295 293 296 299 299 298 301 301 298 302 300 300 299 298 303 301 303 302 303 296 296 291 289 287 286 286 285 284 285 285 285 285 285 285 284 284 283 282 281 280
294 294 296 298 295 298 299 300 298 297 297 293 290 289 291 288 288 290 295 296 297 294 293 297 300 298 299 299 302 303 300 298 292 291 288 287 287 286 285 285 284 283 283 282 282 282 281 281 280 280 280 279 278 277
294 293 293 292 292 292 295 300 299 298 291 288 286 283 282 283 286 287 288 290 291 291 291 293 300 298 296 296 294 297 292 293 291 288 286 285 285 285 284 283 282 282 281 281 280 279 279 278 278 278 277 276 276 275
294 293 292 292 290 290 290 291 291 290 285 284 284 283 284 283 284 284 284 286 288 288 291 298 294 293 291 290 290 292 290 288 286 285 284 283 283 282 282 282 282 281 280 280 279 279 278 277 277 277 276 275 275 274
295 295 295 289 290 289 289 289 287 286 284 283 281 283 281 282 283 282 282 284 285 285 291 292 293 291 290 288 286 286 286 285 283 282 281 281 281 281 280 280 280 280 280 279 279 278 277 277 276 276 275 274 274 273
296 296 296 294 289 288 288 287 285 285 284 283 281 280 278 280 280 280 280 282 283 289 290 289 288 288 288 287 284 283 283 282 281 280 279 279 279 279 279 279 278 278 277 278 278 277 277 276 275 275 275 274 273 273
296 295 295 295 295 289 286 285 285 283 282 280 281 280 280 278 279 278 280 282 285 287 286 286 285 284 284 285 283 281 280 279 278 278 277 277 277 277 277 276 276 276 276 275 275 275 275 275 275 274 273 273 272 271
296 295 295 293 292 290 287 285 284 282 282 280 280 280 279 278 279 280 281 282 282 283 283 283 281 281 281 281 280 280 279 279 277 276 276 275 275 275 275 275 275 274 274 274 274 273 272 271 272 272 271 271 271 270
295 294 295 294 293 289 289 287 284 284 282 282 283 282 280 281 281 278 280 282 280 280 278 277 277 277 278 278 278 277 277 277 277 276 275 275 274 274 274 274 274 273 273 272 272 272 271 270 269 268 268 268 268 267
293 293 293 293 291 290 288 287 285 284 284 283 283 283 282 281 280 280 279 279 278 278 278 277 277 277 276 276 277 277 277 277 277 277 275 274 273 273 273 272 272 272 272 271 271 269 269 268 267 266 266 265 264 265
293 293 292 292 288 288 287 286 286 285 286 285 285 283 280 278 279 279 279 277 277 277 277 277 276 276 275 274 274 274 274 274 273 273 272 273 273 272 271 271 271 270 269 268 268 267 266 266 266 266 266 265 265 264
292 292 289 288 286 285 289 288 288 289 285 286 285 283 281 280 280 279 278 278 277 277 276 276 276 275 275 274 274 273 273 272 272 271 270 269 268 268 268 267 267 267 267 266 266 265 265 265 265 265 265 264 264 263
290 283 281 281 286 282 280 281 287 286 285 285 284 282 280 278 278 277 277 277 277 277 276 276 275 274 273 272 272 272 271 270 270 269 269 269 268 267 267 266 266 266 266 266 266 266 265 265 265 265 264 264 264 263
284 281 280 280 281 283 280 278 280 282 280 279 280 278 276 278 275 274 275 276 275 274 273 274 273 273 272 271 271 270 270 270 270 269 268 268 267 267 266 266 265 265 266 266 265 265 265 265 265 265 264 264 264 263
281 279 280 279 277 281 279 279 276 277 276 276 275 273 272 272 272 273 276 273 272 271 268 270 271 272 271 271 270 269 268 269 269 268 266 267 267 266 265 266 266 265 266 266 266 265 265 265 265 264 264 263 263 263
278 277 280 278 281 279 275 275 277 276 274 275 273 269 270 271 270 274 274 272 273 271 272 272 272 271 270 268 267 268 268 269 269 267 266 266 266 266 266 266 265 265 266 266 265 265 265 264 264 264 264 263 263 263
276 276 275 270 271 273 269 269 270 270 275 276 272 267 269 269 274 273 272 270 271 271 271 270 271 270 269 268 267 267 267 267 267 266 266 266 265 265 265 265 265 265 264 265 265 265 265 264 264 264 264 263 263 263
273 271 271 266 268 269 270 268 272 274 273 270 267 269 272 272 268 270 270 270 271 271 269 268 267 268 268 267 268 267 267 267 268 263 263 264 262 265 265 265 264 264 264 264 264 264 264 264 264 263 263 263 263 262
272 271 268 264 267 270 266 268 267 266 268 269 272 272 270 269 269 270 270 271 271 270 269 269 269 269 268 268 267 266 267 267 267 266 264 264 265 265 264 264 264 264 264 264 263 263 263 263 263 263 263 262 262 262
272 269 268 269 269 270 266 261 264 265 262 264 263 266 267 268 270 270 271 271 271 271 270 268 268 269 268 268 267 266 266 266 266 266 266 265 265 264 264 263 263 263 263 263 263 263 262 262 262 262 262 262 261 261
266 266 269 270 270 267 264 261 261 264 261 265 264 259 262 265 265 267 268 269 269 269 270 270 270 270 269 269 268 268 267 266 265 265 265 264 264 263 263 263 263 263 262 262 262 262 262 262 262 261 261 261 261 260
269 267 269 270 270 269 267 267 268 267 264 265 264 260 260 264 266 266 268 269 270 271 272 271 270 269 268 267 266 266 265 265 264 264 263 263 262 262 262 262 262 261 261 261 261 261 261 261 261 260 260 260 260 259

GFSWCAN_925_thetae_078.txt.gz
Theta_e
297 297 297 298 299 300 301 301 300 300 300 301 301 301 298 299 299 297 298 297 298 299 301 302 303 304 305 306 306 306 306 305 306 308 308 308 309 308 308 309 312 312 313 314 313 314 315 314 314 314 313 313 314 315
297 298 299 300 301 300 300 300 300 300 300 301 301 300 298 299 299 298 297 298 298 299 302 302 302 303 304 304 305 305 305 306 306 307 308 308 309 309 308 309 308 312 311 313 312 312 313 315 313 313 314 315 315 316
298 300 300 300 300 300 300 300 300 300 300 300 300 301 299 298 298 298 298 298 298 299 300 302 302 303 303 303 303 306 305 306 307 306 308 308 308 307 310 309 308 310 311 313 313 312 311 312 313 313 312 312 313 312
300 299 300 300 300 300 300 300 300 300 300 300 301 301 299 298 299 298 298 298 299 299 303 303 301 302 303 303 303 303 304 305 306 306 307 308 308 308 309 308 309 309 309 309 310 310 311 311 311 311 310 310 310 308
299 299 299 299 299 299 299 300 300 301 300 300 300 299 298 298 299 299 299 300 299 303 303 303 302 302 303 304 304 304 304 305 307 308 309 309 308 309 310 310 309 308 309 310 310 311 310 310 310 307 308 308 307 305
299 299 299 299 300 299 300 300 300 300 300 300 300 299 298 298 299 299 297 299 299 300 302 303 303 303 302 303 304 305 304 305 305 307 308 309 308 310 310 309 309 308 307 306 308 306 307 308 308 305 305 303 302 301
299 299 299 300 299 300 300 300 300 301 300 299 299 299 297 296 298 300 301 297 299 299 302 303 303 303 302 303 305 305 305 305 305 305 308 309 309 308 310 310 303 299 299 300 298 299 306 303 302 301 300 299 297 296
300 299 299 300 300 300 300 299 300 300 300 299 299 297 298 299 299 301 298 299 299 300 302 304 304 305 302 304 306 305 306 306 306 306 306 309 308 309 309 298 296 295 296 298 295 296 297 299 298 295 294 293 294 292
299 299 299 299 300 300 300 300 300 301 299 298 297 298 298 297 299 300 298 299 299 301 302 301 305 306 304 304 303 303 303 306 304 306 307 308 310 306 294 293 292 292 292 293 293 296 296 295 294 293 291 290 290 289
299 298 300 299 299 300 299 299 301 299 298 298 297 298 297 300 299 299 299 300 301 301 302 304 303 304 304 304 304 305 303 308 308 306 304 308 296 291 290 290 289 289 289 289 291 293 292 293 292 291 290 288 288 286
298 297 300 299 298 298 299 298 298 298 299 299 300 300 300 299 300 301 302 303 301 302 300 302 302 304 300 307 305 302 307 306 308 305 308 303 297 291 289 288 287 287 287 288 288 288 288 288 289 288 287 285 284 282
297 295 296 299 299 299 299 300 300 300 300 300 299 296 295 296 301 302 303 302 303 303 301 304 302 302 300 302 307 304 306 305 306 299 303 299 291 288 288 287 286 286 286 286 285 285 285 285 284 284 283 282 280 279
295 296 297 294 299 299 299 298 299 298 297 294 294 292 295 292 296 300 301 301 301 297 297 301 303 302 302 303 305 305 305 302 298 299 295 291 288 287 286 286 285 284 284 283 283 283 282 282 281 281 280 279 278 278
294 295 292 291 298 298 297 296 295 294 292 292 293 291 293 292 292 292 294 294 293 293 295 298 301 301 299 299 297 301 296 297 299 297 292 288 286 285 284 284 284 282 282 281 281 280 279 279 278 277 277 277 276 276
292 293 293 291 290 291 295 295 294 290 288 289 290 290 290 288 288 288 288 291 289 289 294 299 298 298 296 295 294 296 296 294 292 292 288 285 284 284 284 283 282 282 281 281 280 279 278 278 277 276 276 275 275 275
295 294 291 290 290 290 290 291 289 287 287 286 285 290 288 290 289 288 288 290 288 289 294 296 296 295 293 291 291 291 293 292 288 286 285 284 283 282 282 281 281 281 280 280 279 278 277 277 276 276 275 274 274 274
296 297 295 289 289 288 288 287 286 286 285 285 285 284 284 286 285 285 285 286 286 293 295 294 294 292 291 290 288 286 287 286 284 283 282 281 281 281 280 279 279 279 279 279 278 277 277 276 276 275 275 274 273 272
297 296 295 293 289 288 286 286 286 285 284 285 285 284 284 283 285 285 285 286 290 290 290 289 288 289 289 289 287 283 282 281 280 280 280 280 279 278 279 279 278 278 277 277 277 277 276 276 276 275 274 273 273 272
296 294 293 293 291 290 288 286 286 285 285 284 284 284 284 284 283 284 285 285 285 285 286 286 285 285 284 284 284 283 283 282 281 280 279 277 278 277 277 277 277 276 276 276 275 274 273 273 274 274 274 274 273 272
293 295 294 293 291 290 288 287 286 286 286 285 284 284 284 284 283 283 283 283 283 283 282 282 282 281 282 282 282 282 281 281 281 281 280 279 277 277 277 277 277 276 276 275 274 274 274 273 272 271 272 272 272 271
293 293 292 292 291 290 289 288 287 286 286 286 285 285 284 284 283 283 282 281 281 281 281 280 280 279 279 279 280 280 280 281 281 281 280 279 277 277 276 276 275 275 275 275 274 272 272 272 271 270 270 270 269 268
292 292 292 291 291 290 290 288 289 288 288 287 286 285 285 285 284 282 281 281 280 280 280 280 280 280 279 278 277 277 276 277 276 276 275 276 277 276 275 274 275 273 273 272 272 271 270 269 269 269 268 268 268 267
292 291 291 291 292 292 290 289 291 289 289 288 286 285 284 283 282 282 282 280 279 278 278 278 277 277 277 276 276 275 275 276 276 275 274 273 273 272 272 272 272 272 272 270 270 269 267 266 266 267 267 267 267 266
289 285 288 291 292 290 289 289 289 288 288 288 286 284 283 283 281 282 281 280 279 278 278 277 277 277 276 276 276 275 274 274 273 273 273 273 273 271 271 270 270 269 270 269 269 268 267 266 266 267 266 266 266 266
290 284 287 287 288 288 288 288 287 287 287 286 285 284 282 282 282 282 281 280 280 279 278 277 277 277 278 276 275 273 272 273 274 273 271 271 271 271 270 269 269 268 268 269 268 268 266 266 266 266 266 266 266 265
285 282 286 286 287 288 287 287 286 286 285 284 282 280 280 282 282 282 281 280 279 278 277 278 278 277 276 275 275 274 272 271 272 272 270 270 270 271 271 271 270 268 266 267 267 267 267 266 266 266 266 265 264 265
284 283 282 279 283 284 284 284 284 286 285 284 282 280 281 282 281 278 277 277 278 276 275 275 275 276 274 272 271 270 269 269 270 270 268 267 267 267 269 269 269 267 266 265 266 267 267 266 265 265 265 265 264 264
280 279 281 277 277 278 279 280 281 281 281 279 280 278 279 279 279 278 277 274 274 273 272 272 272 272 271 270 269 268 267 267 267 267 267 266 266 265 265 265 265 265 264 265 265 265 265 265 265 265 265 265 264 262
278 277 276 272 275 275 275 276 278 276 276 277 277 277 276 274 273 274 273 273 272 272 271 270 269 268 268 267 267 268 269 269 270 270 270 271 269 267 264 264 264 264 264 265 264 264 264 264 263 264 264 264 263 262
277 276 275 273 273 275 274 273 274 272 273 274 275 274 274 272 271 271 272 272 273 273 271 271 269 271 270 271 269 267 267 267 267 268 270 270 268 265 264 264 264 264 263 264 264 264 264 263 263 263 262 262 263 263
276 276 275 275 275 274 273 271 272 273 273 274 275 275 274 273 272 269 269 269 269 269 270 269 268 269 269 269 270 269 269 266 266 266 266 265 264 264 263 263 263 263 262 263 263 263 263 263 263 263 263 263 263 261
276 276 275 275 275 274 272 275 276 276 276 276 275 274 273 275 275 272 267 268 270 271 270 271 271 270 269 269 268 267 267 266 265 265 265 264 263 264 263 263 263 263 262 262 261 261 261 262 262 262 262 262 261 260
277 277 277 277 276 276 275 276 277 277 276 276 274 272 272 274 274 271 268 269 270 271 270 270 270 269 268 267 266 266 265 265 264 264 263 263 263 262 262 262 262 262 262 261 261 261 261 261 261 261 261 260 260 259

GFSWCAN_925_thetae_081.txt.gz
Theta_e
294 295 297 298 299 299 300 300 300 301 300 300 300 300 300 299 298 298 297 297 299 301 300 301 302 304 303 306 308 307 308 307 306 311 310 310 311 310 309 310 313 313 315 315 314 316 315 312 313 315 317 315 315 315
295 297 298 299 300 300 300 300 300 300 300 300 300 300 301 300 298 298 297 297 297 301 300 299 300 301 303 304 305 306 306 307 307 308 308 309 312 310 310 311 312 315 311 313 311 312 314 316 315 315 315 315 315 315
297 298 299 299 300 300 300 300 300 300 300 299 300 300 301 301 300 298 297 298 298 300 299 301 302 302 302 304 304 306 306 306 308 307 310 311 311 309 311 310 311 311 311 314 316 315 314 314 314 313 313 313 313 312
298 299 299 299 299 299 299 299 299 300 300 300 300 300 301 300 300 299 297 298 298 299 300 301 299 299 302 303 304 304 304 305 307 308 310 310 311 308 310 309 312 310 312 310 311 311 311 313 312 311 311 311 310 310
300 299 299 299 299 299 299 299 299 299 300 300 300 300 300 301 299 300 297 298 298 301 303 301 303 302 301 303 304 304 304 305 307 308 310 310 309 310 309 310 311 310 312 312 313 312 313 312 310 309 309 308 307 307
299 299 299 299 299 299 300 300 300 300 300 300 300 300 301 300 299 298 298 298 299 299 304 305 303 304 303 303 303 305 305 305 306 305 307 309 308 310 311 311 309 307 306 305 306 304 307 308 305 303 303 305 304 303
299 299 298 299 299 300 300 300 300 300 301 300 300 301 299 298 299 299 301 300 299 300 303 304 305 304 303 304 304 305 305 304 305 306 308 309 309 309 311 311 303 302 302 302 301 302 306 303 302 299 298 298 298 295
298 299 299 299 300 300 299 300 300 300 300 300 299 298 299 299 298 300 299 299 299 300 302 305 306 305 304 306 306 305 304 304 304 305 307 309 308 310 309 299 298 297 299 300 298 297 299 299 299 298 297 296 296 293
298 298 299 300 299 301 300 300 300 300 299 298 298 298 298 298 300 300 300 300 300 302 305 305 306 309 304 305 304 305 303 305 304 306 308 309 309 305 296 295 295 294 294 295 295 297 297 296 296 296 295 295 294 292
297 299 299 300 299 301 300 298 297 298 297 297 298 298 297 301 299 299 299 300 301 302 303 304 306 307 305 306 306 306 306 308 309 307 308 310 298 293 292 292 292 292 292 292 293 294 293 293 293 293 291 290 289 288
294 298 299 298 300 299 298 297 297 297 299 300 301 300 299 299 301 302 303 303 303 303 303 304 305 306 303 305 305 306 308 307 309 307 309 307 299 292 291 290 290 290 290 290 289 290 289 289 289 290 289 287 285 284
294 297 298 299 298 298 298 297 298 300 301 301 298 297 297 299 303 304 304 303 304 305 302 303 304 303 302 301 306 304 308 306 309 304 308 303 292 290 289 289 288 287 287 287 286 286 286 286 286 286 285 283 282 280
291 295 298 299 299 299 299 299 299 299 298 297 297 295 298 297 302 305 303 303 303 300 300 302 304 303 302 303 307 308 309 306 301 305 299 294 290 288 287 287 286 285 284 285 284 283 283 282 282 282 282 281 280 279
292 291 295 295 296 299 300 298 296 293 296 295 297 294 298 298 296 296 298 298 295 296 299 301 303 304 303 302 303 303 299 301 303 303 296 291 287 286 286 285 284 283 282 282 282 280 280 280 279 278 278 278 278 277
294 292 293 290 292 294 296 294 292 292 293 293 294 295 293 292 292 291 292 295 293 294 297 303 302 302 300 299 298 299 300 299 298 296 291 288 286 285 285 284 283 283 282 281 280 279 279 278 278 277 277 276 275 275
295 295 291 290 289 289 291 293 291 290 290 290 290 294 292 295 293 292 293 294 291 293 297 300 301 300 297 297 297 296 299 297 292 288 287 286 284 283 283 282 282 281 281 280 280 279 278 277 277 276 275 274 274 274
296 298 291 290 290 290 290 291 289 288 289 289 289 288 290 290 290 290 290 291 290 296 298 299 299 295 295 295 293 290 291 289 286 284 284 283 283 282 282 281 280 280 280 280 279 279 278 277 277 276 275 275 274 273
298 296 291 289 292 291 289 289 289 289 288 289 288 288 287 288 289 289 289 290 293 294 294 292 293 293 293 293 291 286 285 285 284 284 283 282 281 281 281 281 280 280 279 279 279 278 278 278 277 276 275 275 274 274
297 296 294 293 292 292 291 289 290 289 288 287 287 287 287 287 287 287 288 288 288 289 290 290 289 289 288 287 286 286 285 285 284 282 281 280 280 279 279 279 279 279 279 279 278 277 276 276 277 276 276 276 275 274
293 292 291 291 292 292 290 290 290 290 290 288 288 288 287 287 287 287 286 286 287 287 286 286 285 286 285 286 286 285 284 284 284 283 282 281 280 280 280 280 280 279 278 278 277 277 277 276 275 275 275 275 274 273
293 292 292 293 292 291 291 291 290 290 289 289 288 289 288 288 287 287 286 286 286 285 284 283 282 281 281 282 283 282 283 283 284 285 283 281 280 280 279 279 278 279 279 278 277 276 275 275 274 273 273 272 271 270
294 292 294 292 292 291 291 291 291 291 290 290 288 288 289 289 288 286 286 285 283 283 283 283 282 282 281 280 279 279 279 280 279 279 279 279 280 279 278 278 278 277 276 276 275 274 273 272 272 272 272 271 271 270
293 294 294 294 295 292 290 292 292 291 291 289 289 288 288 288 286 286 285 282 281 281 280 280 280 279 279 278 278 278 279 279 279 279 278 277 277 276 276 276 276 276 275 274 273 272 270 269 269 270 270 270 270 269
289 289 293 295 293 291 291 291 291 291 291 290 289 288 287 287 285 287 285 283 281 280 280 280 280 280 280 280 280 278 277 277 277 276 276 276 276 275 274 274 273 273 273 273 272 271 271 269 269 270 269 270 270 270
293 287 291 291 292 292 291 291 290 290 290 289 288 288 286 286 287 287 286 283 282 282 281 281 281 282 282 280 278 276 275 277 277 276 275 275 275 274 274 273 272 271 271 272 272 271 270 270 270 270 270 270 269 268
289 286 290 291 291 292 292 291 290 290 289 288 286 285 286 288 288 286 285 284 283 282 281 282 282 281 280 279 279 277 275 275 275 276 274 273 273 275 275 274 274 272 270 271 271 271 270 269 269 268 268 267 266 267
289 287 285 283 288 288 290 289 290 290 289 288 287 286 288 287 286 283 282 282 282 280 280 279 279 280 279 276 274 273 273 272 273 273 271 270 270 270 272 273 272 271 269 269 269 270 270 269 268 268 268 268 268 267
284 284 284 283 283 285 286 287 287 286 286 284 286 284 285 285 283 282 281 279 278 278 277 277 276 276 275 274 273 272 271 270 269 270 270 270 269 268 268 267 266 266 267 266 268 267 268 268 268 268 268 268 268 266
283 281 279 277 280 280 280 282 282 280 280 283 283 282 279 277 278 277 277 277 276 276 275 274 273 272 272 272 272 272 272 273 273 272 272 274 273 270 268 268 267 267 267 267 265 266 266 266 266 266 267 267 267 266
281 281 279 277 278 279 277 278 277 277 278 279 277 276 276 275 275 275 276 277 277 277 275 274 274 274 273 273 272 271 270 270 270 271 273 273 271 269 268 267 267 266 266 267 267 267 265 265 265 265 266 266 266 266
281 281 280 279 278 277 277 276 276 278 279 280 280 279 277 276 274 273 274 275 274 274 274 273 273 273 273 273 274 272 272 269 266 266 267 267 267 267 267 265 266 266 266 266 266 266 266 266 266 266 266 266 265 265
281 280 279 278 278 277 277 280 280 280 280 280 279 278 279 279 278 275 272 274 275 275 274 275 274 273 272 270 269 269 268 267 266 265 266 266 266 265 265 264 264 264 265 264 265 264 264 264 265 265 265 265 265 264
281 281 281 280 279 280 279 282 282 281 281 281 279 278 279 280 278 275 269 270 273 275 274 273 271 270 268 268 268 267 266 265 265 264 264 264 264 263 264 264 263 263 263 264 264 264 264 264 264 264 264 263 263 263

GFSWCAN_925_thetae_084.txt.gz
Theta_e
294 294 294 295 297 298 299 300 300 300 300 299 300 300 300 300 298 298 297 297 298 300 299 300 301 302 303 303 306 307 306 307 306 309 311 309 311 312 312 311 313 313 315 315 314 315 316 313 313 316 318 316 315 315
293 294 295 297 298 299 300 300 300 300 300 301 300 301 300 301 300 298 298 297 298 299 299 299 299 300 301 303 303 304 306 307 306 308 308 309 313 314 311 311 312 314 312 313 312 312 312 316 317 315 315 315 314 313
294 295 297 298 300 299 299 299 299 299 299 300 300 301 300 300 301 299 297 297 298 300 299 300 300 300 301 301 303 306 305 306 307 308 310 311 312 310 313 311 312 314 312 315 314 315 316 316 313 312 312 312 311 311
295 297 299 300 299 299 299 299 299 300 300 299 300 300 300 300 301 300 297 297 297 299 299 300 299 299 300 303 302 304 305 305 306 306 308 311 313 310 312 311 311 312 313 313 314 314 314 312 311 310 309 308 307 308
297 299 299 299 299 298 299 299 299 299 299 299 300 300 299 300 301 301 296 298 297 300 301 301 300 301 301 301 303 304 305 305 305 305 306 311 309 311 311 311 313 312 311 315 316 309 310 308 307 307 307 306 305 305
298 299 299 299 299 299 300 300 300 300 300 299 300 300 300 300 301 295 295 298 298 299 302 306 304 302 303 301 303 304 306 305 304 304 307 309 308 311 314 312 307 306 305 304 304 303 307 305 302 301 302 302 301 300
298 298 298 298 299 300 300 300 300 300 300 299 300 300 300 301 297 299 301 299 298 299 301 304 306 303 303 304 305 306 305 305 304 305 307 308 310 310 311 312 304 301 303 300 300 301 304 301 301 300 299 299 299 296
298 297 298 299 300 299 300 300 300 300 300 300 300 300 300 297 298 299 302 300 299 300 301 303 305 306 305 306 306 305 305 304 304 305 307 308 309 310 308 300 298 297 299 297 297 299 300 299 298 298 297 297 297 294
297 298 299 299 299 300 300 300 300 300 300 300 300 299 297 298 299 301 299 299 300 301 303 305 306 308 305 306 304 304 303 304 303 305 306 309 308 300 297 296 294 294 295 295 295 298 295 296 295 295 294 292 292 291
296 299 299 300 300 299 300 300 299 298 298 297 298 298 297 301 299 299 299 299 301 302 304 305 306 307 306 306 306 305 305 307 308 307 307 308 297 294 293 293 292 292 292 292 293 292 292 291 291 291 290 288 288 286
297 299 299 299 298 298 298 298 298 298 299 300 300 300 300 300 300 301 301 304 304 305 304 305 306 306 304 307 307 307 306 307 308 308 308 307 298 293 291 291 290 289 289 289 289 288 288 288 288 289 287 285 284 282
298 298 298 298 298 297 298 299 299 300 300 300 298 298 299 301 303 304 304 304 304 304 303 305 305 305 303 302 306 304 305 306 308 305 307 300 293 290 289 289 287 286 287 286 286 286 285 285 286 285 283 282 281 280
298 299 298 298 298 298 298 299 298 297 299 298 298 297 300 299 304 305 303 305 304 302 302 303 302 302 302 303 302 304 308 307 304 307 298 293 289 288 287 286 285 284 284 283 283 282 281 281 281 281 280 280 278 278
298 299 299 299 299 298 298 294 293 296 296 297 299 296 299 298 297 296 298 299 296 298 300 302 303 304 302 303 303 303 301 303 305 304 294 289 287 287 286 285 284 283 282 281 280 280 279 278 278 278 278 277 276 276
294 295 295 295 298 299 295 293 294 294 293 294 296 296 294 293 294 295 295 296 295 297 300 303 303 302 301 300 300 301 301 301 297 294 290 287 286 285 284 284 283 282 281 281 280 279 278 277 277 276 276 275 275 274
293 293 292 293 294 295 295 293 292 292 292 291 291 295 295 296 295 294 296 295 294 297 299 302 302 301 299 299 299 298 301 297 292 289 287 285 284 283 282 282 282 282 281 280 279 278 277 277 276 275 274 274 274 273
296 297 290 289 290 291 292 293 291 290 291 291 290 291 293 292 292 292 292 293 294 298 299 301 299 297 297 297 293 290 290 288 287 285 284 284 283 282 282 282 281 281 281 280 279 279 278 277 277 276 276 275 274 273
297 289 289 291 293 292 292 292 291 291 290 291 290 290 289 291 291 291 290 292 295 295 295 294 295 293 293 294 290 287 286 286 285 284 284 283 282 282 282 281 281 280 280 280 280 279 278 278 278 277 276 275 275 274
298 294 291 292 293 293 292 292 292 290 289 289 290 290 289 289 289 289 290 290 290 291 292 291 290 290 289 288 287 286 286 285 284 282 281 281 281 280 280 280 280 280 280 280 279 278 277 278 278 278 278 277 276 275
294 293 291 292 294 293 292 292 292 292 292 290 290 289 289 288 289 289 289 290 289 288 287 287 288 288 287 287 287 286 285 285 284 283 283 282 281 281 281 281 281 280 279 279 279 278 278 277 276 275 275 275 275 274
293 292 293 294 293 293 293 293 292 291 291 290 290 290 289 289 289 289 288 287 286 286 285 284 284 283 283 284 284 284 284 285 285 285 283 282 281 281 280 280 280 280 280 279 278 277 277 276 275 275 274 273 272 271
294 294 294 293 293 293 293 293 292 292 292 290 290 291 292 291 289 288 286 285 284 285 284 283 283 282 282 282 281 281 281 281 281 281 281 281 282 280 279 279 279 278 278 277 277 276 275 274 274 273 273 272 272 270
294 295 295 294 294 292 292 293 293 293 292 290 291 291 291 290 287 288 285 283 283 283 282 282 281 280 280 280 280 280 281 281 280 280 280 279 278 278 278 277 277 277 277 275 275 273 272 271 271 272 271 272 271 270
291 292 295 295 293 292 293 293 292 292 291 292 290 290 290 289 288 288 286 284 282 282 281 281 281 281 281 281 281 279 279 279 279 278 278 278 278 276 276 275 275 274 274 274 274 273 272 271 270 271 271 271 271 271
294 289 293 293 294 293 292 293 292 292 292 291 290 289 288 289 290 289 287 283 283 283 283 282 283 284 283 281 279 277 278 279 279 277 276 277 276 276 275 274 273 272 273 274 273 272 272 271 271 271 271 271 270 270
290 288 292 293 293 294 293 293 292 292 291 290 289 288 289 291 289 288 286 284 284 283 283 283 283 283 282 281 280 278 276 276 277 277 275 274 275 276 276 276 275 273 272 272 272 272 271 271 270 269 270 268 267 267
291 289 287 287 290 291 292 293 292 292 291 289 289 289 290 289 287 285 285 284 284 282 282 282 282 282 280 278 276 275 274 273 274 273 272 272 272 272 272 272 273 270 270 270 270 271 271 270 270 269 269 269 269 268
286 287 286 286 287 288 290 290 290 289 288 288 289 287 288 287 285 284 283 282 280 280 279 279 278 278 277 276 274 273 272 271 271 272 272 271 271 270 269 267 267 268 267 268 268 268 269 269 269 269 269 269 268 268
285 283 281 280 283 282 283 285 285 282 282 286 286 283 280 280 280 280 280 279 278 278 277 276 275 275 274 274 274 274 275 274 275 273 274 275 274 270 269 269 269 268 269 268 267 267 266 266 267 267 267 267 267 267
283 283 281 280 280 280 280 281 280 280 280 279 278 278 279 279 278 278 278 278 278 278 277 276 276 275 275 275 274 273 272 272 271 272 274 273 271 269 269 269 269 268 267 268 268 268 267 267 267 267 266 267 267 268
284 284 282 280 279 279 279 281 282 282 282 280 280 278 277 276 275 275 277 277 277 277 276 276 276 275 275 275 275 273 273 269 267 268 269 269 269 269 268 267 267 267 267 267 267 267 267 266 267 268 268 267 267 266
284 282 281 279 279 280 281 283 281 281 280 281 280 279 280 280 278 276 275 276 276 277 276 276 275 274 272 271 270 270 269 268 267 267 268 268 267 266 266 266 265 266 266 265 266 266 266 265 265 266 266 266 265 264
284 283 281 280 279 281 281 284 283 283 283 282 282 282 281 281 279 275 272 273 276 276 275 273 272 270 270 270 269 268 267 266 266 265 265 265 265 264 265 265 265 265 265 265 265 265 265 265 265 264 264 264 264 263

GFSWCAN_925_thetae_087.txt.gz
Theta_e
292 292 292 293 294 295 297 298 298 299 300 300 300 300 299 299 299 298 297 296 297 297 297 298 299 300 301 302 301 304 302 305 304 304 305 305 304 308 310 311 313 310 311 311 311 311 312 314 315 318 317 315 313 312
291 292 292 294 295 297 298 299 299 299 299 300 300 300 300 300 299 299 298 296 297 297 297 297 298 298 299 301 303 303 306 303 305 304 305 305 306 309 311 314 313 312 310 311 310 310 313 314 314 313 313 311 311 310
291 291 293 295 296 299 300 299 299 299 299 299 299 300 300 300 300 300 298 297 297 298 297 296 297 297 298 300 301 304 304 305 305 306 307 308 308 309 312 311 314 311 312 311 311 314 312 310 311 309 308 308 307 306
291 292 294 296 298 299 299 299 299 299 299 299 299 299 300 301 301 300 298 297 297 298 298 298 298 297 296 298 300 302 303 304 304 304 305 306 308 309 310 311 311 313 312 313 314 311 309 308 307 308 307 305 305 304
292 294 296 298 299 298 299 299 299 299 299 299 299 300 299 300 300 300 297 297 297 298 298 298 298 299 299 298 297 302 303 303 303 305 304 305 308 309 309 311 311 307 307 311 309 305 308 305 302 303 303 302 300 299
293 295 297 298 298 298 298 299 300 300 300 300 300 299 300 300 300 298 294 297 297 297 300 300 302 302 300 300 299 301 302 302 302 304 304 305 307 309 310 310 304 302 300 300 302 302 304 301 300 299 300 299 297 295
294 297 297 298 298 298 299 299 300 300 300 300 300 299 300 299 300 298 298 297 297 297 299 301 300 302 302 301 299 301 303 304 302 304 305 305 307 308 306 306 300 299 298 297 298 302 300 299 299 297 297 297 294 292
296 298 297 297 298 299 299 300 300 300 300 300 300 300 300 300 299 299 301 298 297 298 299 300 301 302 302 303 303 303 304 304 303 304 305 306 306 305 301 296 295 295 295 295 296 295 295 294 294 294 292 292 291 290
297 296 298 299 299 300 300 300 300 300 299 300 300 300 299 297 297 299 300 298 298 300 300 299 300 304 303 303 302 303 303 303 302 303 304 306 300 296 296 294 292 292 292 292 293 291 291 291 291 291 290 289 288 287
296 299 299 299 299 301 300 299 299 300 300 299 298 297 296 300 298 299 299 300 300 301 301 302 302 304 305 302 304 302 300 304 305 303 306 298 294 293 292 290 290 289 289 289 289 289 288 288 290 287 286 285 284 283
298 299 299 299 300 299 299 298 298 298 299 298 296 298 299 300 301 300 299 299 299 300 301 302 303 304 303 304 304 300 302 304 304 305 306 300 294 292 289 288 287 287 287 286 286 285 285 286 286 284 283 282 281 280
298 298 298 298 298 298 298 299 299 299 299 299 298 299 299 301 302 303 300 302 301 303 302 303 303 303 301 301 303 303 303 303 306 303 305 295 290 288 287 285 284 284 284 283 283 282 282 282 282 282 281 280 279 278
298 298 297 298 298 298 297 296 298 298 299 298 298 298 300 298 302 299 301 302 301 299 299 301 302 300 300 301 302 302 304 303 298 300 292 289 288 286 285 284 283 282 282 281 280 280 279 279 279 279 278 277 276 275
298 298 298 298 298 297 293 294 296 296 296 296 296 291 296 296 295 296 298 298 296 298 299 299 300 301 300 300 301 300 299 300 305 295 287 287 285 284 284 283 282 280 279 278 278 277 276 276 275 275 275 275 275 275
298 298 298 298 298 294 293 293 293 293 293 293 293 294 292 293 294 294 295 295 294 296 298 300 297 298 299 296 299 298 300 296 293 286 286 284 283 282 283 283 279 278 276 277 277 276 275 275 274 274 274 274 274 274
295 296 296 299 298 298 294 294 293 292 291 289 290 294 294 292 292 292 294 294 293 295 296 297 297 298 296 299 297 292 296 288 286 285 284 281 281 280 280 280 280 280 279 278 277 276 275 274 274 274 273 273 273 272
295 294 291 296 298 295 293 292 290 290 290 290 289 288 290 288 290 289 289 290 291 294 295 298 297 295 296 293 288 287 285 284 284 283 283 282 281 280 279 281 281 280 279 279 278 277 276 275 275 274 274 273 272 272
293 291 290 292 292 292 292 292 290 290 290 290 288 287 285 289 289 288 288 290 292 293 292 292 292 288 286 290 286 285 284 284 283 282 281 278 279 280 281 280 280 280 279 279 278 277 277 276 276 275 274 274 273 273
291 292 292 293 294 293 292 292 290 290 289 288 289 287 288 288 288 288 289 286 287 287 288 288 287 289 287 285 284 282 280 279 279 276 277 280 280 280 280 280 279 279 279 279 278 277 277 278 278 277 277 276 275 273
293 292 293 293 293 293 292 291 292 290 290 289 289 288 288 288 288 284 285 286 286 286 285 286 285 285 285 285 284 283 280 280 280 280 279 278 281 280 280 281 279 279 278 278 278 277 277 276 275 274 274 274 273 272
293 293 294 294 293 293 292 291 291 289 290 289 289 289 288 287 285 284 284 285 284 284 283 282 281 281 281 282 282 281 282 281 284 281 278 280 281 280 280 280 279 279 279 278 277 276 275 274 274 273 272 271 270 270
294 294 293 292 292 292 291 292 291 290 290 290 290 291 291 287 284 284 284 283 283 284 281 280 280 280 279 278 280 281 281 281 281 280 280 280 279 277 278 279 278 277 277 276 275 273 272 272 273 272 272 271 270 270
295 296 295 294 290 288 291 293 292 292 290 289 290 290 290 286 286 285 281 282 282 282 281 280 280 280 279 280 281 281 281 280 280 279 279 278 278 277 276 275 275 276 274 274 273 272 271 271 271 271 271 271 270 270
292 291 292 291 290 291 290 291 291 291 290 291 290 289 288 286 286 284 283 282 279 281 280 280 280 280 280 280 278 278 279 278 278 277 277 277 276 275 275 274 273 273 274 273 273 272 271 270 271 271 271 271 270 271
289 286 287 288 290 288 288 288 290 290 288 289 288 286 284 287 285 283 281 280 280 277 278 281 281 282 280 276 277 277 277 278 277 275 275 276 276 275 274 273 272 272 272 273 272 272 271 271 271 270 270 270 269 269
284 283 288 290 290 289 290 287 288 289 287 286 285 285 284 284 282 283 283 280 281 279 276 280 280 280 279 279 277 276 276 276 276 274 273 273 273 273 274 272 271 271 271 271 271 271 270 270 270 269 269 269 268 268
285 285 287 287 290 291 289 290 290 287 285 284 283 283 282 279 279 283 283 281 280 283 282 282 282 279 276 275 274 274 274 275 274 272 272 271 271 271 271 271 269 269 270 270 270 270 270 269 269 269 269 269 269 268
284 285 281 285 283 285 286 284 285 284 284 286 283 279 279 278 280 281 282 281 280 278 277 277 277 276 275 274 273 272 271 272 272 272 271 270 270 269 269 268 268 268 268 268 268 268 268 268 268 268 268 268 268 268
282 282 279 277 279 279 279 281 281 280 280 282 277 276 276 280 280 280 279 278 277 276 275 274 274 274 274 274 274 273 273 273 273 267 266 267 269 269 269 269 268 268 268 268 267 267 267 267 267 267 267 267 267 267
281 282 279 276 276 277 278 280 276 276 277 277 278 279 278 278 278 278 278 278 277 276 275 275 274 274 274 273 272 271 271 271 272 272 268 267 269 269 269 268 268 267 267 267 267 267 267 267 267 267 267 267 267 267
284 281 278 277 276 277 280 280 279 278 277 277 275 275 274 275 275 276 278 277 277 276 276 276 275 275 274 273 272 270 268 268 268 269 269 269 269 268 267 267 267 267 266 266 266 266 266 265 266 266 266 266 266 265
281 278 275 276 277 277 281 277 275 278 277 275 273 272 272 273 273 274 274 276 276 277 275 275 272 271 272 272 272 271 270 267 267 268 268 268 267 266 266 265 265 265 265 265 265 265 265 265 265 265 265 264 264 264
279 277 277 276 275 276 278 280 279 280 278 279 279 280 276 274 273 272 273 274 276 275 274 273 272 270 270 269 269 268 268 267 266 266 266 266 265 265 265 265 265 264 264 264 265 265 265 265 264 264 263 263 263 262

GFSWCAN_925_thetae_090.txt.gz
Theta_e
292 293 292 292 292 293 294 295 296 297 298 299 299 300 299 298 298 298 297 296 295 293 295 296 297 298 300 302 302 302 299 303 303 304 305 305 302 306 308 308 310 311 311 310 308 311 311 313 315 318 314 311 311 311
292 293 291 292 291 292 294 295 297 298 299 299 299 300 300 299 299 299 298 296 295 295 295 296 296 296 297 299 299 301 303 304 304 305 303 304 302 301 307 309 312 314 310 310 308 308 311 310 310 309 309 309 308 308
293 291 291 291 292 293 295 297 299 299 299 299 299 299 299 300 299 299 298 297 296 296 295 295 295 296 296 298 299 298 301 303 304 302 305 307 307 306 306 309 311 308 309 312 312 312 309 310 307 307 306 306 303 302
291 290 291 292 293 295 296 298 299 299 299 299 299 299 299 299 300 299 298 297 296 297 296 297 297 296 296 297 299 300 301 303 303 302 304 304 304 307 311 311 309 309 310 308 313 310 308 306 305 305 303 300 299 297
291 290 291 292 294 296 298 298 298 298 299 299 299 299 299 299 300 300 300 297 296 297 296 296 298 298 298 297 296 299 299 301 301 302 302 304 303 307 307 307 305 302 303 307 306 303 305 303 301 301 300 298 295 294
290 291 292 294 296 297 297 297 298 298 298 299 299 299 299 299 299 297 294 297 297 296 299 300 298 300 298 298 295 296 302 299 300 300 302 303 304 305 307 307 301 299 299 298 301 298 299 299 298 297 298 295 293 290
291 293 294 295 297 297 297 297 298 299 299 300 300 300 299 299 300 298 297 297 296 296 298 298 299 299 299 298 297 298 300 301 302 302 303 304 305 305 302 299 297 298 296 297 294 299 297 295 294 294 294 293 290 288
292 293 295 297 297 297 298 298 299 299 300 300 299 300 299 300 299 299 300 298 297 295 298 296 295 299 301 300 300 298 299 301 303 303 303 305 305 301 295 294 292 293 294 292 292 292 292 292 292 291 290 290 289 287
293 295 297 297 298 299 299 300 300 300 300 300 300 300 299 298 298 300 299 297 297 298 299 297 294 297 301 300 301 302 302 303 302 303 302 304 296 295 293 291 289 289 289 290 289 289 289 290 289 288 287 286 286 285
295 297 298 299 299 300 300 300 299 300 300 299 297 295 296 298 298 298 298 298 298 300 298 300 297 302 301 302 303 302 301 304 304 303 301 295 292 290 288 287 287 287 286 287 288 287 287 288 286 285 284 283 283 282
296 298 299 299 299 299 299 299 299 298 298 298 298 299 299 298 298 297 298 299 300 299 297 297 301 303 299 303 302 298 303 303 305 305 305 297 293 289 286 285 285 284 284 283 283 283 284 284 284 283 282 280 279 279
297 299 299 299 299 299 299 299 299 299 299 299 299 298 298 299 301 299 299 298 298 299 299 299 302 302 300 301 302 302 302 303 305 303 295 290 289 287 285 284 283 282 282 281 281 281 281 281 280 280 279 278 277 276
298 298 298 297 297 298 298 298 299 298 298 298 297 297 298 294 300 292 299 301 302 299 300 301 301 300 298 301 300 301 302 299 300 293 289 288 286 285 284 283 281 281 280 279 279 279 278 278 278 278 277 276 275 273
298 298 295 295 293 296 298 297 298 298 296 295 292 286 289 285 289 289 296 297 296 298 299 296 300 301 299 299 300 300 296 298 300 286 285 285 284 283 282 281 280 278 277 276 275 275 274 274 273 273 274 274 273 273
298 298 298 295 293 294 294 296 296 293 291 291 290 288 286 289 290 294 293 295 294 296 298 299 297 296 296 294 297 297 299 286 287 284 284 282 280 282 281 279 276 275 273 274 274 273 273 273 273 273 273 273 273 273
298 298 298 298 296 296 293 291 291 291 289 289 289 291 290 287 288 291 292 292 293 294 296 295 294 292 293 295 291 289 291 285 281 278 280 279 278 278 277 278 277 277 276 276 275 274 274 273 273 272 273 272 272 272
298 296 297 297 294 293 293 291 290 289 289 288 287 284 283 283 285 289 289 290 290 293 289 291 290 291 292 287 284 284 280 280 282 282 280 277 276 274 276 279 278 278 277 276 275 274 274 274 273 273 272 272 271 271
294 296 297 292 293 292 292 291 288 288 289 287 287 286 279 281 285 284 287 286 288 290 290 290 289 286 282 285 282 281 282 281 280 278 277 277 278 278 279 277 279 278 278 277 277 276 275 275 274 274 273 273 272 272
290 292 292 293 293 292 291 290 288 288 287 284 285 284 284 283 284 284 283 284 285 286 287 286 285 285 283 282 281 277 274 275 279 275 272 277 279 279 279 279 279 279 279 278 277 277 276 276 276 275 274 274 274 272
292 293 293 293 293 291 291 290 289 289 288 286 287 286 286 284 284 280 284 285 285 285 283 282 281 280 280 276 274 278 277 277 278 277 273 274 280 280 279 278 278 278 278 277 277 277 276 275 274 274 274 273 272 272
293 293 293 293 292 292 289 289 288 288 288 287 288 288 286 285 283 281 282 284 282 282 280 278 278 280 279 278 281 281 280 279 276 276 275 277 278 280 279 279 279 278 278 276 275 274 274 274 273 272 272 271 271 271
293 294 292 292 290 290 289 288 288 287 289 288 288 289 283 279 278 280 283 281 282 279 277 278 277 279 279 276 278 280 279 280 280 280 280 279 275 275 277 277 277 275 276 274 273 272 272 273 272 271 271 270 270 270
295 294 293 290 285 285 288 290 289 289 287 287 288 287 283 281 284 283 279 281 280 278 278 278 279 280 279 280 279 279 279 279 276 277 277 276 275 275 275 276 275 274 273 272 272 272 271 271 271 271 270 269 269 270
292 290 287 285 286 286 284 286 289 289 288 289 287 286 284 283 285 280 281 278 278 279 278 279 279 279 280 279 277 278 277 277 276 276 276 275 274 274 274 273 273 273 273 272 272 271 270 270 271 270 271 270 270 270
287 284 285 283 284 283 282 281 285 286 283 284 283 283 282 284 280 278 277 278 276 274 276 279 279 279 276 273 275 275 278 277 274 273 275 275 274 273 272 272 272 272 273 272 271 271 271 271 270 270 270 270 269 269
282 280 285 282 282 285 284 283 282 283 282 282 281 283 281 278 277 278 280 276 272 273 271 276 279 278 277 276 274 275 275 275 275 272 272 274 274 274 271 270 270 270 270 271 271 271 270 270 270 269 269 269 268 267
280 280 285 286 288 288 285 285 287 283 280 281 280 279 275 273 274 279 278 276 277 280 281 282 279 277 274 273 274 274 275 275 275 273 271 271 271 271 273 271 270 269 269 269 270 270 270 269 269 269 269 269 269 268
282 281 280 279 279 281 279 279 279 279 278 282 279 275 274 274 277 279 278 277 278 279 278 277 277 276 275 274 273 273 272 272 271 271 270 269 269 269 268 268 268 268 267 268 267 268 268 268 268 268 268 268 267 267
275 278 278 275 276 277 278 277 276 277 278 277 272 272 274 278 276 277 275 275 277 278 274 273 273 273 272 272 272 272 271 272 271 265 263 262 267 268 268 268 267 268 267 268 267 267 267 266 266 266 266 266 266 266
278 278 275 272 272 274 273 274 271 268 273 274 277 278 276 275 276 276 276 276 275 273 274 273 273 273 271 271 270 270 271 272 272 272 262 262 268 268 268 268 267 267 267 267 267 266 267 266 266 266 267 267 266 266
279 275 272 271 272 274 272 273 276 274 268 270 267 269 271 274 275 276 276 276 275 274 274 274 273 273 273 271 271 269 267 269 270 270 270 269 268 268 267 267 266 266 266 266 266 265 265 265 265 265 265 265 265 264
270 269 270 273 274 273 272 268 268 269 267 267 267 263 268 268 270 271 274 275 275 275 274 274 274 272 273 272 272 272 272 269 268 268 268 268 267 266 266 265 265 265 265 265 265 265 265 265 264 264 264 264 263 263
270 269 267 270 272 273 273 273 271 273 268 269 270 269 270 268 270 270 273 275 276 275 274 274 273 272 271 271 270 269 268 267 267 267 267 266 266 265 265 265 265 264 264 264 264 264 264 264 264 263 263 263 262 262

GFSWCAN_925_thetae_096.txt.gz
Theta_e
293 291 291 292 292 292 292 292 291 292 293 294 294 296 297 297 298 298 297 295 294 289 291 293 293 293 294 298 299 297 295 300 300 302 303 304 303 304 306 305 307 306 307 305 307 309 307 308 309 311 309 304 305 306
292 291 291 292 292 291 292 292 291 292 293 294 295 296 296 298 299 299 298 297 294 294 292 294 294 294 295 297 295 295 299 302 302 304 304 304 304 301 305 307 306 306 309 310 307 306 308 306 306 303 301 300 299 301
292 291 291 292 292 291 292 291 291 292 293 295 296 297 298 299 299 299 298 296 294 295 296 293 295 296 295 295 295 294 295 298 300 300 301 304 305 304 303 302 308 306 304 308 307 308 307 305 301 301 299 298 295 295
291 291 291 291 291 292 292 291 291 292 294 295 297 298 299 299 299 299 298 295 296 296 295 294 295 294 295 295 295 296 296 299 301 300 301 303 301 301 304 306 305 302 301 301 307 303 303 301 300 298 296 295 292 290
291 291 291 292 292 292 291 291 291 293 294 296 298 299 299 299 299 300 298 297 297 297 294 294 295 297 296 295 294 295 297 297 299 302 300 299 298 302 303 302 299 299 298 298 302 298 300 298 297 295 293 291 290 289
291 291 291 291 291 291 291 290 291 293 295 297 298 299 299 299 299 300 294 296 297 297 299 297 296 297 295 294 294 295 296 298 300 300 301 301 300 303 304 295 297 295 294 293 295 296 295 294 293 292 290 288 286 285
291 291 289 289 290 292 291 291 291 293 295 296 297 298 298 299 299 298 297 296 297 297 297 298 296 295 295 294 293 293 295 297 298 301 300 299 301 303 299 294 294 294 293 292 291 294 295 290 290 289 289 287 285 283
291 290 290 291 292 291 291 292 293 295 295 297 297 297 298 298 299 298 298 297 297 296 297 297 293 295 297 296 296 294 296 296 298 300 299 301 301 298 296 291 290 289 291 289 289 289 290 287 285 285 284 285 285 284
290 290 290 292 291 291 292 293 294 295 297 297 297 298 298 298 295 298 298 297 296 297 299 296 292 291 297 297 298 297 295 295 294 300 299 301 296 291 291 290 288 287 286 286 287 286 287 285 284 283 282 282 283 281
290 290 291 291 290 291 293 294 295 297 298 297 298 296 293 292 298 297 295 295 295 296 297 296 290 298 299 298 299 299 297 293 300 298 295 295 286 287 286 285 284 284 283 284 286 285 285 285 283 281 281 280 279 279
290 291 291 291 292 293 295 297 299 299 299 296 293 295 296 297 297 295 296 297 297 299 298 296 296 298 297 297 299 297 299 300 302 301 301 293 290 287 285 283 283 282 282 281 282 282 282 282 282 280 279 277 276 276
291 291 292 293 293 296 298 299 299 299 296 296 297 296 297 297 297 299 298 298 298 297 295 298 298 300 297 298 301 299 300 300 302 297 294 287 286 285 284 282 281 281 280 280 280 280 280 279 278 277 276 275 274 273
291 292 292 294 296 299 299 299 299 298 297 298 296 295 298 294 298 295 298 298 291 297 297 301 301 299 297 297 300 300 300 300 294 291 289 286 285 284 282 281 280 279 279 278 278 277 276 275 275 275 274 273 272 271
292 294 298 298 299 299 298 298 298 298 296 293 294 293 293 287 289 287 291 293 294 298 299 299 300 300 298 299 298 299 294 296 294 287 286 284 283 282 281 280 278 276 275 274 273 273 272 272 271 272 273 273 272 271
295 298 299 298 299 299 298 297 295 293 290 289 289 286 288 285 287 292 294 296 295 297 297 295 294 295 291 292 289 292 293 290 287 286 279 280 279 279 278 277 274 273 270 271 271 271 271 271 271 271 272 272 271 271
296 297 296 298 298 298 297 294 291 290 288 286 285 288 288 290 291 292 293 294 293 296 294 292 292 291 290 290 291 290 294 289 282 275 278 280 279 277 275 275 273 273 273 272 272 272 272 272 272 271 271 271 271 271
295 295 294 296 291 293 292 290 290 288 286 286 283 282 277 279 288 289 289 290 289 294 293 290 291 293 290 287 286 282 280 277 278 278 272 273 275 273 271 273 274 274 273 273 273 273 272 272 272 272 271 271 271 270
294 293 295 293 293 291 289 288 287 287 287 285 284 282 281 282 287 286 286 286 291 291 289 289 289 285 281 286 280 277 275 273 272 273 270 268 272 274 276 274 275 275 274 274 274 273 273 272 272 272 272 271 271 270
293 293 292 292 292 291 288 287 287 286 284 284 284 284 282 280 283 284 285 286 285 285 284 282 281 281 279 275 272 272 275 274 278 275 273 273 276 276 276 276 276 275 275 275 274 274 274 274 274 274 273 272 272 271
294 293 294 293 292 290 289 287 288 287 286 286 286 286 285 284 283 280 283 284 284 283 280 279 277 275 275 271 270 277 271 275 277 277 276 274 275 277 277 277 277 277 276 276 275 275 274 274 274 274 274 273 273 271
292 292 292 292 291 290 288 288 287 287 287 287 288 287 285 283 282 281 282 282 280 279 278 274 279 278 272 274 276 277 278 278 274 275 274 276 274 277 277 277 277 276 276 275 275 274 274 274 273 272 271 271 271 271
292 292 291 291 289 288 287 286 287 286 288 288 288 286 283 279 278 279 281 279 278 275 273 277 279 274 277 275 276 278 278 278 277 277 278 277 275 274 275 276 276 275 274 274 274 274 273 273 272 271 270 270 270 269
293 292 289 287 284 284 285 288 286 288 286 286 286 284 281 279 281 281 278 279 276 275 275 277 277 277 276 277 278 278 278 278 275 276 277 276 276 276 276 276 276 275 273 273 273 272 271 271 271 270 270 269 269 269
291 285 282 281 285 286 280 281 288 287 285 284 284 283 282 280 281 278 277 275 275 278 278 278 279 278 278 278 276 276 277 277 275 274 275 275 273 272 274 274 274 274 273 273 271 271 271 270 270 270 270 269 269 269
286 282 281 280 280 281 278 276 279 283 280 279 280 280 280 281 277 274 277 275 276 276 276 278 278 277 275 271 274 275 276 277 274 272 273 274 272 272 271 272 272 272 272 272 271 271 270 270 270 270 270 270 269 269
282 277 283 278 279 282 280 281 278 278 277 278 277 277 275 276 276 277 278 274 271 272 271 275 275 275 274 275 273 274 275 276 276 273 272 273 273 274 271 269 270 270 271 271 271 271 270 270 270 270 269 269 268 268
279 278 282 281 284 284 279 279 282 278 276 277 275 275 273 275 273 275 275 272 273 276 278 278 277 276 274 273 274 274 275 275 275 273 272 272 272 272 272 271 270 270 270 269 269 269 269 269 269 269 268 268 268 268
278 278 282 275 274 277 273 271 271 273 275 280 279 271 273 272 274 273 273 275 277 277 278 277 277 277 276 275 274 274 273 272 271 270 269 269 268 269 270 270 269 268 268 267 267 267 268 268 268 268 267 267 267 267
273 274 275 271 272 273 274 272 273 276 277 275 270 270 273 274 271 271 274 274 276 278 274 272 272 274 273 273 273 273 273 272 271 264 264 262 267 268 268 267 267 267 267 267 267 267 266 266 266 266 266 266 266 265
274 274 271 267 269 272 270 270 270 268 272 271 273 273 272 272 273 273 274 275 276 275 274 273 272 273 270 271 269 269 270 271 271 271 266 264 269 269 268 267 267 267 267 266 266 266 266 266 265 265 265 265 265 265
274 270 269 269 270 270 268 266 269 267 262 264 261 266 269 269 273 272 273 273 273 273 272 270 270 272 272 270 271 270 270 271 271 271 271 270 269 268 268 267 266 266 266 265 265 265 265 264 264 264 264 264 264 263
266 265 269 270 271 269 266 264 264 265 267 267 268 262 263 265 266 269 271 272 272 271 271 272 271 271 272 272 271 271 271 270 269 269 268 268 267 267 266 265 265 265 264 264 265 264 264 264 264 264 263 263 263 262
263 262 262 266 270 270 268 267 267 269 265 267 268 262 259 264 269 267 271 272 274 274 273 273 272 272 271 271 271 270 269 268 268 267 267 266 266 265 265 265 264 264 264 264 264 264 264 264 263 263 263 262 262 261

GFSWCAN_925_thetae_099.txt.gz
Theta_e
293 293 293 292 290 292 293 292 292 293 291 292 293 294 293 296 297 298 296 295 294 293 292 292 293 294 294 297 298 299 298 301 303 304 305 305 305 305 306 306 308 307 308 308 308 308 308 307 308 310 306 302 303 302
292 292 292 292 291 292 292 292 293 293 291 291 292 293 294 295 296 298 297 295 295 294 294 293 294 294 294 295 297 296 299 299 302 301 301 302 305 304 304 307 306 310 309 309 308 310 306 304 303 301 300 299 299 300
293 292 292 292 291 291 292 292 292 293 291 291 293 294 294 295 296 298 298 295 294 295 296 294 296 296 295 294 294 296 297 299 300 300 300 302 305 304 305 306 307 305 301 305 305 304 300 301 299 298 296 293 292 293
292 291 292 292 291 291 292 292 292 291 290 291 293 294 296 297 298 299 298 295 296 295 296 295 295 294 295 295 294 294 296 298 300 300 301 301 301 302 304 305 304 301 300 299 304 300 301 297 297 295 293 292 290 288
292 291 291 291 291 291 291 291 292 291 291 293 294 295 298 298 299 300 299 296 297 298 296 295 295 296 296 295 294 295 295 296 299 301 302 302 300 301 304 301 299 298 297 299 300 297 297 296 294 292 290 289 287 287
291 292 291 291 291 291 291 291 291 290 291 293 294 296 298 299 299 300 294 296 297 297 299 297 296 296 294 293 293 295 295 297 299 301 302 302 300 302 304 301 297 295 294 293 295 295 293 291 291 290 289 287 285 284
291 291 291 291 291 291 291 291 291 290 291 293 295 297 298 299 299 298 298 297 297 297 296 298 297 295 294 293 293 295 295 298 301 300 299 301 301 302 301 300 295 294 292 291 290 294 293 289 288 287 287 285 283 282
291 291 291 291 290 290 289 290 292 290 292 293 295 296 297 298 298 298 298 297 297 295 297 298 296 296 295 296 296 294 296 296 298 299 300 301 300 299 299 292 290 289 290 289 289 290 288 286 284 284 284 284 284 283
291 291 291 291 290 290 291 292 291 291 292 294 295 296 296 297 298 298 298 297 296 296 299 297 295 297 297 298 297 297 296 296 296 300 300 301 298 299 293 290 288 286 286 286 287 287 286 285 283 282 282 282 282 281
291 291 291 290 290 290 291 291 291 292 294 295 295 296 294 294 298 298 296 295 295 296 297 296 292 300 300 299 299 298 296 298 299 298 297 299 293 288 287 285 285 284 283 284 288 285 285 285 283 281 280 279 279 278
291 291 291 290 291 291 291 291 291 293 294 294 292 295 295 297 297 295 296 298 298 297 297 295 295 299 298 299 299 298 299 299 299 300 300 296 294 288 285 284 283 282 282 282 282 282 282 282 281 280 278 277 276 275
291 290 290 290 291 291 291 292 293 293 294 294 296 297 297 296 297 298 298 298 297 298 297 297 296 297 298 298 299 298 299 299 300 299 298 294 288 285 284 282 281 281 281 280 280 280 280 279 278 277 276 275 274 272
290 290 291 291 291 292 292 293 294 297 296 297 297 295 297 295 298 299 297 296 296 295 296 299 299 298 297 298 300 300 299 300 296 298 297 288 285 284 283 281 280 279 279 278 277 277 276 275 276 275 274 273 272 271
290 291 291 292 292 292 293 296 298 297 296 295 296 294 296 294 293 290 294 293 292 295 298 298 299 298 297 298 300 302 298 297 298 296 294 286 284 283 281 280 279 277 275 274 274 273 273 272 270 271 271 271 271 269
291 291 291 292 293 295 298 297 296 294 290 291 290 290 286 286 286 292 295 297 296 298 297 298 296 297 296 298 294 294 297 299 296 295 285 283 282 281 279 277 275 274 272 272 271 271 270 271 271 270 271 271 271 270
292 292 297 297 298 296 295 293 291 290 288 287 285 287 288 291 293 293 296 295 294 295 294 295 295 297 295 294 296 297 298 298 291 283 281 281 280 278 277 276 273 272 272 271 272 272 272 272 272 271 271 271 271 271
295 294 298 297 296 293 291 290 289 287 286 285 284 283 281 286 290 289 290 291 290 296 294 293 293 295 291 290 291 288 292 285 280 280 279 278 278 275 273 273 272 272 272 272 272 272 272 271 271 271 271 271 271 270
294 295 298 297 294 291 288 288 288 287 286 285 285 284 281 284 288 287 287 287 291 292 291 292 291 291 292 294 289 282 278 277 277 278 277 274 274 273 274 273 273 273 273 272 273 272 272 272 272 272 271 271 270 270
294 292 294 293 292 290 289 288 287 286 286 285 285 285 283 284 284 284 286 286 285 286 287 285 287 289 286 280 279 277 279 280 279 277 274 272 275 275 274 274 274 273 273 273 273 273 273 273 273 273 273 272 272 271
293 294 292 292 291 289 289 288 287 287 287 287 287 287 285 285 283 282 284 284 284 285 284 283 282 279 280 277 276 280 276 278 278 278 276 274 273 275 275 275 275 275 274 274 274 274 274 274 273 273 273 273 273 272
292 292 292 291 290 289 288 288 287 287 287 287 287 287 285 284 283 283 283 282 281 280 280 277 280 276 272 272 277 277 278 279 278 279 278 277 273 275 274 276 276 276 275 274 275 274 274 273 272 271 271 270 271 270
292 291 291 290 289 287 287 286 287 287 288 288 288 286 285 283 281 281 281 281 279 278 276 279 277 277 278 277 276 278 277 277 276 276 276 276 276 276 275 275 275 274 274 274 274 273 272 272 271 270 270 269 269 269
291 291 288 287 285 284 286 287 287 288 287 288 286 285 282 281 282 281 280 280 278 276 276 277 276 276 276 276 277 277 278 277 276 275 275 275 275 276 275 275 275 274 273 272 272 272 271 270 270 270 270 269 269 269
290 284 283 282 285 286 281 282 288 288 287 285 284 283 282 281 280 279 280 277 277 278 278 278 278 278 278 278 277 277 276 276 274 274 275 275 274 272 274 274 274 273 273 273 271 271 270 270 270 270 269 269 269 269
286 282 282 279 280 281 279 279 281 283 280 279 280 280 281 281 279 277 280 278 278 278 278 278 279 279 278 275 275 275 276 276 275 273 273 274 272 272 271 272 272 272 272 272 271 271 270 270 270 269 269 269 269 268
281 280 282 281 279 282 281 281 278 278 278 278 277 278 277 279 278 279 280 276 276 276 275 277 277 277 276 276 275 274 275 276 276 273 272 273 273 272 271 271 271 270 271 271 271 270 270 270 269 269 269 268 268 268
279 277 282 280 282 283 279 278 281 278 276 278 278 276 277 278 276 276 276 274 276 276 277 277 277 277 275 273 274 274 274 275 276 274 272 272 272 272 272 271 270 271 270 270 269 269 269 269 268 268 268 268 267 267
277 278 282 274 274 276 272 272 272 273 276 279 278 272 274 274 276 274 274 274 275 277 277 277 277 277 276 275 274 273 273 273 271 270 270 269 269 270 270 270 270 269 268 267 267 267 267 267 267 267 267 267 266 266
273 273 274 270 272 272 273 271 274 276 276 275 272 271 273 273 271 271 273 274 275 277 273 272 271 274 273 272 272 272 272 271 270 268 269 269 267 268 268 268 267 267 267 267 267 267 266 266 266 266 266 266 265 265
273 273 271 266 269 272 270 270 272 270 272 272 273 273 272 271 271 272 273 274 274 273 273 273 273 273 270 270 268 269 270 271 272 271 270 269 270 269 268 267 267 267 266 266 266 266 266 265 265 265 265 265 265 264
272 270 269 270 270 270 269 267 266 267 265 267 263 268 270 270 271 271 272 273 273 274 272 270 270 272 272 270 270 269 269 271 272 272 271 271 270 268 267 267 266 266 266 265 265 265 265 264 264 264 264 263 263 263
266 264 269 270 271 269 266 264 263 266 267 269 269 263 266 269 270 270 270 271 271 271 271 272 271 271 271 271 271 271 271 271 270 269 269 268 268 267 266 265 265 265 265 265 265 264 264 264 264 264 263 263 262 262
262 261 262 267 270 269 267 267 268 269 266 267 268 262 262 266 270 269 270 271 272 272 272 272 271 271 271 271 271 270 269 268 268 267 267 266 266 265 265 265 264 264 264 264 264 264 264 263 263 263 262 262 262 262

GFSWCAN_925_thetae_102.txt.gz
Theta_e
294 294 293 293 293 291 291 293 294 292 293 292 291 293 294 294 296 297 296 295 296 298 299 296 297 298 298 299 300 301 304 303 304 305 305 306 307 308 308 309 309 309 310 310 309 310 313 305 308 311 306 301 301 300
294 294 293 292 292 290 290 291 293 291 291 292 291 292 293 294 296 297 297 296 295 296 299 296 296 296 297 297 299 300 300 301 302 303 302 304 306 306 306 308 307 311 308 309 307 307 302 300 299 297 297 297 298 299
293 293 292 292 292 291 289 291 292 290 292 292 290 291 292 293 295 296 298 295 294 296 297 298 300 299 297 297 297 299 300 301 301 302 301 302 306 305 306 307 307 306 304 307 307 301 299 299 297 295 294 294 293 293
292 292 291 292 292 291 290 291 292 291 292 291 290 292 294 294 295 296 297 296 295 296 299 300 297 298 297 296 297 297 298 301 301 301 302 303 304 304 304 305 306 304 303 301 305 302 299 296 295 295 293 293 293 291
292 292 291 291 292 291 291 291 292 291 291 291 291 293 293 295 297 298 298 297 296 298 301 300 299 299 297 297 297 297 297 298 299 301 303 303 303 303 305 304 304 300 299 302 302 297 298 296 294 292 291 290 289 290
291 291 292 291 291 290 290 290 291 291 291 290 292 293 295 297 299 297 294 296 296 297 300 301 300 299 297 297 297 297 298 299 300 301 302 302 302 304 305 305 298 296 295 294 297 295 293 292 292 290 289 288 288 287
291 291 291 292 291 290 291 290 291 291 291 290 292 294 296 297 298 298 300 299 297 297 298 301 302 299 297 297 297 298 298 301 302 302 301 302 302 303 304 304 297 294 293 293 293 294 293 291 290 289 288 287 285 284
290 291 292 291 291 290 290 290 290 291 291 291 292 295 296 296 298 298 298 297 297 296 296 301 301 300 297 300 300 299 300 300 300 301 300 302 302 301 303 296 294 293 292 291 291 290 289 288 287 287 287 287 287 285
290 291 291 291 291 290 290 290 290 290 291 292 293 295 296 295 296 297 297 297 297 297 301 299 302 303 299 299 298 298 300 301 300 301 301 302 302 303 298 296 293 291 291 290 290 288 287 286 286 285 285 285 285 283
289 290 291 291 291 291 290 290 290 291 291 292 293 294 295 295 297 297 296 297 297 297 298 300 299 301 300 300 301 299 301 301 300 300 300 301 301 292 291 291 290 288 287 288 289 289 288 286 285 283 282 282 281 280
289 290 291 291 290 290 290 290 292 291 292 294 294 296 296 298 297 298 298 299 298 300 298 299 300 301 300 301 301 301 300 300 300 302 301 301 301 292 288 287 286 286 285 286 286 285 284 284 284 282 281 279 279 278
289 290 291 291 291 291 291 290 291 291 293 294 295 296 296 297 298 300 300 300 299 301 299 298 298 301 301 301 302 300 301 300 300 301 302 303 293 288 287 286 285 284 284 284 283 283 282 281 280 280 279 278 276 275
290 290 291 291 291 291 291 291 291 291 293 293 296 296 297 298 301 301 300 300 301 300 299 299 299 299 299 300 300 300 300 301 301 304 304 298 289 287 286 285 284 282 282 281 281 280 279 279 278 278 277 275 275 273
290 291 291 291 290 290 291 291 292 292 292 294 298 297 300 299 301 301 301 302 301 300 301 300 300 300 299 300 302 304 302 301 303 303 304 292 288 286 284 283 282 280 279 279 278 277 276 275 273 272 272 271 271 271
290 290 290 291 291 291 292 292 292 292 291 296 296 301 297 297 295 296 298 298 299 300 301 300 300 301 300 302 301 300 301 303 302 304 295 290 286 285 283 281 279 277 276 276 275 274 273 273 273 272 271 271 270 270
291 291 291 291 292 292 292 292 292 290 290 290 291 293 293 296 296 297 298 298 299 300 302 302 302 302 302 302 300 302 303 304 301 292 289 286 284 282 281 279 277 277 276 276 275 274 273 273 274 273 272 271 270 270
290 290 291 292 292 292 291 291 290 289 290 290 291 289 292 297 296 295 296 295 294 302 305 301 302 302 297 300 301 298 302 294 288 288 287 285 283 280 278 276 275 275 276 276 275 275 274 273 273 274 275 273 273 271
291 295 294 292 293 291 289 289 290 290 289 290 292 290 289 290 292 292 291 292 297 298 297 299 297 297 300 302 301 292 287 287 287 286 285 282 279 278 278 277 276 276 276 275 275 274 274 274 275 277 275 274 273 272
294 293 293 292 292 291 291 289 290 290 289 289 289 288 289 289 288 288 289 288 289 291 293 293 297 299 298 291 291 289 286 286 285 283 281 279 278 277 277 276 275 276 276 276 276 277 277 276 276 276 276 275 275 275
292 293 293 293 292 291 290 290 289 291 291 290 289 289 289 289 287 288 288 287 288 290 293 294 294 290 290 286 286 287 287 285 283 283 282 280 278 277 278 278 279 278 277 277 277 276 277 276 276 275 275 275 275 275
292 291 291 291 290 290 291 290 290 290 290 290 289 289 289 288 289 290 289 286 290 288 291 286 286 282 279 281 284 283 283 284 285 285 283 281 279 280 278 279 278 279 279 279 278 277 276 276 275 274 273 273 272 272
292 291 290 290 290 290 290 289 290 289 290 290 290 289 291 291 290 288 285 289 287 285 284 285 283 281 282 282 282 283 281 281 281 280 280 279 280 280 280 279 279 279 279 278 277 277 276 274 273 272 272 271 271 271
292 291 290 290 290 291 290 289 290 290 292 290 289 290 289 289 286 285 287 285 284 281 281 282 281 282 280 279 280 280 280 281 282 281 280 281 280 280 279 278 278 278 278 276 275 275 274 271 271 271 271 271 271 271
289 286 289 290 291 290 289 290 290 290 290 290 289 289 288 288 285 287 289 285 282 281 282 281 281 282 281 281 282 280 280 281 280 279 279 279 279 278 277 277 276 276 276 275 274 273 272 272 270 271 271 271 270 270
292 286 288 288 287 289 290 290 289 290 290 289 289 288 288 286 289 289 289 284 283 283 283 282 282 283 283 282 280 279 278 279 279 279 278 278 277 275 275 274 274 273 273 274 273 273 272 271 270 271 270 270 270 270
288 284 288 288 289 291 290 290 289 289 288 288 287 286 287 289 289 290 285 284 283 283 283 283 283 282 281 281 281 279 278 278 278 278 276 276 276 277 276 276 275 273 271 272 272 273 272 271 271 270 270 269 268 268
288 287 285 282 285 287 288 287 286 288 288 288 287 286 288 290 289 283 280 279 282 281 282 282 281 281 281 279 277 276 275 275 276 276 273 272 272 273 274 275 274 273 270 270 270 270 271 270 270 269 269 269 268 267
283 283 287 282 282 282 283 283 284 284 284 283 285 285 287 285 284 279 278 277 279 279 278 277 279 278 277 275 274 273 272 272 272 271 271 270 270 271 271 271 270 270 269 268 267 267 268 268 268 268 268 268 267 265
281 280 281 277 279 279 279 280 281 279 278 281 283 281 279 276 275 275 275 276 277 278 277 275 273 272 272 272 272 272 272 272 273 274 275 274 272 269 268 268 268 267 267 267 267 266 266 266 266 266 265 266 265 264
280 279 279 276 277 279 277 276 278 276 276 276 277 277 276 275 273 272 275 276 278 279 277 275 274 274 273 273 271 270 270 271 272 274 275 275 273 269 268 267 267 267 267 267 267 266 266 265 265 265 265 265 265 265
277 279 278 278 278 277 276 274 274 275 276 276 275 278 277 276 274 272 272 272 273 273 274 273 273 273 273 272 273 272 272 271 272 272 272 271 270 268 267 267 267 266 266 265 265 266 265 265 265 265 265 265 264 263
277 276 278 278 278 276 275 277 277 278 278 278 277 276 275 278 277 274 269 272 274 275 273 274 273 272 272 272 272 272 272 271 271 270 270 269 268 268 267 266 266 265 265 265 265 264 264 264 265 264 264 264 263 262
275 276 276 278 278 278 276 277 277 278 278 278 277 274 273 276 276 272 269 270 271 273 272 271 271 271 271 271 271 270 270 269 269 268 268 267 267 266 266 265 265 265 264 264 264 264 263 263 263 263 263 262 261 261

GFSWCAN_925_thetae_105.txt.gz
Theta_e
295 295 295 294 293 292 292 293 293 294 292 292 292 292 293 295 296 297 298 297 298 301 301 300 300 300 301 302 302 302 305 305 305 307 306 307 309 308 309 308 309 311 313 312 312 311 315 301 307 309 304 301 301 300
294 295 295 293 292 292 292 292 293 293 292 292 291 291 292 294 295 297 298 297 296 299 300 299 300 300 300 300 301 301 301 304 304 305 305 305 308 308 308 313 308 311 308 310 307 306 300 299 298 297 299 299 298 299
294 294 294 292 293 292 290 290 291 293 292 291 292 291 292 293 295 296 297 297 295 297 299 301 302 301 301 300 299 302 302 303 304 303 303 304 308 307 308 308 308 307 306 307 305 301 300 299 297 297 297 296 295 296
294 294 293 292 293 292 290 292 290 292 292 291 292 290 291 292 294 295 297 296 296 297 301 303 299 301 300 299 300 300 301 301 302 302 304 304 306 305 306 306 307 305 305 303 303 300 299 297 296 296 294 294 295 294
293 293 293 292 292 292 291 290 291 291 291 292 291 290 292 294 294 295 297 297 297 299 304 303 301 301 300 300 300 300 299 300 301 302 304 305 304 305 306 305 305 302 301 304 304 299 299 296 294 294 294 293 292 293
292 292 292 292 291 292 292 290 290 292 291 291 291 292 293 294 295 297 295 296 297 297 299 304 302 302 301 300 300 300 300 300 301 301 303 304 303 304 306 306 301 298 297 297 298 295 295 294 293 292 292 291 290 290
292 292 292 292 291 291 291 290 291 291 291 291 290 292 293 295 296 297 300 299 297 297 299 302 303 300 300 300 300 300 300 300 302 302 303 303 303 303 305 305 299 296 295 294 295 295 295 294 293 291 291 290 289 288
292 290 291 291 291 291 290 290 290 290 291 291 291 292 293 296 297 298 300 298 297 297 298 302 303 302 300 301 301 300 300 300 301 302 302 303 304 303 303 300 298 295 294 294 294 293 292 290 290 289 289 289 289 288
291 291 290 291 291 291 290 290 291 291 291 291 292 294 295 295 294 298 298 297 297 299 301 300 303 305 301 302 301 301 300 303 302 303 302 303 303 304 302 299 297 296 295 294 292 291 290 289 288 288 288 288 287 286
290 290 291 291 291 291 290 289 290 290 291 292 293 294 295 294 297 297 296 297 298 297 299 301 302 304 301 301 302 301 302 303 304 302 301 302 303 297 297 297 295 293 292 292 293 292 290 289 287 286 285 284 284 283
289 290 290 291 291 291 290 290 290 291 291 292 293 296 298 297 298 298 299 300 300 299 299 301 303 304 302 303 303 302 302 302 302 303 302 303 302 296 293 292 291 290 290 290 290 289 288 288 287 285 284 282 281 280
288 289 290 291 291 291 290 291 291 291 292 293 296 295 295 297 300 301 302 301 300 301 302 300 302 303 303 302 303 302 302 301 302 303 303 303 295 292 291 290 289 288 288 287 286 286 285 284 284 283 282 280 278 277
288 289 290 291 290 290 291 291 291 292 293 293 296 298 298 299 303 301 301 302 303 303 302 301 303 302 302 302 302 301 301 303 303 303 304 300 293 291 289 289 287 286 285 285 284 283 282 282 281 280 279 278 277 275
288 289 290 291 290 290 291 291 290 292 292 296 297 301 300 301 302 303 302 305 305 303 303 302 301 301 301 301 306 303 304 303 304 304 305 296 291 289 288 286 285 283 282 282 281 280 279 277 275 274 274 273 273 272
289 290 291 291 290 290 290 290 290 292 292 296 298 302 301 302 301 302 302 304 303 304 305 303 301 301 301 302 301 303 303 304 304 305 299 293 289 287 286 284 282 280 279 279 278 277 275 275 275 274 274 274 272 272
290 290 291 290 290 291 290 290 291 291 291 294 293 297 297 300 298 301 299 302 303 304 304 302 303 302 303 304 302 303 304 305 306 298 293 289 287 286 284 282 280 279 279 279 277 276 276 275 276 276 274 273 272 272
290 291 290 290 290 291 291 291 290 292 293 293 295 293 296 303 303 301 302 300 302 304 306 303 304 303 303 303 303 304 306 300 295 292 290 288 286 284 281 280 279 279 279 279 278 277 277 276 275 276 277 275 275 273
291 291 291 290 291 291 289 290 292 292 292 293 295 294 293 294 297 296 296 299 301 302 302 303 302 302 304 305 306 299 294 292 291 289 287 286 283 280 280 279 279 279 279 278 278 277 277 277 278 279 277 276 275 275
290 291 291 291 291 292 292 291 292 293 292 291 291 292 293 292 292 294 294 294 297 298 299 299 304 304 304 298 298 294 292 290 289 287 285 282 281 280 280 279 279 279 279 278 279 280 280 278 279 278 278 278 277 278
291 293 292 292 292 293 292 291 292 293 294 292 292 293 293 293 291 292 293 291 295 298 299 299 300 296 296 292 294 292 291 290 287 286 285 283 280 280 279 280 281 280 280 279 279 278 279 279 278 277 277 276 276 277
291 291 291 292 292 292 292 293 292 292 292 293 292 293 292 292 294 295 294 292 297 298 298 293 292 287 286 289 289 288 288 287 288 288 286 284 282 282 282 282 281 281 281 281 281 280 278 279 278 277 276 276 275 274
293 292 293 292 292 292 292 292 293 293 293 293 293 294 294 296 295 294 291 295 295 292 291 291 288 286 287 287 286 287 286 286 286 285 284 283 284 283 283 282 281 281 281 281 280 280 279 278 276 275 275 275 273 273
292 293 293 293 293 293 291 292 293 293 294 293 294 294 294 294 292 290 294 293 290 286 287 287 286 286 286 285 284 283 283 285 285 284 283 284 283 283 283 282 282 281 281 280 278 278 277 275 274 273 274 273 273 273
290 290 293 293 293 292 292 293 292 293 293 293 294 293 293 293 290 293 296 293 287 286 285 285 285 285 284 283 285 284 284 285 284 283 283 283 283 282 281 280 280 279 279 279 277 276 275 275 273 273 273 273 273 272
294 289 291 291 291 293 293 293 293 293 293 293 293 293 292 291 295 296 295 290 287 287 286 285 286 286 286 286 284 283 283 283 283 283 282 282 281 279 279 278 278 277 276 277 276 276 276 274 274 273 273 273 273 272
292 288 292 292 292 294 294 294 294 294 293 293 292 292 292 294 295 297 291 289 287 286 286 287 287 287 286 284 283 282 282 282 281 281 280 279 279 280 279 278 278 276 274 275 276 275 275 274 273 273 272 272 271 269
292 290 287 285 289 291 292 292 292 293 292 292 292 292 293 295 296 288 284 285 286 285 285 285 286 285 285 283 282 281 280 280 280 279 278 276 276 276 278 278 277 276 273 273 273 273 273 273 273 272 272 272 271 270
287 287 290 287 287 288 289 290 290 289 289 288 291 292 293 291 289 282 282 281 284 284 283 283 284 283 282 280 279 278 276 274 274 274 273 273 273 272 272 272 271 271 271 270 270 270 270 271 271 271 271 270 270 269
287 285 285 282 285 285 284 286 286 283 282 286 289 286 284 280 278 279 278 281 280 280 280 279 279 279 278 278 277 277 276 276 276 276 277 277 274 272 271 270 270 270 270 269 268 268 268 268 268 268 268 268 268 268
284 284 284 282 283 284 281 281 281 280 280 281 281 280 279 277 276 276 278 280 282 282 281 279 278 278 278 277 276 275 275 275 276 277 278 278 276 271 270 270 269 269 269 270 270 269 267 268 268 268 268 268 268 268
282 284 284 284 283 281 280 279 279 280 280 281 282 282 280 278 276 275 276 278 279 279 279 279 279 278 278 276 276 275 274 272 272 272 273 272 271 271 270 269 269 268 269 268 268 268 268 268 268 268 268 268 267 266
283 283 283 283 281 280 280 282 282 282 282 282 281 280 280 282 280 277 273 276 279 279 278 278 278 277 277 276 274 274 274 271 271 270 271 271 270 268 267 267 266 267 267 267 267 267 267 267 267 267 267 267 266 265
282 283 283 282 282 282 280 282 282 282 282 282 280 280 279 281 279 275 272 272 276 277 277 275 273 272 272 271 271 270 270 269 269 269 269 268 267 267 266 266 266 266 266 267 267 266 266 266 266 266 265 265 264 264

GFSWCAN_925_thetae_108.txt.gz
Theta_e
296 295 295 294 294 293 293 293 294 294 293 292 293 292 293 295 296 298 299 299 299 301 301 301 301 301 302 302 303 302 304 305 305 308 306 307 308 307 312 309 310 309 313 311 312 313 311 300 304 305 302 301 301 300
295 295 295 294 294 293 293 293 293 293 293 292 292 292 293 295 295 296 299 299 299 299 301 300 300 301 301 301 302 302 302 304 305 306 305 305 309 310 308 314 308 309 308 307 305 305 300 299 299 298 299 298 298 298
295 295 295 294 293 293 292 292 293 293 293 293 292 292 291 293 294 296 297 298 297 298 299 301 303 302 302 302 301 302 305 304 304 303 305 306 308 306 308 310 309 307 306 307 305 302 300 299 297 296 297 297 296 296
294 294 295 295 293 292 292 292 291 292 293 292 292 291 291 292 294 295 296 296 297 297 300 303 301 302 301 301 301 301 302 301 302 303 305 305 307 305 306 307 307 305 305 304 302 301 299 297 296 295 295 295 295 295
294 293 294 294 293 292 292 291 290 291 292 292 292 291 291 291 292 295 296 296 297 299 302 303 302 302 302 301 301 301 301 301 301 302 304 305 305 305 306 307 306 303 302 303 302 300 299 296 294 294 294 293 293 292
294 294 293 293 292 292 291 291 291 292 291 291 292 291 291 292 293 296 296 297 297 297 298 302 303 304 302 302 301 301 301 301 301 301 303 304 304 305 306 307 300 298 297 298 298 296 296 294 293 293 293 291 291 290
292 293 293 292 292 292 292 291 291 291 292 292 291 291 292 293 295 297 299 299 298 297 299 301 303 302 301 301 302 302 300 301 302 303 303 303 304 304 306 305 300 297 295 296 296 295 295 295 294 293 292 291 290 289
293 293 292 292 292 291 292 291 290 291 292 291 291 292 292 293 295 295 297 298 297 297 299 301 303 303 301 302 302 301 301 301 301 303 303 303 303 304 303 302 299 296 295 294 294 294 293 292 292 291 291 291 290 288
292 292 292 292 291 291 291 290 290 291 291 291 291 292 294 293 295 298 298 298 297 299 301 300 302 305 301 303 303 302 302 303 302 304 303 303 304 304 304 301 298 296 296 295 293 292 291 290 289 289 289 289 287 285
290 291 291 291 292 291 291 290 290 291 291 291 293 294 295 294 297 297 297 297 298 298 300 302 302 304 302 302 302 301 302 303 304 303 303 303 303 300 300 299 298 296 294 295 294 293 292 290 288 287 286 285 284 283
291 290 290 291 291 292 291 290 290 291 292 293 293 295 297 297 296 296 298 300 299 300 299 301 303 304 302 304 304 303 303 303 302 304 303 303 302 298 296 294 293 292 292 292 291 290 290 289 287 286 284 283 281 280
290 290 290 291 291 291 290 289 290 292 293 294 295 296 297 298 298 301 302 301 300 301 302 301 303 304 305 304 304 303 303 303 302 304 304 303 297 295 294 292 291 290 290 289 288 287 286 285 285 284 282 280 278 277
289 290 290 290 291 291 291 290 289 292 293 294 294 295 298 299 302 301 302 302 303 306 304 304 305 304 303 303 302 302 301 303 303 304 303 300 295 293 291 290 289 288 287 286 285 284 283 283 282 281 279 278 276 274
289 289 290 291 291 291 290 290 290 293 293 296 298 299 300 300 301 302 303 305 307 306 305 305 303 302 303 302 303 301 304 303 303 303 305 297 294 292 290 288 286 285 284 283 282 280 278 277 275 275 274 274 273 272
288 289 290 290 290 291 290 290 290 292 292 296 297 300 301 303 302 302 306 307 306 306 304 303 301 302 302 300 300 301 303 303 303 305 300 294 291 289 287 285 283 282 281 281 279 277 275 275 275 275 275 274 273 272
289 289 290 290 290 290 290 290 291 291 293 295 295 297 300 302 300 301 304 305 306 305 304 303 302 302 301 302 302 302 303 304 306 297 293 291 289 288 286 283 281 281 281 279 277 277 276 276 277 276 275 274 273 272
289 290 290 290 290 290 290 291 291 293 294 294 296 295 295 298 303 301 300 303 304 304 304 303 304 302 303 303 302 304 307 301 295 293 291 289 288 285 283 281 280 281 280 279 279 278 277 278 276 276 276 275 274 274
290 291 290 290 291 291 290 291 293 294 294 295 295 296 295 295 298 298 300 302 304 303 303 303 303 304 304 304 305 300 296 294 293 291 289 287 284 282 281 281 280 281 280 280 279 278 278 277 278 279 278 278 276 276
291 291 290 290 291 291 293 292 293 295 294 294 293 293 295 295 294 297 298 300 300 301 301 301 304 305 306 301 299 297 294 292 290 287 285 283 282 282 281 280 280 280 280 279 279 280 280 279 279 279 279 279 279 279
291 291 290 290 292 293 293 293 293 295 293 293 294 293 294 295 294 295 296 296 298 299 301 300 301 298 297 295 297 295 293 290 287 286 284 283 282 281 281 281 282 281 280 281 281 280 280 280 279 279 278 277 276 277
291 291 291 291 292 292 293 294 295 294 293 294 294 293 294 293 294 295 295 295 298 301 300 296 293 289 289 291 292 291 289 288 289 288 285 284 283 282 282 283 282 282 282 282 282 281 279 280 280 278 277 277 276 275
291 290 290 291 292 292 293 293 294 294 294 293 294 295 295 296 296 296 295 298 301 296 295 294 290 288 289 289 289 289 289 289 288 286 285 284 285 284 284 283 283 283 283 282 282 282 281 279 278 277 276 276 275 275
292 293 292 291 293 293 293 293 294 294 294 295 295 295 295 296 295 294 297 297 292 290 291 290 288 289 288 287 287 287 287 287 287 286 285 286 285 285 284 283 283 283 283 281 280 280 279 277 275 274 275 275 275 275
293 292 295 296 294 293 294 294 294 294 294 296 297 295 295 295 293 295 299 295 290 289 289 288 288 287 286 286 286 286 286 286 285 285 285 285 285 284 283 283 282 282 281 281 279 278 277 277 275 275 275 274 274 274
295 291 293 293 293 294 294 294 294 295 295 295 296 295 294 294 296 297 298 292 289 289 288 288 287 287 287 287 286 286 286 285 285 285 284 284 283 282 281 280 279 279 278 278 278 277 277 276 275 275 274 274 274 273
294 290 293 294 294 296 295 295 295 295 295 295 295 294 294 295 297 298 294 291 289 289 289 289 289 289 288 286 285 284 284 284 284 283 282 282 281 281 281 280 278 277 276 277 277 277 277 276 275 274 274 273 273 271
294 292 289 288 292 293 294 294 295 295 295 294 294 294 294 296 298 289 287 286 288 287 287 287 288 288 287 285 284 283 282 282 282 280 279 278 278 279 280 280 279 276 275 275 275 274 274 274 274 273 273 273 273 272
289 290 291 290 290 291 293 293 293 292 292 291 294 295 295 293 289 284 284 283 286 286 286 286 286 286 284 282 280 279 277 277 277 276 275 274 274 274 274 274 274 273 272 272 271 271 272 272 272 272 272 271 271 270
289 287 286 286 288 287 287 289 289 286 284 288 292 289 285 281 280 281 281 283 283 283 283 282 281 280 280 279 278 278 277 277 277 277 278 276 275 273 272 271 271 271 270 269 269 269 269 269 269 269 269 269 269 269
287 287 286 285 286 286 283 283 283 282 282 283 282 280 279 278 278 279 280 282 282 282 281 280 280 280 279 279 279 278 278 278 278 279 280 279 277 273 272 271 271 271 271 271 271 270 269 269 269 269 269 269 269 269
286 288 288 286 284 282 281 281 281 282 283 284 285 283 280 278 277 277 277 279 282 281 280 280 280 280 279 278 277 276 275 273 274 275 275 274 272 272 271 271 270 270 270 270 269 270 269 269 270 270 270 269 268 268
286 287 286 285 282 281 282 285 285 284 285 284 282 281 282 283 280 277 275 276 281 282 281 280 280 279 277 276 276 276 274 272 272 272 272 272 271 270 269 268 268 269 269 268 269 268 268 268 268 268 268 268 267 266
286 286 285 284 283 284 283 285 285 284 285 284 283 282 281 282 279 276 274 274 278 279 277 276 275 274 274 273 272 272 271 271 271 271 270 269 268 268 268 268 267 267 267 268 268 267 267 267 267 266 266 266 265 264

GFSWCAN_925_thetae_111.txt.gz
Theta_e
296 296 295 295 295 294 294 294 294 294 293 293 292 293 294 296 296 298 299 298 300 298 299 301 301 300 300 300 298 299 298 300 299 303 304 305 307 308 311 309 309 308 310 306 307 308 306 299 301 303 303 300 300 300
296 295 295 295 294 294 294 294 294 294 293 292 293 292 293 295 296 297 299 299 298 297 297 298 298 299 300 301 300 299 301 303 302 299 301 303 307 305 307 309 307 307 307 304 303 302 300 298 299 298 297 298 297 297
296 296 295 294 294 293 293 293 294 293 293 292 292 292 292 294 294 297 298 298 297 294 295 298 302 302 302 301 302 300 303 302 302 301 299 304 306 305 305 306 307 307 306 303 303 300 299 298 296 296 296 297 295 293
297 295 295 295 294 293 293 293 293 292 293 292 292 292 291 292 294 295 296 297 297 296 299 301 301 302 301 301 302 301 301 301 300 299 301 303 303 304 305 306 303 304 302 303 301 299 297 296 296 295 294 294 293 292
294 294 295 295 294 293 292 292 292 292 293 293 292 292 291 291 293 295 296 297 296 298 300 298 299 302 302 301 301 301 301 299 298 298 298 301 302 302 303 305 302 299 300 302 300 300 297 295 294 294 293 292 290 290
294 295 295 295 293 292 292 291 290 292 293 292 292 291 291 290 291 296 294 297 297 297 297 298 301 303 302 302 301 301 301 299 298 299 299 300 303 300 301 299 299 297 296 298 297 296 295 294 293 293 291 290 289 288
293 294 294 294 293 293 292 291 291 292 292 292 292 291 290 292 293 296 295 298 298 297 298 298 300 301 301 300 300 298 299 298 298 299 299 300 301 302 295 297 298 296 295 295 295 295 295 294 293 292 291 290 288 286
294 294 294 293 292 292 292 291 291 291 292 292 291 290 292 293 293 294 295 297 298 297 297 300 298 300 300 298 299 298 298 298 298 299 299 300 300 300 299 299 297 296 295 294 294 293 292 291 291 290 289 288 286 285
293 293 293 292 292 292 292 291 290 291 292 292 291 291 293 293 294 295 296 297 298 298 299 298 300 295 300 301 299 299 299 300 298 297 300 299 297 297 300 298 296 295 296 293 292 292 291 289 287 286 286 285 284 282
292 293 293 292 292 291 292 291 290 292 292 291 292 293 294 294 296 298 297 297 297 298 298 300 297 298 299 299 297 299 299 297 298 300 299 296 296 299 299 298 295 294 293 293 292 291 289 287 285 284 283 282 281 279
292 293 292 292 291 291 289 290 291 291 291 292 293 294 296 296 297 296 296 298 298 299 297 297 299 297 299 296 298 299 295 296 297 298 296 296 299 296 292 291 291 290 290 289 288 287 288 286 284 283 281 280 278 277
291 292 292 292 291 291 290 290 291 292 292 293 293 295 297 297 297 299 298 299 298 298 297 295 297 300 297 300 298 298 298 295 299 296 295 293 297 294 291 290 289 288 287 286 285 284 284 283 282 280 279 277 276 275
290 290 291 291 291 291 290 290 291 292 293 294 294 294 296 296 299 298 300 300 295 297 297 296 300 301 298 297 294 300 299 294 295 294 297 295 294 291 290 287 286 285 285 284 283 281 280 280 280 279 277 276 274 273
290 290 290 290 291 291 289 289 291 292 292 292 295 297 296 296 294 295 296 297 296 298 298 297 295 296 294 297 297 299 298 298 300 296 297 295 292 289 287 285 283 281 280 279 277 277 276 275 275 275 274 274 272 271
290 290 290 290 291 291 290 290 290 292 291 294 296 297 293 294 299 298 297 297 297 297 297 295 295 295 298 299 298 298 300 299 296 299 297 292 288 284 283 282 280 278 277 276 276 275 275 275 275 274 274 273 272 272
289 289 290 290 291 291 290 290 291 291 292 293 294 295 296 299 299 298 297 300 297 295 293 295 296 299 299 299 299 299 299 296 297 295 291 288 285 283 281 280 279 279 278 276 276 275 275 275 275 275 274 274 274 273
289 289 290 290 291 290 291 290 291 292 291 293 293 292 293 294 298 298 297 298 298 295 298 295 295 299 296 298 300 296 293 297 293 291 289 287 283 280 279 279 280 279 278 277 277 276 276 277 276 275 274 275 275 275
289 290 289 291 291 291 290 291 291 292 293 290 291 295 292 293 296 296 296 296 298 296 296 298 297 299 293 296 292 293 294 292 290 289 287 285 281 279 279 279 280 279 278 278 278 277 278 277 276 276 277 277 276 276
290 290 290 291 290 290 290 290 292 293 289 291 288 290 292 291 290 293 291 295 296 297 294 294 297 295 295 298 298 294 291 287 287 286 284 282 280 280 280 280 280 280 279 279 278 278 277 277 278 280 279 278 277 278
291 290 290 290 290 291 292 292 292 293 292 290 290 291 292 292 290 293 294 293 294 296 298 295 294 295 295 293 292 293 289 285 284 283 282 281 281 280 280 280 280 280 279 279 278 280 279 279 279 279 278 277 276 276
291 291 290 290 292 291 292 293 293 293 292 292 292 293 292 291 292 294 294 294 295 297 298 293 291 289 289 292 291 289 286 285 283 282 282 281 280 280 280 280 281 280 279 280 280 279 280 280 279 278 277 276 276 275
291 291 290 290 291 292 292 292 294 292 292 293 293 293 293 295 295 295 293 295 296 295 291 287 285 285 286 285 289 288 287 287 286 283 282 281 281 280 281 281 280 281 281 281 281 280 280 278 277 277 276 276 275 274
291 291 291 290 292 292 291 292 294 293 292 293 294 295 294 295 293 292 292 294 289 287 288 286 287 289 287 288 288 288 288 285 284 283 282 282 283 283 283 282 282 283 282 282 281 280 278 277 276 275 275 275 275 274
291 292 292 292 292 288 291 294 295 295 294 295 296 295 295 294 292 293 294 289 285 287 286 287 286 286 286 286 284 286 286 285 284 283 284 284 283 283 283 283 283 281 282 280 279 278 277 276 275 275 274 274 274 274
292 291 292 294 293 292 294 293 294 294 293 294 294 294 293 291 294 294 294 290 284 283 286 286 286 285 284 282 285 286 286 284 284 284 285 284 283 282 281 280 279 279 279 278 278 277 276 276 275 275 274 274 274 273
295 291 292 294 294 295 294 294 294 295 294 292 294 292 291 294 296 295 291 289 289 288 288 287 285 284 284 285 283 283 285 285 285 283 282 283 282 280 278 276 276 276 277 278 278 277 277 276 275 275 274 273 273 273
293 291 289 288 290 293 292 293 294 291 291 293 293 293 294 295 294 287 284 283 286 288 288 288 288 287 284 283 282 283 284 284 282 279 279 280 280 281 280 278 278 276 276 276 276 275 275 274 273 273 273 273 272 272
289 289 290 291 291 290 292 291 291 289 290 289 293 294 294 288 283 280 280 283 286 285 284 285 285 283 281 280 280 280 279 279 279 278 277 276 276 277 277 277 276 275 274 273 273 272 272 272 272 271 271 271 270 270
289 288 286 286 287 286 284 286 287 284 283 286 290 284 281 279 278 279 280 282 283 282 281 280 280 279 279 279 279 278 278 278 276 272 270 268 272 272 272 273 272 271 270 270 270 270 270 270 270 270 269 269 269 269
287 288 285 285 284 284 282 282 280 279 280 280 279 278 277 277 278 278 278 280 282 281 281 280 280 279 278 278 277 276 277 278 277 277 273 271 274 272 271 271 271 271 271 271 270 270 269 269 269 270 269 269 269 269
287 288 286 284 282 281 279 279 282 281 280 281 277 274 275 274 278 277 277 277 281 280 280 280 279 279 278 277 276 275 273 275 276 277 277 275 273 271 271 271 270 271 271 270 270 270 269 269 269 269 269 268 268 267
287 287 283 280 280 279 280 283 284 281 281 277 276 275 276 277 274 275 275 276 280 280 280 280 278 276 277 277 276 276 275 273 273 273 273 272 272 271 270 270 270 269 269 269 269 268 268 267 267 267 267 266 266 265
286 284 281 280 279 280 280 283 283 283 284 282 279 279 276 274 273 274 274 275 276 276 275 275 275 275 275 275 274 273 272 272 272 272 271 270 269 268 268 268 268 268 268 268 268 267 267 266 266 265 265 265 264 263

GFSWCAN_925_thetae_114.txt.gz
Theta_e
298 297 297 296 296 295 295 295 295 294 293 293 292 292 295 296 296 298 298 299 298 293 295 300 300 300 299 298 296 297 296 298 298 300 301 302 305 308 309 308 308 308 308 304 306 304 304 298 299 303 300 299 298 298
297 297 296 296 295 295 294 294 294 294 293 292 292 293 295 295 296 298 298 298 298 295 294 298 297 297 299 300 297 297 302 302 299 297 302 301 304 304 305 305 306 305 303 303 303 301 298 297 298 297 296 296 294 294
297 296 296 295 295 294 294 294 294 294 293 292 293 292 294 295 296 298 298 297 296 291 293 296 300 302 301 299 300 298 298 300 299 298 300 302 304 303 305 308 304 305 303 300 300 300 298 297 296 295 293 294 291 290
296 296 296 295 294 294 294 294 294 294 293 292 292 292 293 294 295 296 296 296 296 296 293 300 300 301 301 301 301 301 299 299 297 296 298 302 302 302 304 305 300 301 301 301 300 298 297 296 295 294 292 291 289 289
296 295 295 294 294 293 294 294 294 293 293 292 292 291 292 293 294 295 296 296 296 297 298 297 298 301 301 301 300 301 300 297 295 297 295 299 299 301 300 302 299 298 299 302 300 298 297 296 294 292 290 288 288 287
296 294 294 295 294 293 293 293 292 293 293 293 292 291 291 292 293 295 290 296 296 297 296 295 297 301 301 301 300 300 299 297 296 297 297 297 300 298 298 300 298 297 297 297 298 295 295 294 292 290 288 287 286 285
296 294 294 295 294 293 292 292 292 293 293 292 292 291 290 291 293 294 292 297 297 297 297 295 299 300 300 300 299 296 297 296 296 297 297 297 299 299 290 296 297 296 296 295 295 294 294 293 291 291 287 286 285 283
294 294 294 294 293 292 291 290 291 293 292 292 292 291 291 293 292 293 295 298 297 297 297 296 295 297 299 296 296 295 296 295 296 296 296 298 297 297 296 297 296 295 295 294 293 293 292 289 287 287 286 284 283 282
293 294 294 294 293 292 291 291 292 292 292 291 291 292 293 293 293 293 296 297 297 297 297 297 294 293 297 300 296 297 297 296 295 295 297 296 295 299 298 296 294 295 294 293 292 291 287 286 285 284 283 282 281 280
294 294 294 293 293 292 291 290 291 292 292 291 292 292 292 293 295 297 297 297 296 297 297 299 293 298 297 295 294 297 296 294 296 296 296 294 298 296 298 296 294 293 292 291 291 289 286 285 284 283 281 280 279 278
293 293 292 292 292 292 291 290 291 292 291 291 292 294 294 296 295 296 296 298 297 297 296 297 295 294 295 294 294 295 293 293 296 297 295 293 298 294 291 290 289 288 289 287 288 288 286 284 282 281 280 279 277 276
293 292 292 291 291 292 291 291 292 291 291 291 293 295 296 297 296 298 296 297 296 297 293 293 294 297 293 296 295 296 296 292 298 294 295 291 292 291 290 288 286 286 285 284 284 284 283 282 280 279 278 277 275 275
293 292 292 291 291 290 290 291 291 291 292 294 293 294 295 295 297 297 298 299 292 291 292 293 295 299 296 293 290 296 297 291 292 297 294 293 292 290 288 286 284 283 282 281 281 281 280 279 279 278 276 275 274 273
292 293 292 291 290 290 290 291 292 293 292 289 293 294 294 295 295 292 295 293 292 291 294 292 292 299 295 293 293 291 291 296 299 296 295 289 291 288 286 284 283 281 280 279 278 278 277 277 276 276 276 274 273 272
291 291 291 292 291 290 291 291 292 292 291 291 294 292 294 291 291 295 296 294 291 293 294 293 292 292 292 298 298 295 300 301 296 293 290 289 287 284 283 281 278 276 275 275 275 275 274 275 274 274 273 273 272 272
290 291 291 291 291 290 291 291 291 291 290 290 291 291 295 297 298 297 296 298 289 291 289 292 294 292 297 295 298 297 298 294 291 289 283 285 284 282 280 279 277 276 276 275 275 275 275 274 274 274 273 273 273 273
289 289 290 291 291 290 290 289 290 290 289 291 291 292 293 293 296 297 296 297 296 294 290 293 291 294 294 297 298 298 291 288 293 288 282 283 281 279 277 277 277 276 275 275 275 275 275 275 275 274 273 274 274 274
289 288 290 291 291 290 290 290 290 290 291 286 288 292 290 292 294 295 291 295 297 296 293 296 294 296 291 295 289 289 291 290 289 286 279 280 278 278 278 276 277 277 275 275 276 276 276 276 275 275 276 277 276 275
289 289 291 291 290 290 289 290 291 291 287 290 288 290 286 286 289 291 290 292 295 296 293 291 295 291 289 292 288 290 291 288 287 285 279 279 278 278 278 278 278 277 276 277 276 276 277 277 277 277 278 278 277 277
289 290 291 290 290 291 290 289 291 291 289 287 286 286 287 287 288 291 290 290 294 296 298 296 289 293 288 286 290 286 284 284 284 283 280 276 278 278 278 278 278 278 278 278 278 278 277 277 277 278 278 278 276 276
290 290 290 290 292 291 290 289 290 289 289 288 289 290 288 289 290 286 288 292 293 296 296 286 286 280 288 288 289 286 284 284 283 281 281 279 278 278 279 279 279 279 278 278 278 278 279 279 279 278 277 277 276 276
290 290 290 290 290 291 290 292 292 289 289 290 291 291 288 289 289 287 289 292 293 293 287 284 282 281 284 287 286 286 285 284 283 282 281 279 279 278 279 279 279 278 278 278 278 279 279 279 278 277 277 276 275 274
290 290 289 289 290 291 289 292 293 291 290 292 292 292 290 289 290 291 288 292 285 284 286 286 287 288 287 288 288 286 285 283 281 280 279 280 280 279 279 280 280 279 279 280 280 280 279 277 277 276 275 275 274 274
290 290 289 289 289 289 289 291 293 293 292 292 292 291 291 289 292 291 291 286 282 283 284 286 286 284 286 286 283 284 284 284 281 281 280 280 280 280 281 281 281 281 281 282 281 280 278 277 276 275 274 274 274 274
288 289 291 291 290 289 289 290 292 292 288 290 294 290 290 289 288 290 293 290 286 278 279 284 284 284 282 279 282 284 284 283 282 280 282 282 282 281 280 280 280 281 281 280 278 278 277 276 276 275 274 274 274 274
291 287 288 289 285 288 288 286 285 287 288 292 291 288 286 290 293 293 288 285 287 283 283 283 284 282 282 284 281 283 284 284 283 281 280 282 282 279 277 276 276 277 278 279 278 277 277 276 276 275 274 274 273 273
288 287 288 288 290 293 288 288 290 286 285 289 289 290 293 294 294 283 281 282 283 285 287 287 286 285 282 280 282 283 284 284 284 280 280 281 281 281 281 279 277 277 276 277 277 277 277 276 275 274 273 273 272 272
289 289 289 290 289 289 286 286 286 287 286 287 290 292 293 288 281 278 278 281 282 285 286 285 285 284 283 282 282 282 280 280 280 279 279 278 278 279 279 278 278 276 276 275 275 274 273 273 272 272 271 271 270 270
286 287 287 286 286 284 283 284 283 283 282 285 285 282 280 278 276 276 279 280 281 282 279 278 277 279 278 278 278 279 278 279 278 273 270 265 271 273 274 275 275 274 273 272 271 271 271 270 270 270 269 269 269 269
287 287 285 284 284 283 281 281 281 279 280 279 278 277 276 274 276 276 278 280 280 279 279 278 278 278 277 276 275 276 277 277 278 278 270 267 272 272 272 272 271 271 271 270 270 269 269 269 269 269 269 269 268 268
286 287 284 282 281 279 277 276 279 278 274 274 270 270 271 272 276 275 276 278 280 280 279 278 278 278 277 276 275 274 274 276 277 278 278 276 273 272 271 271 271 271 271 270 270 269 269 269 269 268 268 267 266 266
284 283 280 278 278 276 277 277 277 273 272 269 270 266 268 269 270 272 274 277 279 279 278 278 277 275 277 276 276 276 276 275 275 275 275 273 272 271 270 270 270 270 270 269 269 268 268 267 267 267 266 265 265 264
281 278 277 276 274 275 273 277 277 279 275 274 274 272 268 266 270 272 274 274 276 276 276 275 275 275 275 275 274 273 273 273 272 272 272 271 271 270 270 269 269 268 268 268 267 267 267 266 265 265 264 263 262 261

GFSWCAN_925_thetae_117.txt.gz
Theta_e
298 297 297 297 297 296 296 295 295 294 294 293 293 294 296 297 299 298 298 298 297 293 295 299 300 299 297 296 295 296 294 297 296 298 301 301 304 306 309 306 307 304 305 304 305 303 304 297 299 302 299 297 298 297
298 297 297 297 297 296 296 295 295 294 293 292 293 295 296 296 298 298 298 298 297 294 294 298 298 298 299 298 296 297 301 299 298 296 300 299 301 302 304 304 304 303 301 302 301 300 297 296 297 296 295 292 291 294
298 298 296 297 296 295 295 295 295 294 293 292 293 295 295 296 297 297 297 297 296 291 293 296 299 300 299 298 299 297 296 299 298 296 298 299 302 301 303 303 304 303 301 300 299 299 297 296 294 292 291 289 289 290
297 296 296 296 295 295 295 295 294 293 292 292 293 295 295 296 297 297 297 296 296 293 297 300 299 300 301 301 300 300 298 297 295 294 297 298 300 301 303 303 300 299 300 297 298 297 296 295 293 291 289 288 288 288
297 297 296 296 295 295 294 295 294 293 292 292 292 293 294 295 296 296 296 296 296 295 294 296 298 301 300 300 300 300 299 295 294 296 294 298 298 300 299 299 298 297 299 299 298 296 296 295 292 289 288 287 286 286
296 296 296 295 294 295 294 294 294 293 292 292 292 292 293 294 295 295 291 296 296 296 292 295 295 298 301 300 300 299 297 295 294 296 296 295 297 297 297 298 297 297 297 297 298 296 295 294 289 287 286 285 285 284
296 296 295 294 294 294 294 294 293 293 292 292 291 291 292 293 294 293 292 297 296 296 293 291 299 300 300 299 298 294 295 294 294 295 296 296 297 296 289 297 297 296 295 295 294 293 293 292 288 286 285 284 283 281
295 295 294 294 293 293 293 293 293 293 293 292 291 291 291 292 294 294 296 297 297 296 295 294 295 297 297 295 295 293 295 294 294 295 294 297 296 295 296 296 296 295 295 294 293 292 289 288 286 285 284 283 282 281
295 295 294 294 293 292 292 292 293 293 292 291 291 293 293 292 292 293 297 297 297 296 297 290 294 293 295 297 295 294 294 291 293 294 296 295 294 295 298 296 294 295 295 293 290 288 287 286 284 283 282 282 281 280
295 294 294 293 292 291 290 292 293 292 292 291 292 291 291 292 295 296 296 296 295 297 297 297 291 300 296 293 292 293 291 293 295 295 294 293 296 295 295 296 294 293 291 290 288 287 286 285 284 283 282 280 279 278
294 294 294 293 292 290 291 292 292 292 292 291 291 293 293 296 296 295 296 297 296 298 296 296 294 293 294 293 293 292 292 292 297 296 295 292 298 291 291 290 290 291 290 289 288 286 286 284 282 281 280 279 278 277
293 294 293 293 291 291 292 292 292 291 291 291 293 295 296 296 296 296 295 297 297 296 293 294 294 295 292 294 294 294 294 291 297 292 296 292 288 288 288 288 286 286 286 286 286 284 283 282 281 280 278 277 276 275
294 293 293 292 291 290 291 292 292 291 292 293 294 294 295 295 296 294 293 297 296 290 290 291 293 298 293 291 289 295 291 290 290 298 292 291 288 288 287 286 285 283 283 282 282 282 281 280 279 278 276 275 274 274
293 292 292 292 291 291 292 292 292 293 292 289 289 294 294 294 292 292 294 293 291 289 291 291 296 296 292 293 289 290 290 294 296 295 294 288 289 287 286 286 284 281 281 281 280 279 279 278 277 277 276 275 275 274
292 292 291 291 291 291 292 292 293 292 291 290 293 294 294 290 290 295 294 296 294 289 291 292 291 292 289 293 295 290 294 297 294 292 288 283 286 285 284 281 279 277 276 275 277 276 276 276 275 275 275 274 273 273
292 292 291 290 290 292 292 292 292 291 290 290 290 290 292 296 296 295 296 298 293 288 288 292 292 289 291 291 296 295 295 291 290 285 282 284 284 282 281 279 278 277 277 275 276 276 275 275 275 275 274 273 272 273
291 291 291 291 291 291 291 291 290 288 290 291 290 285 284 292 294 295 296 296 292 290 289 292 291 293 293 293 293 294 289 287 285 291 278 280 282 279 277 276 276 276 275 275 275 275 275 275 274 274 273 273 273 273
290 291 292 291 291 290 290 290 289 289 290 286 287 286 287 291 293 294 293 294 296 295 293 295 292 294 292 296 289 286 291 288 289 286 276 274 277 278 278 276 276 276 276 275 275 275 275 274 274 274 275 275 274 274
291 291 291 290 290 290 288 289 290 289 286 284 283 288 289 286 288 291 291 292 294 295 293 292 291 291 289 286 285 282 291 282 286 284 274 277 278 278 278 277 277 276 276 275 275 275 275 276 276 276 277 276 276 277
291 291 290 290 290 290 289 288 290 291 289 287 287 287 287 287 289 289 289 288 294 296 299 295 290 286 286 284 283 283 280 281 283 284 280 274 277 277 277 276 276 276 276 275 276 276 276 276 276 277 277 277 277 278
291 291 290 290 289 290 289 289 289 288 288 288 289 290 288 288 286 287 287 290 289 292 295 286 284 280 283 287 287 286 284 284 281 282 280 277 276 277 277 277 277 277 276 276 276 277 277 277 278 278 278 278 277 276
290 290 290 290 288 289 289 290 291 288 288 289 290 291 286 288 288 284 288 286 287 287 289 285 282 281 282 283 285 286 285 284 283 281 280 278 277 277 277 277 277 277 277 277 277 277 278 279 280 279 279 277 276 275
290 290 289 289 286 286 285 291 291 290 290 291 292 290 289 284 287 290 286 288 285 282 284 284 285 287 286 287 286 285 284 283 280 279 279 279 279 278 278 278 279 278 277 278 278 279 279 280 279 278 277 276 275 274
289 288 283 284 286 286 288 291 293 291 289 291 289 289 292 290 291 289 287 284 282 281 282 285 286 283 285 286 282 283 283 282 280 279 279 279 278 278 279 279 280 280 280 280 279 280 279 279 277 276 276 275 274 274
286 286 289 289 288 287 286 287 289 292 287 288 290 288 290 289 286 287 290 285 282 279 278 283 284 283 281 278 280 283 284 284 280 279 280 280 279 279 279 280 280 280 280 280 280 280 279 277 276 275 274 274 274 274
287 286 290 289 288 289 288 288 288 288 289 290 291 289 285 283 287 288 286 279 284 285 279 277 279 282 282 282 280 282 283 283 282 280 280 281 281 279 276 276 277 279 280 280 280 278 277 277 276 275 275 274 274 273
290 287 287 288 290 291 287 286 288 285 285 285 285 287 287 288 290 281 279 279 279 282 284 286 286 285 284 281 281 282 283 283 283 281 280 281 281 281 281 280 278 279 278 278 278 278 277 276 276 275 275 274 273 272
286 287 288 288 289 288 288 286 287 288 285 285 288 292 289 289 283 276 276 279 280 281 283 285 285 285 283 281 282 282 281 281 280 279 278 278 278 279 279 279 278 277 276 276 276 275 275 275 274 273 272 271 270 269
286 286 287 286 285 284 283 285 285 283 281 283 283 278 275 277 274 274 277 278 280 281 280 279 277 279 278 278 278 278 278 278 278 276 272 270 272 274 275 276 276 275 275 274 272 271 271 271 271 270 269 269 268 268
286 286 285 284 285 284 280 279 280 279 279 279 278 277 276 274 275 275 276 278 279 278 277 277 277 277 276 275 275 276 277 278 279 279 274 270 274 274 274 274 273 271 270 270 270 269 269 269 269 269 269 269 268 267
287 285 283 282 281 280 279 278 279 278 277 276 274 275 276 275 275 274 275 277 278 278 278 277 277 277 276 276 275 275 275 277 277 277 277 276 274 272 271 271 271 271 270 270 270 269 269 269 269 268 267 267 266 264
284 283 281 281 280 278 279 279 278 277 275 274 273 270 270 268 268 270 273 276 278 277 276 277 276 274 276 276 276 276 276 275 276 275 274 272 271 271 271 271 271 270 270 269 268 268 267 267 267 266 265 264 263 262
279 278 278 276 276 277 275 276 277 276 271 271 271 268 263 265 269 270 272 273 274 276 275 274 274 274 275 275 274 273 273 273 272 272 271 271 270 270 270 270 269 269 269 268 267 267 266 266 265 264 263 262 261 260

GFSWCAN_925_thetae_120.txt.gz
Theta_e
298 298 297 297 297 296 296 296 296 295 293 293 293 295 297 299 298 298 297 297 298 295 295 298 299 297 296 295 294 294 293 295 295 297 300 301 303 305 305 305 305 302 304 304 306 304 304 297 299 301 299 296 296 292
298 298 297 297 297 296 296 296 296 294 293 292 293 296 296 298 298 297 297 297 297 294 295 298 298 298 299 297 295 295 297 298 297 294 296 298 301 300 303 301 302 303 300 301 300 299 296 294 295 294 291 291 292 292
298 297 297 297 297 296 296 295 295 294 293 292 294 296 296 298 298 297 297 296 296 293 295 297 299 299 298 299 299 297 295 297 296 294 298 295 301 300 303 302 304 302 300 299 299 297 295 293 291 290 289 289 290 288
298 297 297 297 297 296 296 295 295 293 292 292 295 296 296 297 297 297 297 296 296 293 298 299 299 299 300 298 299 299 297 296 294 293 296 297 299 299 301 301 299 298 298 297 298 297 295 292 290 289 288 288 287 286
298 297 297 297 296 296 295 295 294 293 292 293 295 295 296 297 297 297 296 296 297 296 295 297 298 299 300 300 300 299 298 294 293 295 294 297 297 299 298 297 298 297 298 298 293 295 294 293 289 288 288 287 286 284
298 298 296 296 296 295 295 294 294 293 293 293 294 295 295 296 296 296 292 296 296 296 294 296 295 299 300 299 299 298 296 293 293 295 295 295 295 296 294 294 297 297 297 297 297 295 293 290 287 286 286 285 284 283
297 296 296 295 295 295 295 294 293 293 292 292 293 294 295 295 295 293 293 296 296 296 291 293 300 299 299 298 296 293 294 292 293 294 296 295 296 294 288 295 296 295 295 295 293 292 291 289 287 285 284 283 282 281
297 296 296 296 295 295 294 294 294 292 292 293 292 293 294 295 295 296 296 296 296 296 292 293 298 300 297 295 295 292 294 293 293 294 293 297 295 294 295 295 295 295 294 294 293 292 290 286 285 283 282 282 281 281
296 295 294 295 294 295 294 293 293 292 292 291 291 291 292 293 292 296 297 296 297 295 292 288 298 298 294 294 293 293 292 290 291 291 296 295 293 296 296 295 294 294 295 292 289 287 286 285 284 283 282 281 281 280
295 294 294 294 294 294 293 293 293 292 291 292 292 291 286 293 296 296 296 292 291 296 294 292 290 293 294 292 292 291 289 292 295 294 293 292 293 294 295 294 294 292 292 289 288 287 286 285 284 283 282 281 280 279
294 294 293 293 293 292 293 293 293 292 291 291 290 293 293 295 295 295 295 293 293 296 295 294 293 293 293 293 292 291 292 291 295 295 296 292 297 292 291 293 293 290 290 288 288 287 286 285 283 282 280 279 278 277
295 294 293 292 291 292 293 293 292 291 291 292 294 295 296 296 296 294 295 297 296 296 293 294 293 294 291 292 294 293 293 290 296 290 296 295 289 289 289 290 291 289 289 288 287 285 284 283 282 281 279 277 277 276
294 293 292 290 290 293 293 292 291 291 294 294 295 294 292 294 292 291 296 297 297 291 289 291 292 297 290 290 288 294 289 290 289 297 291 291 287 288 287 286 286 285 286 285 283 283 282 281 280 279 277 277 275 274
294 293 291 291 292 292 292 291 291 292 292 290 290 291 288 292 291 292 294 292 290 288 290 288 291 293 289 292 286 290 288 290 286 289 292 287 287 287 286 286 285 283 282 282 281 280 280 279 278 278 277 276 275 274
293 292 291 291 291 292 292 292 292 292 291 290 290 294 294 288 290 293 291 295 293 287 290 290 290 291 286 290 289 288 290 291 291 290 287 283 284 285 283 282 279 278 277 277 278 277 277 277 276 275 275 275 274 273
293 293 293 291 291 292 292 292 292 291 290 288 289 289 290 294 295 295 296 297 291 287 288 291 290 288 290 290 292 289 293 290 289 285 282 281 283 282 280 279 278 278 278 276 277 277 276 276 275 275 274 273 273 273
291 293 291 292 292 291 291 291 290 289 289 289 287 288 290 289 291 295 296 296 289 293 294 290 289 292 291 290 292 290 287 286 283 283 284 278 280 279 277 278 277 277 276 276 276 276 276 275 274 273 272 273 273 273
292 292 291 292 291 290 290 290 289 289 290 285 287 289 285 287 292 293 293 293 295 295 295 294 291 292 286 290 286 286 280 285 285 288 276 273 276 279 279 277 277 277 276 276 276 275 274 274 274 274 275 274 274 274
292 291 291 291 290 290 288 289 289 289 287 285 283 286 288 289 289 290 291 292 293 293 293 290 290 289 288 286 285 279 284 290 287 282 273 275 278 278 278 278 277 276 276 275 275 274 274 275 276 276 275 275 276 276
291 291 290 290 290 290 289 288 289 290 289 286 287 287 287 286 288 289 290 290 295 296 298 295 289 286 286 284 283 283 281 280 281 284 283 273 276 277 277 276 276 276 275 275 275 275 275 275 276 276 276 276 277 278
290 290 290 290 290 289 288 289 289 288 288 287 288 290 288 290 286 284 285 290 293 294 294 290 288 282 282 283 285 286 283 284 281 282 280 274 275 277 276 277 277 275 275 274 274 275 276 277 278 277 277 277 278 278
289 290 290 290 288 289 289 289 289 287 287 289 289 290 289 288 288 288 287 288 288 286 286 284 285 281 281 283 284 285 285 285 283 280 279 278 276 275 275 276 275 275 275 275 276 276 277 277 277 278 278 278 278 277
290 290 289 288 284 285 284 290 290 289 289 291 292 290 290 287 286 288 289 289 284 281 282 283 284 286 285 285 285 284 284 283 280 279 279 279 278 278 277 277 277 276 275 277 278 278 278 278 278 279 278 277 276 276
289 288 285 282 283 282 285 290 291 291 289 291 290 288 290 291 292 291 291 282 280 280 283 284 285 282 285 285 280 282 282 282 280 279 279 278 277 277 278 278 278 279 279 279 278 278 278 279 279 277 277 276 276 274
285 282 281 280 287 288 286 287 290 290 284 288 287 287 288 289 287 289 287 281 281 282 281 282 283 282 281 277 279 282 283 283 280 277 279 279 278 278 278 278 279 279 279 279 278 279 279 279 278 277 276 275 274 274
281 282 288 285 288 288 284 282 283 285 282 286 289 286 284 283 288 289 285 281 278 284 284 284 285 285 284 283 281 281 282 282 282 279 279 280 279 278 276 275 277 279 280 280 280 279 279 277 276 276 275 274 274 273
284 288 286 287 289 289 287 286 287 284 285 286 285 287 288 287 285 281 279 278 277 280 280 283 285 285 284 281 281 282 282 282 282 281 279 280 279 279 280 280 278 280 279 279 279 279 279 277 276 275 274 273 273 272
285 287 287 287 288 288 289 288 289 289 288 286 288 288 288 283 282 274 275 278 278 279 280 281 283 283 282 281 280 280 279 279 279 278 278 278 278 278 279 280 279 278 278 277 277 277 276 276 275 274 273 271 270 269
285 286 287 286 285 285 285 287 288 284 282 284 286 283 277 275 273 273 275 276 278 279 278 277 276 278 278 277 277 278 277 278 278 275 274 271 272 274 275 276 276 276 275 274 273 272 272 272 271 271 269 269 268 267
285 285 285 284 286 284 278 279 277 275 277 278 277 276 274 274 274 274 275 276 277 277 276 276 276 276 275 275 274 276 277 279 280 279 274 273 274 274 274 274 273 272 271 271 270 269 269 269 269 269 268 267 267 266
286 284 283 282 282 278 278 278 279 277 275 274 273 275 275 274 274 273 274 275 277 277 277 276 275 276 276 275 275 276 275 276 277 277 277 277 274 273 272 271 271 270 270 270 269 269 269 269 268 268 267 266 264 263
284 283 282 281 280 279 279 280 279 279 276 277 276 274 273 274 275 272 272 274 276 275 274 275 275 273 275 276 276 276 276 274 274 274 274 273 271 271 271 271 270 270 269 269 268 268 268 267 266 265 264 263 262 261
280 279 279 279 279 279 278 279 278 277 274 276 274 272 270 271 273 270 270 271 272 273 273 273 273 273 274 274 274 273 273 272 272 271 271 271 271 270 270 270 269 269 268 268 267 266 266 265 264 263 262 261 260 259

GFSWCAN_925_thetae_123.txt.gz
Theta_e
299 298 298 298 298 297 296 297 296 294 293 293 295 297 298 298 298 299 296 297 298 297 297 298 298 298 297 296 297 296 297 298 298 301 303 303 306 306 306 304 305 303 305 304 306 306 306 296 300 302 299 296 294 292
298 298 297 298 297 297 296 297 296 294 294 293 295 296 298 298 297 297 297 296 298 297 297 297 297 298 297 296 297 297 298 299 299 300 300 301 305 303 305 304 302 303 301 302 301 300 296 294 295 294 295 295 293 291
298 298 297 297 297 297 296 296 295 294 293 293 295 296 298 298 297 297 296 296 298 297 298 298 299 298 298 298 299 299 297 298 298 296 300 301 304 302 305 303 303 302 300 299 299 297 295 293 291 291 292 293 291 289
298 298 297 297 297 296 296 296 295 293 292 294 295 296 298 297 297 296 296 296 297 296 300 300 298 298 298 298 299 298 297 295 295 296 299 300 304 301 304 302 302 300 299 299 298 297 294 292 291 290 289 288 287 286
299 298 297 297 297 296 296 295 295 293 292 295 296 296 297 297 296 296 296 296 297 297 300 300 297 298 299 300 299 298 296 296 296 298 299 301 300 301 301 299 300 298 298 299 299 297 296 293 290 289 289 287 286 285
298 298 297 297 296 296 296 295 294 293 293 295 296 296 296 296 296 296 294 296 296 296 298 301 295 299 298 299 297 296 296 295 296 298 298 297 296 299 301 301 298 297 297 298 297 295 294 291 289 287 287 286 284 283
297 297 297 297 296 296 295 294 293 293 294 295 295 296 296 295 295 294 295 295 296 296 297 300 301 298 298 298 295 295 294 295 296 297 299 298 299 298 298 302 297 297 296 295 292 291 290 289 288 286 285 284 283 281
297 297 297 296 296 295 294 293 293 293 294 295 294 294 296 296 296 296 296 296 296 294 294 299 300 300 297 296 298 293 296 295 296 297 297 300 298 298 302 297 296 296 294 293 293 293 291 288 286 285 283 283 282 282
297 296 295 295 295 294 294 293 293 293 293 293 294 294 294 294 295 296 296 296 297 295 295 295 300 301 296 296 295 295 294 298 293 298 298 298 298 301 300 297 296 295 295 293 290 288 287 287 285 284 283 283 283 282
296 296 295 295 294 294 293 293 293 292 291 291 293 291 290 294 296 296 296 293 293 295 295 295 292 300 296 295 295 296 293 297 300 298 295 299 301 295 296 296 295 295 293 290 290 288 287 286 285 284 284 283 282 281
296 295 295 295 294 293 293 293 292 292 291 291 291 292 293 296 295 295 293 293 295 295 295 294 295 298 294 298 297 293 297 296 299 299 300 299 299 296 294 295 294 293 291 291 291 290 288 287 286 284 283 281 280 279
295 294 294 294 294 293 293 292 292 292 291 292 293 295 296 295 296 295 296 296 296 297 295 296 295 296 295 294 298 295 297 295 299 294 299 299 297 292 293 294 294 291 289 289 288 287 286 286 285 283 282 280 278 277
295 294 294 293 293 293 292 292 291 292 294 295 294 295 293 294 295 293 296 297 297 294 293 294 296 297 294 294 293 296 296 296 293 299 297 297 291 290 291 291 291 290 289 287 285 285 284 283 282 281 279 277 276 275
293 293 293 293 293 293 291 291 292 294 293 290 290 295 291 292 293 292 295 295 292 292 293 293 295 297 292 295 290 296 292 293 294 296 296 295 291 290 289 288 288 288 285 285 283 282 281 280 279 279 279 277 276 274
291 291 293 293 293 292 292 292 292 292 291 291 290 291 293 290 290 293 292 295 293 290 293 294 294 294 291 292 291 292 295 296 295 296 295 292 287 287 286 285 284 282 280 280 280 279 278 277 277 275 276 276 276 274
292 293 293 293 292 292 292 291 291 291 289 289 289 292 292 295 295 296 296 297 291 291 291 293 293 293 294 293 294 294 295 295 295 292 290 286 285 285 284 283 281 280 279 278 278 278 277 276 276 275 275 274 274 273
291 293 293 292 292 291 291 290 290 289 289 289 290 290 291 291 294 296 296 296 289 294 294 293 292 293 293 294 294 293 294 293 291 290 291 285 284 283 280 279 278 278 277 277 277 277 276 276 275 273 272 273 273 273
292 292 292 291 291 291 290 290 289 290 290 287 291 290 290 290 292 294 293 293 296 296 296 295 293 294 291 294 294 292 289 286 288 288 286 280 279 279 280 280 278 278 277 276 277 276 275 274 273 274 274 273 272 273
292 292 291 291 290 290 289 289 289 290 288 287 285 287 290 290 289 290 292 292 294 293 293 292 293 294 294 290 292 290 286 289 291 287 280 275 277 278 278 278 278 277 276 276 275 275 274 275 276 275 274 273 274 274
291 291 290 290 290 289 289 289 289 291 290 288 288 289 288 289 290 289 291 292 294 297 297 296 294 292 292 290 288 290 289 286 284 287 287 279 276 277 277 277 277 276 275 275 275 275 274 274 275 275 275 275 275 276
290 290 290 290 290 290 288 289 289 288 289 289 289 290 289 289 288 288 289 291 294 295 297 294 292 287 281 283 285 285 284 285 287 288 288 282 275 277 276 276 276 276 276 276 276 275 275 276 276 276 276 276 277 277
289 290 290 289 288 288 289 289 289 288 289 290 290 290 289 288 288 288 288 290 291 289 288 287 287 284 285 287 284 285 285 284 283 280 279 278 278 277 277 276 276 276 276 276 276 276 276 276 277 277 277 277 277 277
290 290 289 287 285 284 288 290 290 290 287 290 290 290 290 289 287 288 290 289 287 282 283 284 284 285 284 283 284 284 283 283 281 280 279 279 278 278 277 276 277 276 276 275 276 277 277 277 277 277 278 278 277 276
289 287 283 282 283 283 286 287 290 290 290 291 288 288 289 290 291 292 292 287 283 281 284 285 285 285 285 285 283 282 282 282 280 279 279 278 278 277 277 277 277 278 278 278 277 277 277 277 278 278 277 276 276 275
286 283 280 278 286 283 285 284 291 289 285 288 289 289 291 291 292 290 290 284 285 286 285 284 285 285 286 284 281 281 282 282 280 279 278 279 277 276 276 277 277 278 278 278 277 277 278 278 278 277 276 275 275 274
282 282 281 280 280 284 284 281 286 287 281 289 289 286 286 288 289 289 285 280 280 283 282 282 285 286 285 283 283 282 282 282 281 279 278 279 279 278 277 277 277 278 279 279 279 278 278 278 277 276 275 274 273 273
282 282 286 286 288 288 284 285 286 285 284 287 285 285 285 285 285 282 279 278 278 278 278 279 281 285 285 281 280 280 281 281 281 280 278 278 278 278 279 278 278 280 280 280 279 279 279 277 276 275 273 272 272 271
282 283 285 284 285 287 285 285 283 284 283 285 287 288 285 285 284 279 278 277 276 277 278 278 279 281 281 280 279 278 278 278 278 278 278 277 277 278 279 279 278 278 278 277 277 277 277 276 274 273 272 271 269 268
285 284 284 284 285 286 287 289 289 284 282 286 289 288 281 276 274 273 275 275 277 277 277 277 276 277 276 277 277 277 276 277 278 277 276 275 274 273 275 276 276 276 276 275 274 274 274 274 272 271 270 268 267 267
284 285 286 285 285 286 281 280 279 276 277 278 277 277 275 274 273 273 274 275 275 275 275 276 275 276 274 275 274 275 277 278 279 278 277 276 274 273 274 274 273 272 272 271 271 270 270 269 269 268 267 266 265 265
285 284 283 281 281 278 278 277 277 276 275 275 274 276 275 274 273 272 273 274 275 275 275 274 274 275 276 276 276 275 274 276 277 277 278 277 274 273 271 271 270 270 270 269 269 269 269 268 267 266 265 264 263 262
284 284 283 282 280 279 279 280 279 277 276 276 275 274 274 276 276 272 271 273 274 274 273 273 273 271 273 274 275 275 275 274 274 274 274 273 271 270 270 270 270 269 269 269 268 268 267 267 265 264 263 262 261 260
280 280 280 280 280 281 279 280 280 278 277 277 276 274 273 275 275 270 269 270 271 272 272 272 272 272 272 273 272 272 272 272 271 271 271 271 271 270 270 269 269 268 268 267 267 266 265 264 263 262 261 260 259 258

GFSWCAN_925_thetae_126.txt.gz
Theta_e
299 298 298 299 298 298 297 296 296 295 294 295 297 298 298 298 298 298 298 298 303 303 302 301 301 301 301 301 301 301 302 302 303 306 307 308 309 309 309 306 306 306 309 310 310 311 311 298 301 306 301 298 297 296
299 298 298 298 298 297 297 296 295 293 294 295 296 298 298 298 298 297 299 298 300 302 301 299 298 298 299 299 301 300 303 303 303 305 305 307 308 308 308 309 304 307 305 307 305 305 298 297 299 299 299 298 296 295
299 298 298 298 298 297 297 297 294 293 293 294 296 298 298 297 297 298 299 300 301 303 302 301 301 299 299 299 299 302 302 302 302 302 307 307 308 307 309 307 306 303 302 303 302 298 297 296 296 296 297 296 294 293
299 298 298 298 298 297 297 297 294 293 293 295 296 298 298 297 297 297 298 297 302 303 304 302 299 300 298 300 300 301 301 300 301 302 304 306 307 306 306 306 306 304 303 301 299 297 297 295 295 295 294 293 291 290
299 298 297 297 297 297 296 295 294 293 293 295 296 297 297 296 296 297 297 297 297 302 303 302 301 299 300 300 300 300 300 301 302 302 304 306 305 305 305 305 306 303 303 305 306 300 299 297 294 293 292 291 290 289
299 298 297 297 297 296 296 295 294 293 295 296 296 297 296 296 296 298 301 298 298 301 302 303 300 301 300 300 300 300 300 301 301 302 303 303 303 304 305 306 302 301 300 301 301 299 297 295 293 292 291 290 288 287
299 298 297 297 296 296 296 294 294 293 296 296 296 296 296 296 296 299 300 298 296 299 303 302 302 301 300 300 299 300 300 300 301 301 301 302 304 304 305 305 301 300 299 299 298 295 294 293 292 290 289 287 286 285
298 297 297 297 296 296 294 294 293 295 296 296 296 296 296 296 297 297 297 296 296 299 302 302 303 302 299 300 301 299 300 300 300 301 302 302 303 303 304 302 301 299 298 298 297 296 296 293 290 289 287 286 286 285
298 297 297 297 296 295 294 294 294 295 295 295 296 295 295 296 298 297 296 296 296 300 302 302 303 303 300 300 300 301 300 302 300 302 302 302 303 303 302 302 300 299 298 298 296 294 293 292 290 288 288 287 286 285
297 297 297 296 295 294 293 294 294 294 294 294 293 295 298 297 296 296 298 300 300 299 299 301 300 302 301 301 300 301 301 301 302 302 301 303 303 302 301 301 300 299 298 296 295 294 293 292 290 289 288 287 287 285
297 297 296 295 294 294 293 293 293 293 293 293 295 294 294 296 297 298 299 300 299 300 299 299 301 301 299 302 301 300 302 301 302 303 302 303 303 302 300 300 299 298 297 296 296 295 293 292 291 289 288 286 285 283
295 295 295 294 294 293 293 292 291 292 292 294 295 296 296 297 297 298 299 298 299 299 298 301 301 301 300 300 301 300 302 301 302 301 301 303 303 299 299 299 298 297 296 295 294 293 292 291 290 288 287 285 284 282
295 295 294 294 293 292 292 291 291 292 295 295 296 296 298 296 297 299 299 299 299 298 298 300 301 301 300 301 301 301 302 302 300 302 302 302 299 297 299 299 298 296 294 293 293 291 290 289 288 287 285 283 280 278
295 294 294 293 293 292 292 291 293 294 294 296 296 296 297 297 298 298 299 299 297 298 298 301 300 303 300 300 300 302 299 300 301 301 301 302 298 296 297 297 296 294 293 292 290 289 287 285 284 282 281 279 278 275
294 294 294 293 293 291 291 294 292 292 293 295 295 296 296 295 296 296 296 297 295 298 299 300 300 301 300 299 299 299 300 301 301 301 302 300 294 293 293 293 293 291 289 288 286 284 282 280 280 278 278 277 277 275
294 293 293 293 292 291 292 293 292 291 292 294 294 296 295 298 298 298 299 298 295 298 297 300 299 301 300 300 300 301 300 300 302 301 299 296 292 291 292 290 290 288 287 286 285 282 280 279 278 278 276 275 275 274
293 293 292 292 292 291 291 292 291 292 292 293 295 293 294 297 298 298 297 296 295 298 303 299 300 299 298 299 299 299 301 301 301 299 296 292 291 290 289 287 284 284 284 284 282 281 280 278 276 275 276 274 274 274
293 293 292 291 291 291 290 291 292 292 292 292 296 294 294 294 296 297 295 295 299 299 300 299 298 298 300 300 300 301 300 298 295 294 293 289 287 286 286 286 283 283 283 281 281 279 277 276 278 278 278 275 274 274
292 292 292 291 291 291 292 291 292 292 292 292 292 292 292 293 292 293 294 296 298 297 298 299 301 301 301 299 302 301 299 298 298 294 290 283 282 284 284 284 282 282 282 280 280 281 280 279 281 280 279 276 278 277
291 291 291 291 290 291 291 291 291 293 293 293 293 294 293 292 291 293 294 295 298 299 301 301 302 303 303 301 298 300 298 296 294 295 294 288 284 282 283 283 284 283 281 280 281 280 280 279 279 279 278 278 279 279
291 290 290 290 291 291 292 291 291 292 291 293 292 292 292 292 293 294 295 294 298 300 301 301 300 296 289 290 291 292 292 293 295 295 295 292 284 285 283 283 282 282 283 282 282 281 280 281 280 279 278 278 279 280
289 290 290 289 290 290 291 291 292 291 292 292 293 292 292 294 294 294 291 294 295 295 294 294 293 293 292 290 291 289 288 288 286 284 283 284 286 285 284 283 282 283 283 283 283 282 281 281 280 279 279 279 278 279
290 290 289 289 290 291 290 291 291 291 291 292 292 292 292 292 292 291 294 292 291 288 287 288 288 288 288 285 286 286 285 287 289 288 285 286 285 284 284 283 283 283 283 282 282 282 281 279 278 279 279 278 279 278
289 287 288 289 290 290 289 291 291 291 291 292 291 291 291 291 292 293 294 293 290 287 288 288 288 289 288 288 289 287 285 286 285 284 283 284 285 283 282 282 282 282 282 281 280 280 279 279 278 278 279 279 279 278
290 288 289 288 288 290 291 291 292 291 290 289 290 291 292 292 292 292 293 292 289 288 288 287 287 287 289 290 287 285 282 284 286 286 282 282 282 281 281 281 280 280 280 280 280 280 279 279 279 279 278 278 278 276
289 287 289 288 289 290 289 291 292 291 291 290 290 291 292 292 292 293 292 286 286 286 284 285 286 288 288 286 286 285 284 282 283 285 281 281 281 283 283 282 282 280 279 281 280 280 279 279 279 278 277 275 274 275
290 290 289 288 290 289 290 289 290 292 292 292 293 292 293 293 294 290 284 282 283 281 280 281 282 285 287 284 281 279 279 280 281 280 278 277 278 279 281 282 282 281 279 279 280 280 280 278 277 276 275 273 273 273
290 290 290 290 290 290 291 290 291 292 293 291 292 293 293 293 291 284 282 279 278 278 279 278 278 279 280 279 279 278 277 277 277 277 277 276 275 276 277 278 278 279 278 277 277 278 277 276 275 274 272 269 267 267
289 290 290 288 290 291 291 292 293 289 285 290 293 293 287 280 278 278 278 277 277 278 281 281 278 278 277 277 277 278 278 279 281 282 282 281 279 274 274 274 274 274 274 275 275 274 273 272 270 269 267 266 264 264
289 289 291 289 290 292 289 285 286 282 281 282 281 280 279 278 275 274 275 277 278 279 277 278 278 279 279 279 278 277 276 277 278 281 282 281 277 273 273 273 272 272 271 270 270 269 270 270 268 267 266 265 264 263
288 288 288 288 288 284 283 281 280 280 280 280 280 282 281 278 275 273 272 272 275 276 277 277 277 277 278 279 279 279 277 275 276 277 277 274 273 272 271 271 270 270 270 269 269 268 268 267 266 265 263 262 261 261
287 287 287 286 284 281 281 283 283 282 281 281 280 279 278 279 280 275 270 271 276 276 274 275 275 272 272 272 273 273 273 271 271 273 274 273 271 270 270 270 270 270 269 269 268 267 266 265 264 262 261 260 259 258
284 283 283 283 282 283 282 283 282 281 280 280 279 278 278 279 278 272 269 270 270 270 270 270 270 270 271 271 270 271 272 272 272 271 271 271 270 270 269 269 269 268 268 267 266 265 264 263 261 260 259 259 258 257

GFSWCAN_925_thetae_129.txt.gz
Theta_e
297 295 300 299 298 297 297 297 296 295 296 296 297 299 299 298 298 302 302 304 306 307 305 304 304 304 304 304 305 304 304 304 303 306 306 307 309 309 310 308 308 309 310 311 311 312 313 303 304 307 304 301 299 299
297 297 299 299 299 297 297 297 296 295 295 296 298 298 298 297 297 302 303 303 304 305 305 302 301 302 302 303 304 304 304 303 304 305 306 308 310 310 309 312 306 309 308 311 308 307 300 301 304 302 301 300 299 298
296 299 299 299 299 297 297 296 294 294 295 296 298 298 297 297 298 302 303 303 303 306 304 303 303 301 302 303 303 303 304 305 305 307 308 309 309 308 310 309 309 306 305 307 305 300 299 299 300 300 299 299 297 296
295 298 298 299 298 297 297 295 294 293 294 296 298 298 297 297 300 302 303 304 303 304 304 302 301 301 302 302 303 304 304 304 305 307 307 308 308 308 308 309 308 308 306 304 302 299 299 299 299 298 297 296 294 293
294 299 298 298 298 297 297 295 294 293 294 296 298 297 296 297 299 301 302 302 303 305 304 304 301 302 301 301 302 302 303 305 305 305 308 307 306 307 307 307 308 306 306 306 309 302 303 300 298 297 295 294 293 292
297 298 298 298 297 297 296 295 293 293 295 297 297 296 296 298 300 302 303 302 302 302 304 304 302 302 301 301 301 301 302 303 303 304 305 306 306 308 307 307 307 305 304 304 304 302 302 299 297 296 294 293 291 291
298 298 298 297 296 297 296 295 293 295 296 297 297 296 296 296 298 302 304 301 301 303 304 303 303 302 301 301 302 302 302 302 303 303 303 304 305 305 307 306 305 304 303 302 302 300 299 298 297 295 293 291 290 289
298 298 297 297 297 296 295 295 294 296 296 296 296 296 296 298 299 300 298 297 301 303 303 304 304 303 301 302 303 302 302 302 303 303 302 303 304 304 304 305 304 303 302 301 299 300 299 297 295 293 291 290 289 288
298 297 297 297 296 295 294 294 296 296 296 296 296 296 298 299 301 299 296 300 301 304 305 305 304 305 302 302 302 302 302 305 302 304 304 303 305 304 303 303 303 302 302 300 300 299 298 296 294 293 291 290 289 288
298 297 297 296 296 294 294 294 296 296 296 295 296 297 301 299 297 299 301 303 304 302 303 305 304 304 303 303 303 303 303 303 304 304 303 304 305 305 302 302 302 302 301 300 299 298 296 295 294 292 291 290 289 287
297 297 297 296 294 294 295 295 295 294 294 296 298 298 297 297 300 301 303 303 303 303 303 302 303 303 302 304 303 303 304 303 304 305 304 305 305 305 303 302 302 301 301 300 299 298 297 295 294 293 292 290 289 287
297 296 296 295 294 294 295 294 294 295 295 296 297 298 298 299 300 303 301 301 301 302 302 304 303 302 303 303 303 303 303 303 304 303 304 305 306 302 302 302 302 301 299 299 298 297 296 295 293 292 291 289 288 286
296 296 295 294 294 294 293 293 293 294 296 297 298 298 300 299 301 302 301 301 303 301 302 303 304 303 303 303 304 303 305 305 303 303 304 304 302 301 302 302 301 299 298 297 296 295 294 293 292 291 290 288 285 284
295 294 294 294 294 293 292 291 294 296 296 297 301 299 301 300 301 301 301 303 300 301 303 305 304 304 303 303 303 304 302 303 304 304 303 305 302 300 301 301 300 299 298 297 295 294 293 292 289 288 287 284 283 280
295 294 294 293 292 291 292 294 293 295 296 298 299 298 298 298 298 298 298 299 299 302 303 303 303 304 303 302 302 301 302 303 303 303 307 305 298 298 299 299 297 295 293 292 291 289 287 286 284 284 282 281 280 277
294 293 293 292 291 292 293 293 294 294 295 296 296 297 298 299 299 300 301 298 299 303 303 302 303 304 303 303 302 303 301 301 304 306 304 301 296 295 296 295 295 292 292 290 289 287 285 283 283 283 280 280 277 276
293 293 292 291 291 293 293 294 294 294 295 296 297 296 299 300 299 298 299 299 300 302 304 302 303 302 301 302 302 301 303 305 304 304 301 294 293 293 293 292 290 290 290 289 287 286 284 283 282 280 280 278 277 276
293 292 291 291 292 293 293 293 293 294 295 295 298 296 296 296 298 297 297 299 302 301 302 301 300 301 303 302 303 303 304 302 301 300 298 292 289 290 290 290 288 288 288 287 286 285 283 281 281 282 282 278 278 277
293 292 291 292 293 293 293 293 294 294 295 295 296 296 296 296 295 294 296 299 301 300 301 302 303 302 302 304 305 305 304 303 303 298 295 288 288 288 289 288 287 287 286 285 285 285 284 282 285 284 283 279 280 280
292 291 291 290 293 293 293 293 293 294 296 295 296 296 295 295 295 294 298 298 299 302 302 303 303 302 303 302 303 303 302 300 300 301 298 293 288 286 287 287 289 287 286 285 285 285 285 284 284 284 282 281 282 282
292 291 290 293 293 293 293 293 293 294 294 295 294 295 295 296 297 298 298 298 300 301 302 301 300 297 293 292 295 297 296 297 299 299 299 296 290 291 288 288 287 287 288 287 287 285 285 285 284 283 282 281 282 282
291 291 293 292 293 293 293 292 293 293 294 294 295 295 296 297 297 296 295 298 299 297 295 295 295 295 296 293 292 292 290 292 291 290 289 290 292 291 290 289 288 288 288 287 287 286 285 285 284 282 282 282 281 281
292 292 292 291 293 293 292 293 293 292 293 293 294 294 295 296 295 293 296 295 294 291 290 291 290 291 291 289 290 290 289 292 293 292 291 290 290 289 289 288 288 287 287 287 286 286 285 284 282 282 282 281 281 281
290 290 291 292 293 291 291 292 292 292 293 293 293 293 293 294 294 296 296 296 292 290 290 290 290 291 291 291 293 291 289 290 290 289 288 289 289 287 287 287 286 285 286 285 284 284 283 282 281 281 281 281 281 280
292 290 292 291 291 292 292 292 292 292 292 292 292 293 294 293 294 294 295 295 291 290 289 289 290 290 291 292 291 289 286 288 290 290 286 287 286 286 285 284 283 283 283 283 283 283 282 281 281 281 281 281 280 280
291 290 292 291 292 292 293 293 293 293 293 292 292 292 292 293 294 295 294 289 289 288 287 287 288 289 291 289 289 288 286 286 287 288 284 284 285 285 285 284 283 282 282 283 282 282 281 281 281 280 280 279 279 278
291 292 291 291 291 291 293 293 293 293 294 294 294 293 294 294 295 292 287 285 286 284 283 283 284 286 287 286 284 283 282 282 283 283 281 281 281 281 283 284 284 282 281 282 282 282 281 281 280 280 278 277 276 276
292 292 292 291 292 292 292 292 293 294 294 294 294 294 295 295 294 287 285 282 281 281 282 282 281 282 283 283 282 282 280 279 279 279 279 279 278 278 277 277 278 279 279 280 280 280 280 279 278 276 274 273 271 271
292 292 292 291 292 292 292 293 294 292 289 292 295 296 291 285 282 282 281 280 280 281 283 284 282 281 281 281 281 281 281 282 283 284 284 283 280 277 277 277 277 276 275 274 276 277 276 275 273 272 271 269 268 267
292 292 292 292 292 293 292 289 289 286 286 286 286 284 284 282 279 278 279 280 281 282 281 281 281 282 283 282 281 280 278 278 279 283 285 283 279 276 276 276 275 274 273 271 270 269 269 269 268 268 268 268 267 265
290 290 291 291 292 288 286 284 284 284 284 285 284 287 286 282 278 276 276 276 278 279 280 280 280 280 282 282 282 282 278 275 276 277 277 276 275 274 274 273 273 272 272 271 271 271 270 269 268 267 265 264 264 264
289 290 291 290 289 285 284 286 286 286 285 285 285 283 282 283 284 278 272 274 279 278 276 278 277 274 274 274 274 273 274 273 273 273 273 272 272 271 271 271 271 271 270 270 269 269 268 267 266 265 264 263 261 260
287 287 287 287 286 286 285 285 285 285 284 284 283 282 282 283 282 275 271 270 272 273 272 272 271 270 270 271 270 270 270 270 270 270 270 270 270 270 270 269 269 268 268 267 266 266 265 265 264 262 261 260 260 259